[[{"header":{"parameterUnit":"m.s-1","parameterCategory":1,"la1":31.0,"la2":29.5877,"lo1":-88.7671,"lo2":-86.6584,"dx":0.0162,"dy":0.0185,"nx":115,"ny":88,"refTime":"2022-11-30T18:00:00:Z","depth":0,"parameterNumber":2,"parameterNumberName":"U-component_of_WINDS"},"data":[0.0,0.0,0.0,0.0,0.0,0.0,0.0,0.0,0.0,0.0,0.0,0.0,0.0,0.0,0.0,0.0,0.0,0.0,0.0,0.0,0.0,0.0,0.0,0.0,0.0,0.0,0.0,0.0,0.0,0.0,0.0,0.0,0.0,0.0,0.0,0.0,0.0,0.0,0.0,0.0,0.0,0.0,0.0,0.0,0.0,0.0,0.0,0.0,0.0,0.0,0.0,0.0,0.0,0.0,0.0,0.0,0.0,0.0,0.0,0.0,0.0,0.0,0.0,0.0,0.0,0.0,0.0,0.0,0.0,0.0,0.0,0.0,0.0,0.0,0.0,0.0,0.0,0.0,0.0,0.0,0.0,0.0,0.0,0.0,0.0,0.0,0.0,0.0,0.0,0.0,0.0,0.0,0.0,0.0,0.0,0.0,0.0,0.0,0.0,0.0,0.0,0.0,0.0,0.0,0.0,0.0,0.0,0.0,0.0,0.0,0.0,0.0,0.0,0.0,0.0,0.0,0.0,0.0,0.0,0.0,0.0,0.0,0.0,0.0,0.0,0.0,0.0,0.0,0.0,0.0,0.0,0.0,0.0,0.0,0.0,0.0,0.0,0.0,0.0,0.0,0.0,0.0,0.0,0.0,0.0,0.0,0.0,0.0,0.0,0.0,0.0,0.0,0.0,0.0,0.0,0.0,0.0,0.0,0.0,0.0,0.0,0.0,0.0,0.0,0.0,0.0,0.0,0.0,0.0,0.0,0.0,0.0,0.0,0.0,0.0,0.0,0.0,0.0,0.0,0.0,0.0,0.0,0.0,0.0,0.0,0.0,0.0,0.0,0.0,0.0,0.0,0.0,0.0,0.0,0.0,0.0,0.0,0.0,0.0,0.0,0.0,0.0,0.0,0.0,0.0,0.0,0.0,0.0,0.0,0.0,0.0,0.0,0.0,0.0,0.0,0.0,0.0,0.0,0.0,0.0,0.0,0.0,0.0,0.0,0.0,0.0,0.0,0.0,0.0,0.0,0.0,0.0,0.0,0.0,0.0,0.0,0.0,0.0,0.0,0.0,0.0,0.0,0.0,0.0,0.0,0.0,0.0,0.0,0.0,0.0,0.0,0.0,0.0,0.0,0.0,0.0,0.0,0.0,0.0,0.0,0.0,0.0,0.0,0.0,0.0,0.0,0.0,0.0,0.0,0.0,0.0,0.0,0.0,0.0,0.0,0.0,0.0,0.0,0.0,0.0,0.0,0.0,0.0,0.0,0.0,0.0,0.0,0.0,0.0,0.0,0.0,0.0,0.0,0.0,0.0,0.0,0.0,0.0,0.0,0.0,0.0,0.0,0.0,0.0,0.0,0.0,0.0,0.0,0.0,0.0,0.0,0.0,0.0,0.0,0.0,0.0,0.0,0.0,0.0,0.0,0.0,0.0,0.0,0.0,0.0,0.0,0.0,0.0,0.0,0.0,0.0,0.0,0.0,0.0,0.0,0.0,0.0,0.0,0.0,0.0,0.0,0.0,0.0,0.0,0.0,0.0,0.0,0.0,0.0,0.0,0.0,0.0,0.0,0.0,0.0,0.0,0.0,0.0,0.0,0.0,0.0,0.0,0.0,0.0,0.0,0.0,0.0,0.0,0.0,0.0,0.0,0.0,0.0,0.0,0.0,0.0,0.0,0.0,0.0,0.0,0.0,0.0,0.0,0.0,0.0,0.0,0.0,0.0,0.0,0.0,0.0,0.0,0.0,0.0,0.0,0.0,0.0,0.0,0.0,0.0,0.0,0.0,0.0,0.0,0.0,0.0,0.0,0.0,0.0,0.0,0.0,0.0,0.0,0.0,0.0,0.0,0.0,0.0,0.0,0.0,0.0,0.0,0.0,0.0,0.0,0.0,0.0,0.0,0.0,0.0,0.0,0.0,0.0,0.0,0.0,0.0,0.0,0.0,0.0,0.0,0.0,0.0,0.0,0.0,0.0,0.0,0.0,0.0,0.0,0.0,0.0,0.0,0.0,0.0,0.0,0.0,0.0,0.0,0.0,0.0,0.0,0.0,0.0,0.0,0.0,0.0,0.0,0.0,0.0,0.0,0.0,0.0,0.0,0.0,0.0,0.0,0.0,0.0,0.0,0.0,0.0,0.0,0.0,0.0,0.0,0.0,0.0,0.0,0.0,0.0,0.0,0.0,0.0,0.0,0.0,0.0,0.0,0.0,0.0,0.0,0.0,0.0,0.0,0.0,0.0,0.0,0.0,0.0,0.0,0.0,0.0,0.0,0.0,0.0,0.0,0.0,0.0,0.0,0.0,0.0,0.0,0.0,0.0,0.0,0.0,0.0,0.0,0.0,0.0,0.0,0.0,0.0,0.0,0.0,0.0,0.0,0.0,0.0,0.0,0.0,0.0,0.0,0.0,0.0,0.0,0.0,0.0,0.0,0.0,0.0,0.0,0.0,0.0,0.0,0.0,0.0,0.0,0.0,0.0,0.0,0.0,0.0,0.0,0.0,0.0,0.0,0.0,0.0,0.0,0.0,0.0,0.0,0.0,0.0,0.0,0.0,0.0,0.0,0.0,0.0,0.0,0.0,0.0,0.0,0.0,0.0,0.0,0.0,0.0,0.0,0.0,0.0,0.0,0.0,0.0,0.0,0.0,0.0,0.0,0.0,0.0,0.0,0.0,0.0,0.0,0.0,0.0,0.0,0.0,0.0,0.0,0.0,0.0,0.0,0.0,0.0,0.0,0.0,0.0,0.0,0.0,0.0,0.0,0.0,0.0,0.0,0.0,0.0,0.0,0.0,0.0,0.0,0.0,0.0,0.0,0.0,0.0,0.0,0.0,0.0,0.0,0.0,0.0,0.0,0.0,0.0,0.0,0.0,0.0,0.0,0.0,0.0,0.0,0.0,0.0,0.0,0.0,0.0,0.0,0.0,0.0,0.0,0.0,0.0,0.0,0.0,0.0,0.0,0.0,0.0,0.0,0.0,0.0,0.0,0.0,0.0,0.0,0.0,0.0,0.0,0.0,0.0,0.0,0.0,0.0,0.0,0.0,0.0,0.0,0.0,0.0,0.0,0.0,0.0,0.0,0.0,0.0,0.0,0.0,0.0,0.0,0.0,0.0,0.0,0.0,0.0,0.0,0.0,0.0,0.0,0.0,0.0,0.0,0.0,0.0,0.0,0.0,0.0,0.0,0.0,0.0,0.0,0.0,0.0,0.0,0.0,0.0,0.0,0.0,0.0,0.0,0.0,0.0,0.0,0.0,0.0,0.0,0.0,0.0,0.0,0.0,0.0,0.0,0.0,0.0,0.0,0.0,0.0,0.0,0.0,0.0,0.0,0.0,0.0,0.0,0.0,0.0,0.0,0.0,0.0,0.0,0.0,0.0,0.0,0.0,0.0,0.0,0.0,0.0,0.0,0.0,0.0,0.0,0.0,0.0,0.0,0.0,0.0,0.0,0.0,0.0,0.0,0.0,0.0,0.0,0.0,0.0,0.0,0.0,0.0,0.0,0.0,0.0,0.0,0.0,0.0,0.0,0.0,0.0,0.0,0.0,0.0,0.0,0.0,0.0,0.0,0.0,0.0,0.0,0.0,0.0,0.0,0.0,0.0,0.0,0.0,0.0,0.0,0.0,0.0,0.0,0.0,0.0,0.0,0.0,0.0,0.0,0.0,0.0,0.0,0.0,0.0,0.0,0.0,0.0,0.0,0.0,0.0,0.0,0.0,0.0,0.0,0.0,0.0,0.0,0.0,0.0,0.0,0.0,0.0,0.0,0.0,0.0,0.0,0.0,0.0,0.0,0.0,0.0,0.0,0.0,0.0,0.0,0.0,0.0,0.0,0.0,0.0,0.0,0.0,0.0,0.0,0.0,0.0,0.0,0.0,0.0,0.0,0.0,0.0,0.0,0.0,0.0,0.0,0.0,0.0,0.0,0.0,0.0,0.0,0.0,0.0,0.0,0.0,0.0,0.0,0.0,0.0,0.0,0.0,0.0,0.0,0.0,0.0,0.0,0.0,0.0,0.0,0.0,0.0,0.0,0.0,0.0,0.0,0.0,0.0,0.0,0.0,0.0,0.0,0.0,0.0,0.0,0.0,0.0,0.0,0.0,0.0,0.0,0.0,0.0,0.0,0.0,0.0,0.0,0.0,0.0,0.0,0.0,0.0,0.0,0.0,0.0,0.0,0.0,0.0,0.0,0.0,0.0,0.0,0.0,0.0,0.0,0.0,0.0,0.0,0.0,0.0,0.0,0.0,0.0,0.0,-2.2501,0.0,0.0,0.0,-2.161,0.0,0.0,0.0,0.0,0.0,0.0,0.0,0.0,0.0,0.0,0.0,0.0,0.0,0.0,0.0,0.0,0.0,0.0,0.0,0.0,0.0,0.0,0.0,0.0,0.0,0.0,0.0,0.0,0.0,0.0,0.0,0.0,0.0,0.0,0.0,0.0,0.0,0.0,0.0,0.0,0.0,0.0,0.0,0.0,0.0,0.0,0.0,0.0,0.0,0.0,0.0,0.0,0.0,0.0,0.0,0.0,0.0,0.0,0.0,0.0,0.0,0.0,0.0,0.0,0.0,0.0,0.0,0.0,0.0,0.0,0.0,0.0,0.0,0.0,0.0,0.0,0.0,0.0,0.0,0.0,0.0,0.0,0.0,0.0,0.0,0.0,0.0,0.0,0.0,0.0,0.0,0.0,0.0,0.0,0.0,0.0,0.0,0.0,0.0,0.0,0.0,0.0,0.0,0.0,0.0,0.0,0.0,0.0,0.0,0.0,-2.2822,-2.2464,-2.2033,-2.2014,-2.2428,0.0,0.0,0.0,0.0,0.0,0.0,0.0,0.0,0.0,0.0,0.0,0.0,0.0,0.0,0.0,0.0,0.0,0.0,0.0,0.0,0.0,0.0,0.0,0.0,0.0,0.0,0.0,0.0,0.0,0.0,0.0,0.0,0.0,0.0,0.0,0.0,0.0,0.0,0.0,0.0,0.0,0.0,0.0,0.0,0.0,0.0,0.0,0.0,0.0,0.0,0.0,0.0,0.0,0.0,0.0,0.0,0.0,0.0,0.0,0.0,0.0,0.0,0.0,0.0,0.0,0.0,0.0,0.0,0.0,0.0,0.0,0.0,0.0,0.0,0.0,0.0,0.0,0.0,0.0,0.0,0.0,0.0,0.0,0.0,0.0,0.0,0.0,0.0,0.0,0.0,0.0,0.0,0.0,0.0,0.0,0.0,0.0,0.0,0.0,0.0,0.0,0.0,0.0,0.0,0.0,0.0,0.0,0.0,0.0,0.0,0.0,0.0,-2.2666,-2.2538,-2.2933,0.0,0.0,0.0,0.0,0.0,0.0,0.0,0.0,0.0,0.0,0.0,0.0,0.0,0.0,0.0,0.0,0.0,0.0,0.0,0.0,0.0,0.0,0.0,0.0,0.0,0.0,0.0,0.0,0.0,0.0,0.0,0.0,0.0,0.0,0.0,0.0,0.0,0.0,0.0,0.0,0.0,0.0,0.0,0.0,0.0,0.0,0.0,0.0,0.0,0.0,0.0,0.0,0.0,0.0,0.0,0.0,0.0,0.0,0.0,0.0,0.0,0.0,0.0,0.0,0.0,0.0,0.0,0.0,0.0,0.0,0.0,0.0,0.0,0.0,0.0,0.0,0.0,0.0,0.0,0.0,0.0,0.0,0.0,0.0,0.0,0.0,0.0,0.0,0.0,0.0,0.0,0.0,0.0,0.0,0.0,0.0,0.0,0.0,0.0,0.0,0.0,0.0,0.0,0.0,0.0,0.0,0.0,0.0,0.0,0.0,-2.408,-2.408,-2.4006,0.0,-2.3006,0.0,0.0,0.0,0.0,0.0,0.0,0.0,0.0,0.0,0.0,0.0,0.0,0.0,0.0,0.0,0.0,0.0,0.0,0.0,0.0,0.0,0.0,0.0,0.0,0.0,0.0,0.0,0.0,0.0,0.0,0.0,0.0,0.0,0.0,0.0,0.0,0.0,0.0,0.0,0.0,0.0,0.0,0.0,0.0,0.0,0.0,0.0,0.0,0.0,0.0,0.0,0.0,0.0,0.0,0.0,0.0,0.0,0.0,0.0,0.0,0.0,0.0,0.0,0.0,0.0,0.0,0.0,0.0,0.0,0.0,0.0,0.0,0.0,0.0,0.0,0.0,0.0,0.0,0.0,0.0,0.0,0.0,0.0,0.0,0.0,0.0,0.0,0.0,0.0,0.0,0.0,0.0,0.0,0.0,0.0,0.0,0.0,0.0,0.0,0.0,0.0,0.0,0.0,0.0,0.0,0.0,0.0,0.0,0.0,0.0,-2.4199,-2.4199,-2.4199,-2.3823,0.0,0.0,0.0,0.0,0.0,0.0,0.0,0.0,0.0,0.0,0.0,0.0,0.0,0.0,0.0,0.0,0.0,0.0,0.0,0.0,0.0,0.0,0.0,0.0,0.0,0.0,0.0,0.0,0.0,0.0,0.0,0.0,0.0,0.0,0.0,0.0,0.0,0.0,0.0,0.0,0.0,0.0,0.0,0.0,0.0,0.0,0.0,0.0,0.0,0.0,0.0,0.0,0.0,0.0,0.0,0.0,0.0,0.0,0.0,0.0,0.0,0.0,0.0,0.0,0.0,0.0,0.0,0.0,0.0,0.0,0.0,0.0,0.0,0.0,0.0,0.0,0.0,0.0,0.0,0.0,0.0,0.0,0.0,0.0,0.0,0.0,0.0,0.0,0.0,0.0,0.0,0.0,0.0,0.0,0.0,0.0,0.0,0.0,0.0,0.0,0.0,0.0,0.0,0.0,0.0,0.0,0.0,0.0,0.0,0.0,-2.4199,-2.4199,-2.4199,-2.4199,-2.3712,-2.2694,0.0,0.0,0.0,0.0,0.0,0.0,0.0,0.0,0.0,0.0,0.0,0.0,0.0,0.0,0.0,0.0,0.0,0.0,0.0,0.0,0.0,0.0,0.0,0.0,0.0,0.0,0.0,0.0,0.0,0.0,0.0,0.0,0.0,0.0,0.0,0.0,0.0,0.0,0.0,0.0,0.0,0.0,0.0,0.0,0.0,0.0,0.0,0.0,0.0,0.0,0.0,0.0,0.0,0.0,0.0,0.0,0.0,0.0,0.0,0.0,0.0,0.0,0.0,0.0,0.0,0.0,0.0,0.0,0.0,0.0,0.0,0.0,0.0,0.0,0.0,0.0,0.0,0.0,0.0,0.0,0.0,0.0,0.0,0.0,0.0,0.0,0.0,0.0,0.0,0.0,0.0,0.0,0.0,0.0,0.0,0.0,0.0,0.0,0.0,0.0,0.0,0.0,0.0,0.0,0.0,0.0,0.0,0.0,-2.4144,-2.4208,-2.4199,-2.4236,-2.4218,-2.3456,0.0,0.0,0.0,0.0,0.0,0.0,0.0,0.0,0.0,0.0,0.0,0.0,0.0,0.0,0.0,0.0,0.0,0.0,0.0,0.0,0.0,0.0,0.0,0.0,0.0,0.0,0.0,0.0,0.0,0.0,0.0,0.0,0.0,0.0,0.0,0.0,0.0,0.0,0.0,0.0,0.0,0.0,0.0,0.0,0.0,0.0,0.0,0.0,0.0,0.0,0.0,0.0,0.0,0.0,0.0,0.0,0.0,0.0,0.0,0.0,0.0,0.0,0.0,0.0,0.0,0.0,0.0,0.0,0.0,0.0,0.0,0.0,0.0,0.0,0.0,0.0,0.0,0.0,0.0,0.0,0.0,0.0,0.0,0.0,0.0,0.0,0.0,0.0,0.0,0.0,0.0,0.0,0.0,0.0,0.0,0.0,0.0,0.0,0.0,0.0,0.0,0.0,0.0,0.0,0.0,0.0,0.0,0.0,0.0,-2.4153,-2.4695,-2.497,-2.4952,-2.497,-2.4218,0.0,0.0,0.0,0.0,0.0,0.0,0.0,0.0,0.0,0.0,0.0,0.0,0.0,0.0,0.0,0.0,0.0,0.0,0.0,0.0,0.0,0.0,0.0,0.0,0.0,0.0,0.0,0.0,0.0,0.0,0.0,0.0,0.0,0.0,0.0,0.0,0.0,0.0,0.0,0.0,0.0,0.0,0.0,0.0,0.0,0.0,0.0,0.0,0.0,0.0,0.0,0.0,0.0,0.0,0.0,0.0,0.0,0.0,0.0,0.0,0.0,0.0,0.0,0.0,0.0,0.0,0.0,0.0,0.0,0.0,0.0,0.0,0.0,0.0,0.0,0.0,0.0,0.0,0.0,0.0,0.0,0.0,0.0,0.0,0.0,0.0,0.0,0.0,0.0,0.0,0.0,0.0,0.0,0.0,0.0,0.0,0.0,0.0,0.0,0.0,0.0,0.0,0.0,0.0,0.0,0.0,0.0,0.0,0.0,-2.4942,-2.5493,-2.5778,-2.5778,-2.554,-2.4768,0.0,0.0,0.0,0.0,0.0,0.0,0.0,0.0,0.0,0.0,0.0,0.0,0.0,0.0,0.0,0.0,0.0,0.0,0.0,0.0,0.0,0.0,0.0,0.0,0.0,0.0,0.0,0.0,0.0,0.0,0.0,0.0,0.0,0.0,0.0,0.0,0.0,0.0,0.0,0.0,0.0,0.0,0.0,0.0,0.0,0.0,0.0,0.0,0.0,0.0,0.0,0.0,0.0,0.0,0.0,0.0,0.0,0.0,0.0,0.0,0.0,0.0,0.0,0.0,0.0,0.0,0.0,0.0,0.0,0.0,0.0,0.0,0.0,0.0,0.0,0.0,0.0,0.0,0.0,0.0,0.0,0.0,0.0,0.0,0.0,0.0,0.0,0.0,0.0,0.0,0.0,0.0,0.0,0.0,0.0,0.0,0.0,0.0,0.0,0.0,0.0,0.0,0.0,0.0,0.0,0.0,0.0,0.0,-2.5034,-2.6528,-2.662,-2.6675,-2.6602,-2.5952,-2.5099,0.0,0.0,0.0,0.0,0.0,0.0,0.0,0.0,0.0,0.0,0.0,0.0,0.0,0.0,0.0,0.0,0.0,0.0,0.0,0.0,0.0,0.0,0.0,0.0,0.0,0.0,0.0,0.0,0.0,0.0,0.0,0.0,0.0,0.0,0.0,0.0,0.0,0.0,0.0,0.0,0.0,0.0,0.0,0.0,0.0,0.0,0.0,0.0,0.0,0.0,0.0,0.0,0.0,0.0,0.0,0.0,0.0,0.0,0.0,0.0,0.0,0.0,0.0,0.0,0.0,0.0,0.0,0.0,0.0,0.0,0.0,0.0,0.0,0.0,0.0,0.0,0.0,0.0,0.0,0.0,0.0,0.0,0.0,0.0,0.0,0.0,0.0,0.0,0.0,0.0,0.0,0.0,0.0,0.0,0.0,0.0,0.0,0.0,0.0,0.0,0.0,0.0,0.0,0.0,0.0,0.0,0.0,0.0,0.0,-2.8091,-2.8155,-2.8429,-2.8882,-2.821,-2.7149,0.0,0.0,0.0,0.0,0.0,0.0,0.0,0.0,0.0,0.0,0.0,0.0,0.0,0.0,0.0,0.0,0.0,0.0,0.0,0.0,0.0,0.0,0.0,0.0,0.0,0.0,0.0,0.0,0.0,0.0,0.0,0.0,0.0,0.0,0.0,0.0,0.0,0.0,0.0,0.0,0.0,0.0,0.0,0.0,0.0,0.0,0.0,0.0,0.0,0.0,0.0,0.0,0.0,0.0,0.0,0.0,0.0,0.0,0.0,0.0,0.0,0.0,0.0,0.0,0.0,0.0,0.0,0.0,0.0,0.0,0.0,0.0,0.0,0.0,0.0,0.0,0.0,0.0,0.0,0.0,0.0,0.0,0.0,0.0,0.0,0.0,0.0,0.0,0.0,0.0,0.0,0.0,0.0,0.0,0.0,0.0,0.0,0.0,0.0,0.0,0.0,0.0,0.0,0.0,0.0,0.0,0.0,0.0,0.0,-3.0174,-3.0488,-3.0726,-3.0899,-3.0458,-2.9278,-2.733,0.0,0.0,0.0,0.0,0.0,0.0,0.0,0.0,0.0,0.0,0.0,0.0,0.0,0.0,0.0,0.0,0.0,0.0,0.0,0.0,0.0,0.0,0.0,0.0,0.0,0.0,0.0,0.0,0.0,0.0,0.0,0.0,0.0,0.0,0.0,0.0,0.0,0.0,0.0,0.0,0.0,0.0,0.0,0.0,0.0,0.0,0.0,0.0,0.0,0.0,0.0,0.0,0.0,0.0,0.0,0.0,0.0,0.0,0.0,0.0,0.0,0.0,0.0,0.0,0.0,0.0,0.0,0.0,0.0,0.0,0.0,0.0,0.0,0.0,0.0,0.0,0.0,0.0,0.0,0.0,0.0,0.0,0.0,0.0,0.0,0.0,0.0,0.0,0.0,0.0,0.0,0.0,0.0,0.0,0.0,0.0,0.0,0.0,0.0,0.0,0.0,0.0,0.0,0.0,0.0,0.0,0.0,0.0,-3.2541,-3.3373,-3.3411,-3.2601,-3.2465,-3.1274,0.0,0.0,0.0,0.0,0.0,0.0,0.0,0.0,0.0,0.0,0.0,0.0,0.0,0.0,0.0,0.0,0.0,0.0,0.0,0.0,0.0,0.0,0.0,0.0,0.0,0.0,0.0,0.0,0.0,0.0,0.0,0.0,0.0,0.0,0.0,0.0,0.0,0.0,0.0,0.0,0.0,0.0,0.0,0.0,0.0,0.0,0.0,0.0,0.0,0.0,0.0,0.0,0.0,0.0,0.0,0.0,0.0,0.0,0.0,0.0,0.0,0.0,0.0,0.0,0.0,0.0,0.0,0.0,0.0,0.0,0.0,0.0,0.0,0.0,0.0,0.0,0.0,0.0,0.0,0.0,0.0,0.0,0.0,0.0,0.0,0.0,0.0,0.0,0.0,0.0,0.0,0.0,0.0,0.0,0.0,0.0,0.0,0.0,0.0,0.0,0.0,0.0,0.0,0.0,0.0,0.0,0.0,0.0,0.0,-3.3282,-3.5084,-3.5633,-3.4783,-3.3321,-3.1974,0.0,0.0,0.0,0.0,0.0,0.0,0.0,0.0,0.0,0.0,0.0,0.0,0.0,0.0,0.0,0.0,0.0,0.0,0.0,0.0,0.0,0.0,0.0,0.0,0.0,0.0,0.0,0.0,0.0,0.0,0.0,0.0,0.0,0.0,0.0,0.0,0.0,0.0,0.0,0.0,0.0,0.0,0.0,0.0,0.0,0.0,0.0,0.0,0.0,0.0,0.0,0.0,0.0,0.0,0.0,0.0,0.0,0.0,0.0,0.0,0.0,0.0,0.0,0.0,0.0,0.0,0.0,0.0,0.0,0.0,0.0,0.0,0.0,0.0,0.0,0.0,0.0,0.0,0.0,0.0,0.0,0.0,0.0,0.0,0.0,0.0,0.0,0.0,0.0,0.0,0.0,0.0,0.0,0.0,0.0,0.0,0.0,0.0,0.0,0.0,0.0,0.0,0.0,0.0,0.0,0.0,0.0,0.0,-3.2474,-3.3712,-3.5434,-3.6264,-3.6098,-3.4756,-3.3157,0.0,0.0,0.0,0.0,0.0,0.0,0.0,0.0,0.0,0.0,0.0,0.0,0.0,0.0,0.0,0.0,0.0,0.0,0.0,0.0,0.0,0.0,0.0,0.0,0.0,0.0,0.0,0.0,0.0,0.0,0.0,0.0,0.0,0.0,0.0,0.0,0.0,0.0,0.0,0.0,0.0,0.0,0.0,0.0,0.0,0.0,0.0,0.0,0.0,0.0,0.0,0.0,0.0,0.0,0.0,0.0,0.0,0.0,0.0,0.0,0.0,0.0,0.0,0.0,0.0,0.0,0.0,0.0,0.0,0.0,0.0,0.0,0.0,0.0,0.0,0.0,0.0,0.0,0.0,0.0,0.0,0.0,0.0,0.0,0.0,0.0,0.0,0.0,0.0,0.0,0.0,0.0,0.0,0.0,0.0,0.0,0.0,0.0,0.0,0.0,0.0,0.0,0.0,0.0,0.0,0.0,0.0,0.0,-3.323,-3.4076,-3.5077,-3.5994,-3.6734,-3.6137,-3.4392,0.0,0.0,0.0,0.0,0.0,0.0,0.0,0.0,0.0,0.0,0.0,0.0,0.0,0.0,0.0,0.0,0.0,0.0,0.0,0.0,0.0,0.0,0.0,0.0,0.0,0.0,0.0,0.0,0.0,0.0,0.0,0.0,0.0,0.0,0.0,0.0,0.0,0.0,0.0,0.0,0.0,0.0,0.0,0.0,0.0,0.0,0.0,0.0,0.0,0.0,0.0,0.0,0.0,0.0,0.0,0.0,0.0,0.0,0.0,0.0,0.0,0.0,0.0,0.0,0.0,0.0,0.0,0.0,0.0,0.0,0.0,0.0,0.0,0.0,0.0,0.0,0.0,0.0,0.0,0.0,0.0,0.0,0.0,0.0,0.0,0.0,0.0,0.0,0.0,0.0,0.0,0.0,0.0,0.0,0.0,0.0,0.0,0.0,0.0,0.0,0.0,0.0,0.0,0.0,0.0,0.0,0.0,0.0,-3.359,-3.5334,-3.552,-3.5977,-3.6761,-3.5214,-3.3773,0.0,0.0,0.0,0.0,0.0,0.0,0.0,0.0,0.0,0.0,0.0,0.0,0.0,0.0,0.0,0.0,0.0,0.0,0.0,0.0,0.0,0.0,0.0,0.0,0.0,0.0,0.0,0.0,0.0,0.0,0.0,0.0,0.0,0.0,0.0,0.0,0.0,0.0,0.0,0.0,0.0,0.0,0.0,0.0,0.0,0.0,0.0,0.0,-2.3018,0.0,0.0,0.0,0.0,0.0,0.0,0.0,0.0,0.0,0.0,0.0,0.0,0.0,0.0,0.0,0.0,0.0,0.0,0.0,0.0,0.0,0.0,0.0,0.0,0.0,0.0,0.0,0.0,0.0,0.0,0.0,0.0,0.0,0.0,0.0,0.0,0.0,0.0,0.0,0.0,0.0,0.0,0.0,0.0,0.0,0.0,0.0,0.0,0.0,0.0,0.0,0.0,0.0,0.0,0.0,0.0,0.0,0.0,0.0,-3.4354,-3.5761,-3.6378,-3.6891,-3.7252,-3.5691,-3.4155,0.0,0.0,0.0,0.0,0.0,0.0,0.0,0.0,0.0,0.0,0.0,0.0,0.0,0.0,0.0,0.0,0.0,0.0,0.0,0.0,0.0,0.0,0.0,0.0,0.0,0.0,0.0,0.0,0.0,0.0,0.0,0.0,0.0,0.0,0.0,0.0,0.0,0.0,0.0,0.0,0.0,0.0,0.0,0.0,0.0,0.0,0.0,0.0,0.0,0.0,0.0,0.0,0.0,0.0,0.0,0.0,0.0,0.0,0.0,0.0,0.0,0.0,0.0,0.0,0.0,0.0,0.0,0.0,0.0,0.0,0.0,0.0,0.0,0.0,0.0,0.0,0.0,0.0,0.0,0.0,0.0,0.0,0.0,0.0,0.0,0.0,0.0,0.0,0.0,0.0,0.0,0.0,0.0,0.0,0.0,0.0,0.0,0.0,0.0,0.0,0.0,0.0,0.0,0.0,0.0,0.0,0.0,-3.386,-3.5336,-3.6282,-3.736,-3.7956,-3.8041,-3.6695,-3.5044,-3.31,0.0,0.0,0.0,0.0,0.0,0.0,0.0,0.0,0.0,0.0,0.0,0.0,0.0,0.0,0.0,0.0,0.0,0.0,0.0,0.0,0.0,0.0,0.0,0.0,0.0,0.0,0.0,0.0,0.0,0.0,0.0,0.0,0.0,0.0,0.0,0.0,0.0,0.0,-2.0352,-2.1907,0.0,0.0,0.0,0.0,0.0,0.0,0.0,0.0,-2.7435,0.0,0.0,0.0,0.0,0.0,0.0,0.0,0.0,0.0,0.0,0.0,0.0,0.0,0.0,0.0,0.0,0.0,0.0,0.0,0.0,0.0,0.0,0.0,0.0,0.0,0.0,0.0,0.0,0.0,0.0,0.0,0.0,0.0,0.0,0.0,0.0,0.0,0.0,0.0,0.0,0.0,0.0,0.0,0.0,0.0,0.0,0.0,0.0,0.0,0.0,0.0,0.0,0.0,0.0,0.0,0.0,-3.3186,-3.4814,-3.6531,-3.8403,-3.8091,-3.821,-3.8734,-3.7388,-3.596,-3.4434,0.0,0.0,0.0,0.0,0.0,0.0,0.0,0.0,0.0,0.0,0.0,0.0,0.0,0.0,0.0,0.0,0.0,0.0,0.0,0.0,0.0,0.0,0.0,0.0,0.0,0.0,0.0,0.0,0.0,0.0,0.0,0.0,0.0,0.0,0.0,0.0,0.0,0.0,0.0,-2.4509,-2.5576,0.0,0.0,0.0,0.0,0.0,0.0,0.0,0.0,-2.9651,0.0,0.0,0.0,0.0,0.0,0.0,0.0,0.0,0.0,0.0,0.0,0.0,0.0,0.0,0.0,0.0,0.0,0.0,0.0,0.0,0.0,0.0,0.0,0.0,0.0,0.0,0.0,0.0,0.0,0.0,0.0,0.0,0.0,0.0,0.0,0.0,0.0,0.0,0.0,0.0,0.0,0.0,0.0,0.0,0.0,0.0,0.0,0.0,0.0,0.0,0.0,0.0,0.0,0.0,0.0,-3.4092,-3.5949,-3.7581,-3.8962,-3.9022,-3.9208,-3.9537,-3.8166,-3.6723,0.0,0.0,0.0,0.0,0.0,0.0,0.0,0.0,0.0,0.0,0.0,0.0,0.0,0.0,0.0,0.0,0.0,0.0,0.0,0.0,0.0,0.0,0.0,0.0,0.0,0.0,0.0,0.0,0.0,0.0,0.0,0.0,0.0,0.0,0.0,0.0,0.0,0.0,0.0,0.0,-2.6387,-2.7892,-2.9345,0.0,0.0,0.0,0.0,0.0,0.0,-3.1935,-3.1106,0.0,0.0,0.0,0.0,0.0,0.0,0.0,0.0,0.0,0.0,0.0,0.0,0.0,0.0,0.0,0.0,0.0,0.0,0.0,0.0,0.0,0.0,0.0,0.0,0.0,0.0,0.0,0.0,0.0,0.0,0.0,0.0,0.0,0.0,0.0,0.0,0.0,0.0,0.0,0.0,0.0,0.0,0.0,0.0,0.0,0.0,0.0,0.0,0.0,0.0,0.0,0.0,0.0,0.0,0.0,-3.5072,-3.7235,-3.8717,-3.9428,-4.018,-4.0485,-4.0299,-3.8903,-3.7394,0.0,0.0,0.0,0.0,0.0,0.0,0.0,0.0,0.0,0.0,0.0,0.0,0.0,0.0,0.0,0.0,0.0,0.0,0.0,0.0,0.0,0.0,0.0,0.0,0.0,0.0,0.0,0.0,0.0,0.0,0.0,0.0,0.0,0.0,0.0,0.0,0.0,0.0,0.0,0.0,0.0,-2.9822,-3.141,-3.114,0.0,0.0,0.0,0.0,-3.2869,-3.2835,0.0,0.0,0.0,0.0,0.0,0.0,0.0,0.0,0.0,0.0,0.0,0.0,0.0,0.0,0.0,0.0,0.0,0.0,0.0,0.0,0.0,0.0,0.0,0.0,0.0,0.0,0.0,0.0,0.0,0.0,0.0,0.0,0.0,0.0,0.0,0.0,0.0,0.0,0.0,0.0,0.0,0.0,0.0,0.0,0.0,0.0,0.0,0.0,0.0,0.0,0.0,0.0,0.0,0.0,0.0,0.0,-3.6491,-3.8734,-4.0197,-4.0933,-4.1644,-4.1728,-4.1085,-3.9648,-3.7902,0.0,0.0,0.0,0.0,0.0,0.0,0.0,0.0,0.0,0.0,0.0,0.0,0.0,0.0,0.0,0.0,0.0,0.0,0.0,0.0,0.0,0.0,0.0,0.0,0.0,0.0,0.0,0.0,0.0,0.0,0.0,0.0,0.0,0.0,0.0,0.0,0.0,0.0,0.0,0.0,0.0,-3.0751,-3.2848,-3.3085,-3.3013,0.0,0.0,-3.437,-3.5109,-3.4675,0.0,0.0,0.0,0.0,0.0,0.0,0.0,0.0,0.0,0.0,0.0,0.0,0.0,0.0,0.0,0.0,0.0,0.0,0.0,0.0,0.0,0.0,0.0,0.0,0.0,0.0,0.0,0.0,0.0,0.0,0.0,0.0,0.0,0.0,0.0,0.0,0.0,0.0,0.0,0.0,0.0,0.0,0.0,0.0,0.0,0.0,0.0,0.0,0.0,0.0,0.0,0.0,0.0,0.0,0.0,-3.5355,-3.7432,-4.002,-4.1508,-4.1813,-4.2134,-4.2134,-4.183,-4.0392,-3.8792,0.0,0.0,0.0,0.0,0.0,0.0,0.0,0.0,0.0,0.0,0.0,0.0,0.0,0.0,0.0,0.0,0.0,0.0,0.0,0.0,0.0,0.0,0.0,0.0,0.0,0.0,0.0,0.0,0.0,0.0,0.0,0.0,0.0,0.0,0.0,0.0,0.0,0.0,0.0,0.0,0.0,0.0,-3.2598,-3.3491,0.0,0.0,0.0,-3.459,-3.4928,0.0,0.0,0.0,0.0,0.0,0.0,0.0,0.0,0.0,0.0,0.0,0.0,0.0,0.0,0.0,0.0,0.0,0.0,0.0,0.0,0.0,0.0,0.0,0.0,0.0,0.0,0.0,0.0,0.0,0.0,0.0,0.0,0.0,0.0,0.0,0.0,0.0,0.0,0.0,0.0,0.0,0.0,0.0,0.0,0.0,0.0,0.0,0.0,0.0,0.0,0.0,0.0,0.0,0.0,0.0,0.0,0.0,-3.8193,-4.1085,-4.2591,-4.2574,-4.276,-4.2777,-4.2557,-4.1322,0.0,0.0,0.0,0.0,0.0,0.0,0.0,0.0,0.0,0.0,0.0,0.0,0.0,0.0,0.0,0.0,0.0,0.0,0.0,0.0,0.0,0.0,0.0,0.0,0.0,0.0,0.0,-1.6938,0.0,0.0,0.0,0.0,0.0,0.0,0.0,0.0,0.0,0.0,0.0,0.0,0.0,0.0,-3.1752,-3.2479,-3.3829,-3.459,0.0,0.0,-3.4776,-3.4776,-3.4945,-3.4595,0.0,0.0,0.0,0.0,0.0,0.0,0.0,0.0,0.0,0.0,0.0,0.0,0.0,0.0,0.0,0.0,0.0,0.0,0.0,0.0,0.0,0.0,0.0,0.0,0.0,0.0,0.0,0.0,0.0,0.0,0.0,0.0,0.0,0.0,0.0,0.0,0.0,0.0,0.0,0.0,0.0,0.0,0.0,0.0,0.0,0.0,0.0,0.0,0.0,0.0,0.0,0.0,0.0,0.0,-3.6738,-3.892,-4.183,-4.3341,-4.3341,-4.4062,-4.4079,-4.3325,-4.2574,-4.0815,0.0,0.0,0.0,0.0,0.0,0.0,0.0,0.0,0.0,0.0,0.0,0.0,0.0,0.0,0.0,0.0,0.0,0.0,0.0,0.0,0.0,0.0,0.0,0.0,0.0,0.0,0.0,0.0,0.0,0.0,0.0,0.0,0.0,0.0,0.0,0.0,0.0,0.0,0.0,0.0,0.0,-3.2513,-3.322,-3.4568,-3.5515,0.0,0.0,-3.5532,-3.5515,-3.6146,-3.6118,-3.459,0.0,0.0,0.0,0.0,0.0,0.0,0.0,0.0,0.0,0.0,0.0,0.0,0.0,0.0,0.0,0.0,0.0,0.0,0.0,0.0,0.0,0.0,0.0,0.0,0.0,0.0,0.0,0.0,0.0,0.0,0.0,0.0,0.0,0.0,0.0,0.0,0.0,0.0,0.0,0.0,0.0,0.0,0.0,0.0,0.0,0.0,0.0,0.0,0.0,0.0,0.0,0.0,0.0,-3.8565,-4.0341,-4.3301,-4.4823,-4.4857,-4.5551,-4.5585,-4.484,-4.4096,-4.2506,0.0,0.0,0.0,0.0,0.0,0.0,0.0,0.0,0.0,0.0,0.0,0.0,0.0,0.0,0.0,0.0,0.0,0.0,0.0,0.0,0.0,0.0,0.0,0.0,0.0,0.0,0.0,0.0,-2.7588,-2.8213,-2.7841,0.0,0.0,0.0,0.0,0.0,0.0,0.0,0.0,0.0,0.0,-3.2581,-3.3305,-3.5081,0.0,0.0,-3.6417,-3.7003,-3.7019,-3.6891,-3.6434,-3.5351,-3.4184,0.0,0.0,0.0,0.0,0.0,0.0,0.0,0.0,0.0,0.0,0.0,0.0,0.0,0.0,0.0,0.0,0.0,0.0,0.0,0.0,0.0,0.0,0.0,0.0,0.0,0.0,0.0,0.0,0.0,0.0,0.0,0.0,0.0,0.0,0.0,0.0,0.0,0.0,0.0,0.0,0.0,0.0,0.0,0.0,0.0,0.0,0.0,0.0,0.0,0.0,0.0,0.0,-3.9817,-4.1525,-4.4282,-4.5805,-4.6041,-4.6312,-4.6329,-4.6007,-4.5297,-4.3961,0.0,0.0,0.0,0.0,0.0,0.0,0.0,0.0,0.0,0.0,0.0,0.0,0.0,0.0,0.0,0.0,0.0,0.0,0.0,0.0,0.0,0.0,0.0,0.0,0.0,0.0,0.0,0.0,-3.0378,-3.0497,-2.8973,0.0,0.0,0.0,0.0,0.0,0.0,0.0,0.0,0.0,0.0,-3.3457,-3.3998,-3.5808,-3.6924,-3.636,-3.7212,-3.7898,-3.7898,-3.7652,-3.7178,-3.6411,0.0,0.0,0.0,0.0,0.0,0.0,0.0,0.0,0.0,0.0,0.0,0.0,0.0,0.0,0.0,0.0,0.0,0.0,0.0,0.0,0.0,0.0,0.0,0.0,0.0,0.0,0.0,-3.2384,0.0,0.0,-3.3933,0.0,0.0,0.0,0.0,0.0,0.0,0.0,0.0,0.0,0.0,0.0,0.0,0.0,0.0,0.0,0.0,0.0,0.0,0.0,0.0,0.0,0.0,-4.0121,-4.2269,-4.4587,-4.6075,-4.6735,-4.6109,-4.6092,-4.6701,-4.6058,-4.4942,-4.3358,0.0,0.0,0.0,0.0,0.0,0.0,0.0,0.0,0.0,0.0,0.0,0.0,0.0,0.0,0.0,0.0,0.0,0.0,0.0,0.0,0.0,0.0,0.0,0.0,0.0,0.0,-2.9905,-3.2019,-3.2696,0.0,0.0,0.0,0.0,0.0,0.0,0.0,0.0,0.0,0.0,-3.415,-3.5532,-3.5566,-3.6907,-3.7889,-3.7855,-3.7922,-3.7939,-3.799,-3.8514,-3.87,0.0,0.0,0.0,0.0,0.0,0.0,0.0,0.0,0.0,0.0,0.0,0.0,0.0,0.0,0.0,0.0,0.0,0.0,0.0,0.0,0.0,0.0,0.0,0.0,0.0,0.0,0.0,-3.5754,-3.8213,0.0,0.0,0.0,0.0,0.0,0.0,0.0,0.0,0.0,0.0,0.0,-4.0374,-3.9434,0.0,0.0,0.0,0.0,0.0,0.0,0.0,0.0,0.0,0.0,0.0,0.0,-4.2049,-4.3853,-4.6041,-4.7293,-4.753,-4.731,-4.7039,-4.6802,-4.6549,-4.5483,-4.3443,0.0,0.0,0.0,0.0,0.0,0.0,0.0,0.0,0.0,0.0,0.0,0.0,0.0,0.0,0.0,0.0,0.0,0.0,0.0,0.0,0.0,0.0,0.0,0.0,0.0,-3.0378,0.0,0.0,0.0,0.0,0.0,0.0,0.0,0.0,0.0,0.0,0.0,-3.3119,-3.4336,-3.5126,-3.5971,-3.7009,-3.8007,-3.8802,0.0,0.0,0.0,0.0,0.0,0.0,0.0,0.0,0.0,0.0,0.0,0.0,0.0,0.0,-3.2733,-3.1458,-3.0773,-3.0641,-3.1426,0.0,0.0,0.0,0.0,0.0,0.0,0.0,0.0,0.0,0.0,0.0,0.0,0.0,0.0,-4.0629,-4.2843,-4.2829,0.0,0.0,0.0,0.0,0.0,0.0,0.0,0.0,-4.4573,-4.4012,-4.3433,-4.2629,-4.1962,0.0,-4.0333,-3.8937,0.0,0.0,0.0,0.0,0.0,0.0,0.0,0.0,-4.3673,-4.5703,-4.7175,-4.8142,-4.8629,-4.8159,-4.7817,-4.7564,-4.7327,-4.6244,-4.4282,-4.2303,-4.0104,0.0,0.0,0.0,0.0,0.0,0.0,0.0,0.0,0.0,0.0,0.0,0.0,0.0,0.0,0.0,0.0,0.0,0.0,0.0,0.0,0.0,0.0,0.0,-3.3119,0.0,0.0,0.0,0.0,0.0,0.0,0.0,0.0,0.0,-3.2814,-3.3812,-3.503,-3.6242,-3.6834,-3.7533,-3.8531,0.0,0.0,0.0,0.0,0.0,0.0,0.0,-4.0138,-4.0138,-3.9749,-3.9343,-3.9089,-3.9056,-3.9031,-3.8965,0.0,0.0,-3.5105,-3.3941,-3.3531,-3.4128,-3.3721,-3.347,-3.4261,-3.4239,-3.4273,0.0,0.0,0.0,0.0,0.0,0.0,0.0,0.0,-4.4036,-4.4876,0.0,-4.6041,0.0,0.0,0.0,0.0,0.0,-4.6778,0.0,0.0,-4.6033,-4.5966,-4.6212,-4.5926,-4.5788,-4.5703,-4.4282,-4.3944,-4.4395,-4.0358,0.0,0.0,0.0,0.0,0.0,0.0,-4.501,-4.777,-4.7956,-4.8663,-4.9915,-4.8646,-4.8257,-4.8883,-4.8257,-4.7196,-4.5821,-4.4282,-4.2794,-4.1288,-3.7679,0.0,0.0,0.0,0.0,0.0,0.0,0.0,0.0,0.0,0.0,0.0,0.0,0.0,0.0,0.0,0.0,0.0,0.0,0.0,0.0,-3.3926,0.0,0.0,0.0,0.0,0.0,0.0,0.0,0.0,0.0,0.0,-3.5819,-3.6383,-3.7127,-3.7872,0.0,0.0,0.0,0.0,-4.2269,-4.2303,-4.232,-4.232,-4.2364,-4.232,-4.2286,-4.2252,0.0,0.0,-4.1373,-4.1271,-4.1202,-4.1131,-4.1697,-4.1352,-3.8269,-3.6805,-3.6201,-3.6674,-3.6446,-3.6274,-3.6177,-3.6034,-3.6118,-4.7094,0.0,0.0,0.0,0.0,-4.1789,-4.3474,-4.6211,-4.6211,-4.7264,-4.8992,-4.89,0.0,0.0,0.0,0.0,0.0,0.0,-4.851,-4.8471,-4.8184,-4.8117,-4.8218,-4.8115,-4.8071,-4.8037,-4.7614,-4.7513,-4.7665,-4.6447,-4.4857,-4.3024,0.0,0.0,0.0,0.0,-4.7297,-4.8646,-4.9204,-4.9424,-4.9306,-4.8362,-4.799,-4.8193,-4.8007,-4.7716,-4.7246,-4.5809,-4.435,-4.2784,-3.9749,0.0,0.0,0.0,0.0,0.0,0.0,0.0,0.0,0.0,0.0,0.0,0.0,0.0,0.0,0.0,0.0,0.0,0.0,0.0,-3.41,-3.5622,-3.6214,0.0,0.0,0.0,0.0,0.0,0.0,0.0,0.0,0.0,-3.87,-3.8531,-3.8633,0.0,0.0,-4.0485,-4.1525,-4.2033,-4.2489,-4.3014,-4.3098,0.0,-4.3098,-4.3098,-4.2912,-4.2388,-4.2303,-4.2388,-4.2699,-4.275,-4.2936,-4.3432,-4.3248,-4.2671,-4.1815,-4.0068,-3.8696,-3.8183,-3.7536,-3.727,-3.7624,-3.7725,-3.7886,-5.1665,-4.8434,-4.7168,-4.6746,-4.6856,-4.6875,-4.8251,-5.049,-5.0472,-5.1078,-5.2029,-5.1926,-5.1677,-5.1324,-5.0883,0.0,0.0,0.0,-5.0405,-5.0532,-4.978,-4.9603,-4.9847,-4.9881,-4.9881,-4.9847,-4.9576,-4.9593,-4.9881,-4.9576,-4.8545,-4.6832,0.0,0.0,-4.8054,-4.8274,-4.8866,-4.983,-4.9729,-4.9576,-4.9441,-4.8731,-4.8223,-4.7906,-4.8159,-4.7936,-4.7073,-4.6722,-4.5754,-4.3944,-4.188,-3.9851,0.0,0.0,0.0,0.0,0.0,0.0,0.0,0.0,0.0,0.0,0.0,-2.8889,-2.9347,0.0,0.0,0.0,-3.3931,-3.5131,-3.7212,-3.755,0.0,0.0,0.0,0.0,0.0,0.0,0.0,-3.684,-3.8041,-3.9225,-4.0358,-4.0392,-4.0476,-4.0916,-4.1221,-4.1847,-4.3031,0.0,-4.391,-4.4654,-4.4756,-4.4756,-4.4756,-4.4756,-4.4587,-4.4147,-4.4079,-4.4215,-4.4654,-4.4756,-4.4925,-4.5285,-4.5039,-4.4453,-4.3758,-4.2476,-4.1087,-3.9707,-3.9063,-3.8849,-3.9157,-3.9185,-3.9379,-5.4509,-5.4234,-5.1391,-5.0987,-5.2252,-5.2291,-5.3518,-5.5578,-5.5578,-5.5394,-5.5035,-5.4779,-5.4528,-5.4317,-5.4334,0.0,-5.3703,-5.2371,-5.1926,-5.2226,-5.0816,-5.0574,-5.1285,-5.1302,-5.1269,-5.1268,-5.0591,-5.0591,-5.1117,-5.0507,-5.0185,-5.0168,-4.9509,-4.9492,-5.0016,-4.9424,-4.9763,-5.1065,-4.9779,-4.939,-4.9965,-4.934,-4.868,-4.8007,-4.8646,-4.8037,-4.6126,-4.7225,-4.6972,-4.4987,-4.4045,-4.2902,-4.139,0.0,0.0,0.0,0.0,0.0,0.0,0.0,0.0,0.0,0.0,0.0,0.0,0.0,0.0,-3.6948,-3.8369,0.0,-4.0062,-3.9453,0.0,0.0,0.0,-3.7269,-3.799,-3.754,-3.7675,-3.9005,0.0,0.0,-4.1373,-4.2049,-4.2523,-4.2642,-4.3149,-4.3809,-4.4666,-4.5314,-4.6041,-4.6566,-4.6819,-4.6836,-4.6583,-4.6599,-4.6566,-4.6515,-4.6786,-4.6633,-4.6633,-4.6667,-4.6735,-4.6549,-4.668,-4.6146,-4.4494,-4.4034,-4.3458,-4.1354,-4.0826,-4.0662,-4.0482,-4.0427,-4.0576,-5.5317,-5.5299,-5.5152,-5.4968,-5.473,-5.4748,-5.5082,-5.5596,-5.5614,-5.557,-5.5454,-5.5375,-5.5057,-5.4533,-5.4533,-5.3893,-5.2722,-5.2397,-5.1951,-5.1486,-5.111,-5.1336,-5.2029,-5.2046,-5.2046,-5.2029,-5.1877,-5.1589,-5.1185,-5.1048,-5.0947,-5.093,-5.0777,-5.049,-5.0084,-4.9915,-4.9999,-5.0355,-4.9999,-4.9644,-4.9272,-4.9086,-4.8934,-4.8748,-4.8917,-4.8765,-4.824,-4.799,-4.7665,-4.7141,-4.5872,-4.4468,-4.2963,-4.0434,0.0,0.0,0.0,0.0,0.0,0.0,0.0,0.0,0.0,-3.5182,-3.5076,0.0,-3.9546,0.0,-4.0155,-4.0527,-4.0138,-3.9428,0.0,0.0,-3.9005,-3.8792,-3.9503,-3.9918,-4.0273,-4.0629,-4.1339,-4.2286,-4.3633,-4.3972,-4.4479,-4.5517,-4.4891,-4.4773,-4.6041,-4.6397,-4.6583,-4.6836,-4.731,-4.7445,-4.6955,-4.6786,-4.6819,-4.6786,-4.6802,-4.6786,-4.6786,-4.6786,-4.6574,-4.5918,-4.5746,-4.5542,-4.5177,-4.4543,-4.3928,-4.3307,-4.222,-4.1219,-4.119,-4.1197,-4.1242,-5.7189,-5.7281,-5.807,-5.8143,-5.7648,-5.6602,-5.6143,-5.6124,-5.6124,-5.6143,-5.6161,-5.6492,-5.6456,-5.6115,-5.5763,-5.5175,-5.4411,-5.4026,-5.3445,-5.2711,-5.2711,-5.2743,-5.2824,-5.2841,-5.2841,-5.2824,-5.2469,-5.2097,-5.1708,-5.1386,-5.1031,-5.0727,-5.071,-5.0338,-4.9644,-4.9932,-5.0101,-5.0101,-4.9763,-4.9407,-4.9018,-4.9018,-4.9018,-4.9018,-4.9018,-4.8849,-4.8545,-4.8443,-4.8075,-4.7445,-4.6955,-4.5978,-4.4502,-4.2598,-4.0933,0.0,0.0,0.0,0.0,0.0,0.0,0.0,0.0,0.0,0.0,0.0,-4.117,-4.1102,-4.1762,-4.188,-4.1153,-4.0696,-4.0629,-4.1044,-4.0713,-4.0612,-4.1018,-4.1728,-4.232,-4.2675,-4.3352,-4.4248,-4.5399,-4.5596,-4.6003,-4.7141,-4.6599,-4.6363,-4.7073,-4.7293,-4.7394,-4.7733,-4.8122,-4.8291,-4.7817,-4.7767,-4.7767,-4.7767,-4.7767,-4.7784,-4.7767,-4.7767,-4.7599,-4.7118,-4.6659,-4.6225,-4.5814,-4.4987,-4.4283,-4.3723,-4.2939,-4.2209,-4.1916,-4.1856,-4.1916,-5.9038,-5.9134,-5.9924,-6.0199,-5.9924,-5.785,-5.7056,-5.7262,-5.7152,-5.7116,-5.7152,-5.785,-5.8162,-5.8097,-5.7472,-5.7079,-5.6861,-5.6186,-5.5483,-5.4757,-5.4651,-5.4284,-5.3787,-5.3568,-5.3518,-5.3467,-5.2689,-5.2249,-5.2147,-5.1522,-5.0879,-5.0253,-5.0236,-4.9932,-4.934,-4.9915,-5.0236,-5.0236,-4.9593,-4.9255,-4.9137,-4.9137,-4.9103,-4.9018,-4.9018,-4.8714,-4.8075,-4.8663,-4.8409,-4.7192,-4.7699,-4.7428,-4.6058,-4.4525,-4.3071,0.0,-4.024,0.0,0.0,0.0,0.0,0.0,0.0,0.0,0.0,-4.1153,-4.1931,-4.2658,-4.3234,-4.325,-4.2506,-4.2523,-4.2618,-4.2618,-4.2675,-4.276,-4.2878,-4.3453,-4.4113,-4.4818,-4.5449,-4.6109,-4.6802,-4.6921,-4.7208,-4.7902,-4.7973,-4.7953,-4.8024,-4.8024,-4.8274,-4.8934,-4.9018,-4.8883,-4.8866,-4.8934,-4.8934,-4.8968,-4.89,-4.9018,-4.8917,-4.8934,-4.8906,-4.8668,-4.798,-4.7274,-4.6523,-4.5638,-4.475,-4.4021,-4.365,-4.3241,-4.2665,-4.2515,-4.2671,-5.8217,-5.8309,-5.9074,-5.9061,-5.8419,-5.796,-5.8529,-5.9667,-5.9043,-5.8726,-5.8744,-5.8914,-5.8964,-5.8964,-5.8828,-5.8087,-5.6887,-5.6739,-5.6259,-5.5477,-5.4878,-5.4842,-5.5189,-5.4056,-5.3518,-5.345,-5.2689,-5.1995,-5.142,-5.1268,-5.1117,-5.0997,-5.1014,-5.093,-5.0811,0.0,0.0,0.0,-5.083,-5.049,-4.9915,-4.9881,-4.9593,-4.9035,-4.9018,0.0,-4.8815,-4.8934,-4.8883,-4.8612,-4.8714,0.0,0.0,0.0,0.0,0.0,0.0,0.0,0.0,0.0,0.0,0.0,-4.2117,-4.2236,-4.1948,-4.3132,-4.4248,-4.4976,-4.4637,-4.4045,-4.3284,-4.3775,-4.4175,-4.4192,-4.4688,-4.528,-4.5855,-4.6058,-4.621,-4.6363,-4.6515,-4.6887,-4.7564,-4.7699,-4.797,-4.8629,-4.8798,-4.8798,-4.8781,-4.8765,-4.8832,-4.9001,-4.9018,-4.9018,-4.9018,-4.9018,-4.9018,-4.9018,-4.9018,-4.9018,-4.9035,-4.9018,-4.8704,-4.8178,-4.7721,-4.7539,-4.7339,-4.6558,-4.5737,-4.5654,-4.5005,-4.4251,-4.3322,-4.3095,-4.314,-6.1374,0.0,-6.1465,-6.1135,0.0,-6.0382,-6.0841,-6.1429,-5.9061,-5.8253,-5.8621,-5.8621,-5.8621,-5.8579,-5.8233,-5.7658,-5.6894,-5.6894,-5.6277,-5.5173,-5.5144,-5.4934,-5.4574,-5.3854,-5.3518,-5.3484,-5.2689,-5.2097,-5.1742,-5.1386,-5.1234,-5.1234,-5.1234,-5.1234,-5.1202,-5.1589,-5.1589,-5.1234,-5.1234,-5.1031,-5.0642,-5.027,-4.9915,-4.956,-4.9187,0.0,0.0,0.0,0.0,0.0,0.0,0.0,0.0,0.0,0.0,-4.5213,-4.4739,-4.435,-4.4028,-4.4671,-4.4925,-4.457,-4.5213,-4.4812,-4.2997,-4.4248,-4.5297,-4.5669,-4.5669,-4.5517,-4.5162,-4.5432,-4.5698,-4.5715,-4.6024,-4.6413,-4.6752,-4.7124,-4.7344,-4.7394,-4.7665,-4.8054,-4.8392,-4.846,-4.8578,-4.8934,-4.9018,-4.9018,-4.9018,-4.9018,-4.9018,-4.9018,-4.9018,-4.9018,-4.9018,-4.9018,-4.9018,-4.9018,-4.9018,-4.9171,-4.9492,-4.9238,-4.9032,-4.9156,-4.8346,-4.7517,-4.7737,-4.6507,-4.5261,-4.5192,-4.4611,-4.3981,-4.3409,-4.3305,-4.3305,-6.4916,-6.431,-6.4292,-6.3815,-6.3044,-6.3044,-6.2952,-6.2542,0.0,0.0,0.0,-5.8419,-5.8345,-5.817,-5.7594,-5.7235,-5.7065,-5.6964,-5.6222,-5.5029,-5.535,-5.4918,-5.3921,-5.3619,-5.3585,-5.3653,-5.2892,-5.252,-5.2486,-5.1911,-5.1623,-5.1623,-5.1623,-5.1606,-5.1674,-5.2215,-5.2215,-5.1607,-5.1591,-5.1539,-5.1403,-5.0811,-5.0422,-5.0287,-4.9576,-4.9204,-4.9204,-4.9069,-4.9018,-4.9018,-4.9018,-4.8731,-4.8125,-4.7956,-4.7361,-4.6244,-4.665,-4.6735,-4.616,-4.6769,-4.7124,-4.7005,-4.7445,-4.6705,-4.4322,-4.5336,-4.6092,-4.6092,-4.6532,-4.6786,-4.6786,-4.6921,-4.6989,-4.6989,-4.7107,-4.7192,-4.7225,-4.7716,-4.8105,-4.8173,-4.8595,-4.9001,-4.8968,-4.8968,-4.9018,-4.9001,-4.9018,-4.9018,-4.9018,-4.9018,-4.9018,-4.9018,-4.9018,-4.9018,-4.9018,-4.9018,-4.9018,-4.9018,-4.9018,-4.9272,-4.9779,-4.9593,-4.9779,-5.0798,-4.9168,-4.821,-4.8292,-4.6821,-4.5001,-4.4775,-4.4273,-4.3858,-4.3713,-4.3688,-4.3618,-6.5246,-6.5136,-6.5136,-6.4659,-6.3906,-6.3906,-6.3503,-6.2688,-6.1465,-6.0603,-6.007,-6.007,-5.9685,-5.9019,-5.8906,-5.8498,-5.7815,-5.7184,-5.6765,-5.651,-5.5309,-5.4984,-5.5305,-5.409,-5.3822,-5.4346,-5.3687,-5.3331,-5.3315,-5.3213,-5.3179,-5.3162,-5.3179,-5.3162,-5.3196,-5.3281,-5.3281,-5.3196,-5.3196,-5.2841,-5.2164,-5.2046,-5.1691,-5.1065,-5.0338,-4.9932,-4.9932,-4.934,-4.9018,-4.9018,-4.9018,-4.8951,-4.8849,-4.8257,-4.7834,-4.7601,-4.7669,-4.7699,-4.7584,-4.8291,-4.8409,-4.777,-4.7276,-4.7005,-4.7246,-4.7449,-4.7614,-4.7551,-4.7141,-4.6786,-4.6819,-4.7394,-4.7767,-4.78,-4.8308,-4.868,-4.8612,-4.8731,-4.8798,-4.8798,-4.8917,-4.9018,-4.9018,-4.9018,-4.9018,-4.9018,-4.9018,-4.9018,-4.9018,-4.9018,-4.9018,-4.9018,-4.9018,-4.9018,-4.9018,-4.9018,-4.9018,-4.9018,-4.9035,-4.934,-5.005,-5.0067,-5.0289,-5.1083,-5.0056,-4.9384,-4.9358,-4.8498,-4.7074,-4.6287,-4.5935,-4.57,-4.5064,-4.4975,-4.4676,-6.6347,-6.598,-6.5962,-6.5503,-6.4751,-6.4751,-6.453,-6.4145,-6.3778,-6.2879,-6.1759,-6.1722,-6.1282,-6.0529,-6.0493,-5.9822,-5.8649,-5.8306,-5.7683,-5.6823,-5.6115,-5.5755,-5.5637,-5.5009,-5.4668,-5.4583,-5.4262,-5.389,-5.3534,-5.3518,-5.3518,-5.3518,-5.3518,-5.3518,-5.3518,-5.3518,-5.3518,-5.3518,-5.3518,-5.3331,-5.2959,-5.252,-5.2131,-5.1809,-5.1099,-5.0507,-5.0101,-4.9763,-4.9407,-4.9018,-4.9018,-4.9018,-4.9001,-4.868,-4.8511,-4.8511,-4.8511,-4.848,-4.848,-4.8815,-4.8866,-4.8497,-4.8189,-4.8122,-4.8477,-4.8108,-4.7906,-4.7906,-4.7936,-4.7986,-4.8003,-4.8291,-4.8511,-4.8511,-4.8815,-4.9001,-4.9018,-4.9018,-4.9018,-4.9018,-4.9018,-4.9018,-4.9018,-4.9018,-4.9018,-4.9018,-4.9018,-4.9018,-4.9018,-4.9018,-4.9018,-4.9018,-4.9018,-4.9018,-4.9018,-4.9018,-4.9018,-4.9018,-4.9357,-4.9864,-5.0524,-5.0693,-5.0939,-5.1344,-5.0495,-4.9551,-4.9293,-4.8067,-4.7111,-4.6671,-4.6138,-4.5848,-4.5792,-4.6112,-4.5903,-6.7338,-6.6788,-6.6769,-6.6421,-6.5852,-6.5852,-6.5852,-6.5852,-6.5833,-6.5007,-6.3686,-6.308,-6.2254,-6.1374,-6.1318,-6.0663,-5.9577,-5.9293,-5.8534,-5.7456,-5.7192,-5.6716,-5.603,-5.5979,-5.5569,-5.4922,-5.4837,-5.4532,-5.4059,-5.4008,-5.3907,-5.3754,-5.3585,-5.3518,-5.3518,-5.3518,-5.3518,-5.3518,-5.3518,-5.3518,-5.3484,-5.2892,-5.2587,-5.2536,-5.186,-5.1183,-5.0625,-5.0422,-4.9999,-4.9306,-4.9238,-4.9171,-4.9018,-4.9018,-4.9018,-4.9018,-4.9018,-4.9018,-4.9018,-4.9018,-4.9018,-4.9018,-4.9018,-4.9001,-4.8968,-4.8494,-4.8156,-4.8193,-4.8663,-4.8951,-4.8934,-4.8968,-4.9018,-4.9018,-4.9018,-4.9018,-4.9018,-4.9018,-4.9018,-4.9018,-4.9018,-4.9018,-4.9018,-4.9018,-4.9018,-4.9018,-4.9018,-4.9018,-4.9018,-4.9018,-4.9018,-4.9018,-4.9018,-4.9018,-4.9018,-4.9187,-4.9272,-4.9272,-4.9881,-5.0591,-5.1217,-5.1454,-5.168,-5.2021,-5.123,-5.044,-4.9781,-4.8594,-4.7775,-4.7664,-4.7181,-4.6559,-4.7053,-4.7429,-4.7279,-6.7659,-6.7577,-6.754,-6.7559,-6.7412,-6.743,-6.7393,-6.7412,-6.7475,-6.699,-6.587,-6.3815,-6.2034,-6.0639,-6.0621,-6.053,-6.0262,-5.9611,-5.9222,-5.8977,-5.837,-5.7632,-5.693,-5.6846,-5.6368,-5.5703,-5.5633,-5.5565,-5.536,-5.5394,-5.5124,-5.4482,-5.3839,-5.3518,-5.3518,-5.3518,-5.3518,-5.3518,-5.3518,-5.3518,-5.3501,-5.3433,-5.3399,-5.3382,-5.2621,-5.2181,-5.1995,-5.1471,-5.0777,-5.0067,-4.9982,-4.9678,-4.912,-4.9018,-4.9018,-4.9018,-4.9018,-4.9018,-4.9018,-4.9018,-4.9018,-4.9018,-4.9018,-4.9018,-4.9018,-4.8951,-4.8883,-4.89,-4.8951,-4.9001,-4.9018,-4.9018,-4.9018,-4.9018,-4.9018,-4.9018,-4.9018,-4.9018,-4.9018,-4.9018,-4.9018,-4.9018,-4.9018,-4.9018,-4.9018,-4.9018,-4.9018,-4.9018,-4.9018,-4.9018,-4.9069,-4.9052,-4.9035,-4.9035,-4.9086,-4.9593,-4.983,-4.9965,-5.0642,-5.1403,-5.1995,-5.2317,-5.2437,-5.2951,-5.2912,-5.238,-5.1916,-5.1479,-5.0294,-4.9524,-4.9063,-4.8865,-4.9015,-4.906,-4.8566,-6.7669,-6.7669,-6.7669,-6.7669,-6.7669,-6.7669,-6.7669,-6.7669,-6.7669,-6.7247,-6.6384,-6.4916,-6.3649,-6.2585,-6.2585,-6.2073,-6.1131,-6.0766,-6.039,-5.9963,-5.9627,-5.9307,-5.8979,-5.8966,-5.8311,-5.7122,-5.7089,-5.6577,-5.5837,-5.5716,-5.5327,-5.4651,-5.4279,-5.394,-5.3551,-5.3518,-5.3518,-5.3518,-5.3518,-5.3518,-5.3518,-5.3518,-5.3518,-5.3467,-5.3179,-5.2773,-5.2334,-5.2012,-5.1522,-5.0828,-5.076,-5.0405,-4.9695,-4.9644,-4.9441,-4.9052,-4.9018,-4.9018,-4.9018,-4.9018,-4.9018,-4.9018,-4.9018,-4.9018,-4.9018,-4.9018,-4.9018,-4.9018,-4.9018,-4.9018,-4.9018,-4.9018,-4.9018,-4.9018,-4.9018,-4.9018,-4.9018,-4.9018,-4.9018,-4.9018,-4.9018,-4.9018,-4.9018,-4.9018,-4.9018,-4.9018,-4.9018,-4.9018,-4.9018,-4.9018,-4.9204,-4.9543,-4.9644,-4.9441,-4.9255,-4.961,-5.005,-5.0388,-5.1505,-5.2723,-5.2993,-5.389,-5.431,-5.3952,-5.3841,-5.3155,-5.1677,-5.1446,-5.0754,-5.0435,-5.0228,-4.9838,-4.9823,-5.0152,-5.0047,-6.7669,-6.7669,-6.7669,-6.7669,-6.7669,-6.7669,-6.7669,-6.7669,-6.7669,-6.7228,-6.6457,-6.5668,-6.4861,-6.4127,-6.3851,-6.3056,-6.2005,-6.1924,-6.1632,-6.112,-6.1044,-6.0938,-6.0778,-6.073,-6.0022,-5.8873,-5.8657,-5.7955,-5.6678,-5.6142,-5.5733,-5.5243,-5.5006,-5.4532,-5.3873,-5.3788,-5.3704,-5.3518,-5.3518,-5.3518,-5.3518,-5.3518,-5.3518,-5.3518,-5.3518,-5.323,-5.2689,-5.2621,-5.2283,-5.1555,-5.1505,-5.1183,-5.0473,-5.0405,-5.0152,-4.9695,-4.961,-4.9509,-4.9323,-4.9306,-4.9204,-4.9052,-4.9154,-4.9289,-4.934,-4.9509,-4.961,-4.9661,-4.961,-4.956,-4.9035,-4.9018,-4.9018,-4.9018,-4.9018,-4.9018,-4.9018,-4.9018,-4.9018,-4.9018,-4.9018,-4.9018,-4.9018,-4.9018,-4.9018,-4.9018,-4.9018,-4.9018,-4.912,-4.9357,-4.9864,-5.0355,-5.0727,-5.0744,-5.0135,-5.0727,-5.098,-5.164,-5.3061,-5.4076,-5.4126,-5.5158,-5.5595,-5.4804,-5.4739,-5.4618,-5.3972,-5.2974,-5.1708,-5.081,-5.0563,-5.0666,-5.0557,-5.093,-5.1109,-6.7669,-6.7669,-6.7669,-6.7632,-6.765,-6.7614,-6.7659,-6.7504,-6.7595,-6.7192,-6.6384,-6.5613,-6.4842,-6.4053,-6.3301,-6.2835,-6.2712,-6.2686,-6.2636,-6.2541,-6.2585,-6.2271,-6.1558,-6.153,-6.1095,-6.0255,-6.0176,-5.9689,-5.8751,-5.7445,-5.6748,-5.663,-5.5987,-5.5294,-5.4634,-5.4499,-5.4177,-5.3653,-5.3534,-5.3518,-5.3518,-5.3518,-5.3518,-5.3518,-5.3518,-5.3467,-5.3416,-5.3433,-5.3061,-5.23,-5.2266,-5.1928,-5.1268,-5.115,-5.1082,-5.1048,-5.1065,-5.0777,-5.0152,-5.005,-4.9796,-4.9272,-4.9712,-5.0033,-5.0084,-5.0557,-5.0896,-5.1065,-5.0898,-5.0456,-4.939,-4.9289,-4.9204,-4.9171,-4.9086,-4.912,-4.9086,-4.9238,-4.9035,-4.9103,-4.9204,-4.9272,-4.9137,-4.9018,-4.9171,-4.9187,-4.9103,-4.9137,-4.9407,-5.027,-5.0997,-5.1471,-5.2249,-5.3061,-5.2435,-5.2469,-5.3315,-5.3822,-5.4279,-5.5513,-5.5615,-5.5681,-5.5697,-5.583,-5.6143,-5.6337,-5.6382,-5.5616,-5.4191,-5.311,-5.2146,-5.1911,-5.1023,-5.1109,-5.1229,-6.7669,-6.7632,-6.7118,-6.6916,-6.688,-6.6402,-6.6182,-6.6164,-6.6164,-6.6017,-6.5632,-6.4897,-6.4365,-6.4035,-6.3191,-6.2823,-6.2823,-6.2823,-6.2823,-6.2823,-6.2823,-6.2636,-6.2402,-6.2368,-6.1942,-6.1275,-6.1142,-6.0471,-5.9145,-5.8026,-5.7256,-5.6833,-5.6545,-5.6038,-5.5361,-5.482,-5.4448,-5.4177,-5.3771,-5.3518,-5.3518,-5.3518,-5.3518,-5.3518,-5.3518,-5.3518,-5.3518,-5.3518,-5.3365,-5.3078,-5.3061,-5.2723,-5.1978,-5.1471,-5.1234,-5.1234,-5.1234,-5.1099,-5.0862,-5.0811,-5.071,-5.049,-5.0642,-5.0811,-5.0845,-5.1065,-5.1234,-5.1251,-5.1234,-5.0879,-5.0642,-5.039,-5.039,-5.0422,-5.0405,-5.0355,-5.0422,-5.0422,-5.039,-5.039,-5.0422,-5.0422,-5.0321,-5.0405,-5.0422,-5.0439,-5.0422,-5.0388,-5.0557,-5.1302,-5.2147,-5.2689,-5.3518,-5.4448,-5.5277,-5.4448,-5.438,-5.4803,-5.5361,-5.6072,-5.641,-5.6782,-5.6915,-5.6865,-5.7273,-5.7072,-5.6774,-5.5345,-5.4389,-5.364,-5.2812,-5.2139,-5.1308,-5.1229,-5.1229,-6.7467,-6.754,-6.6824,-6.6494,-6.6439,-6.5944,-6.554,-6.5338,-6.5319,-6.5319,-6.5154,-6.4457,-6.4097,-6.3943,-6.3209,-6.2823,-6.2823,-6.2823,-6.2823,-6.2823,-6.2823,-6.2823,-6.2823,-6.2823,-6.2515,-6.1942,-6.1418,-6.0592,-5.9594,-5.844,-5.7647,-5.7188,-5.7154,-5.6782,-5.6089,-5.5547,-5.5141,-5.4617,-5.411,-5.3771,-5.3568,-5.3518,-5.3518,-5.3518,-5.3518,-5.3518,-5.3518,-5.3518,-5.3518,-5.3518,-5.3518,-5.3264,-5.2706,-5.2232,-5.1961,-5.1961,-5.1978,-5.1826,-5.1606,-5.1523,-5.1471,-5.1219,-5.1454,-5.1572,-5.1557,-5.1777,-5.1912,-5.1944,-5.1961,-5.1929,-5.1961,-5.1961,-5.1726,-5.1337,-5.1234,-5.1234,-5.1234,-5.12,-5.1151,-5.1117,-5.1116,-5.1166,-5.1234,-5.12,-5.1166,-5.1234,-5.1354,-5.154,-5.1657,-5.2672,-5.3551,-5.4177,-5.5108,-5.6021,-5.6596,-5.619,-5.5886,-5.6224,-5.619,-5.6816,-5.7137,-5.7611,-5.7831,-5.7865,-5.7755,-5.7426,-5.6509,-5.5052,-5.4153,-5.3455,-5.2827,-5.223,-5.165,-5.1229,-5.1229,-6.6953,-6.7448,-6.6806,-6.6402,-6.6366,-6.6219,-6.5907,-6.5191,-6.5136,-6.5018,-6.4879,-6.4328,-6.3943,-6.3851,-6.3135,-6.2823,-6.2823,-6.2823,-6.2823,-6.2823,-6.2823,-6.2823,-6.2823,-6.2823,-6.2798,-6.261,-6.116,-6.0445,-6.0229,-5.8703,-5.7831,-5.7848,-5.778,-5.7425,-5.6816,-5.6613,-5.5987,-5.4955,-5.4566,-5.4177,-5.3602,-5.3518,-5.3518,-5.3518,-5.3518,-5.3518,-5.3518,-5.3518,-5.3518,-5.3518,-5.3518,-5.3518,-5.3416,-5.3331,-5.3416,-5.3315,-5.3399,-5.3061,-5.2418,-5.2334,-5.2029,-5.1691,-5.1961,-5.2317,-5.2418,-5.2892,-5.3264,-5.323,-5.3281,-5.3365,-5.3315,-5.3281,-5.279,-5.1555,-5.1472,-5.1505,-5.142,-5.1319,-5.1285,-5.1403,-5.1488,-5.1302,-5.1285,-5.1471,-5.1572,-5.1657,-5.2046,-5.2469,-5.2672,-5.411,-5.5429,-5.5852,-5.6427,-5.7222,-5.7594,-5.7831,-5.778,-5.7729,-5.7543,-5.7662,-5.7594,-5.7865,-5.7848,-5.7881,-5.7881,-5.7591,-5.6925,-5.5554,-5.4681,-5.3999,-5.3193,-5.2184,-5.165,-5.1229,-5.1229,-6.6127,-6.6751,-6.5999,-6.5687,-6.5613,-6.5099,-6.4383,-6.3606,-6.3594,-6.3551,-6.3539,-6.3319,-6.3209,-6.3172,-6.2915,-6.2823,-6.2823,-6.2823,-6.2823,-6.2823,-6.2823,-6.2823,-6.2823,-6.2823,-6.2823,-6.2541,-6.116,-6.0414,-6.0117,-5.8737,-5.7881,-5.7881,-5.7918,-5.778,-5.7509,-5.7053,-5.6292,-5.5446,-5.4837,-5.4245,-5.3585,-5.3518,-5.3518,-5.3518,-5.3518,-5.3518,-5.3518,-5.3518,-5.3518,-5.3518,-5.3518,-5.3518,-5.3518,-5.3518,-5.3518,-5.3518,-5.3518,-5.3433,-5.3196,-5.3112,-5.301,-5.2858,-5.301,-5.3112,-5.3129,-5.3331,-5.3518,-5.3518,-5.3518,-5.3518,-5.3518,-5.3518,-5.323,-5.2841,-5.2807,-5.2706,-5.2655,-5.2723,-5.279,-5.279,-5.279,-5.279,-5.2773,-5.2756,-5.2773,-5.2807,-5.3382,-5.3856,-5.4143,-5.5327,-5.6393,-5.6579,-5.7408,-5.7881,-5.7881,-5.7881,-5.7881,-5.7881,-5.7881,-5.7881,-5.7881,-5.7881,-5.7881,-5.7881,-5.7881,-5.7537,-5.687,-5.5968,-5.4986,-5.3828,-5.262,-5.185,-5.1401,-5.1308,-5.1479,-6.5319,-6.5944,-6.5191,-6.4861,-6.4824,-6.4273,-6.3594,-6.2879,-6.2823,-6.2823,-6.2823,-6.2823,-6.2823,-6.2823,-6.2823,-6.2823,-6.2823,-6.2823,-6.2823,-6.2823,-6.2823,-6.2823,-6.2823,-6.2823,-6.2823,-6.2585,-6.1464,-6.0867,-6.0778,-5.9509,-5.8685,-5.8406,-5.8335,-5.8156,-5.792,-5.7442,-5.6748,-5.5766,-5.526,-5.4515,-5.3737,-5.3518,-5.3518,-5.3518,-5.3518,-5.3518,-5.3518,-5.3518,-5.3518,-5.3518,-5.3518,-5.3518,-5.3518,-5.3518,-5.3518,-5.3518,-5.3518,-5.3501,-5.3518,-5.3467,-5.3518,-5.3518,-5.3518,-5.3501,-5.3501,-5.3518,-5.3518,-5.3518,-5.3518,-5.3518,-5.3518,-5.3518,-5.3518,-5.3501,-5.345,-5.3518,-5.3518,-5.3518,-5.3484,-5.3467,-5.3687,-5.3754,-5.3602,-5.4126,-5.4126,-5.4126,-5.4769,-5.5412,-5.5649,-5.6427,-5.69,-5.7239,-5.7577,-5.7831,-5.7865,-5.7881,-5.7881,-5.7881,-5.7881,-5.7881,-5.7881,-5.7881,-5.7881,-5.7881,-5.7881,-5.7372,-5.6718,-5.5571,-5.4489,-5.3253,-5.232,-5.1941,-5.1681,-5.188,-5.1972,-6.4549,-6.5118,-6.4494,-6.4218,-6.4163,-6.409,-6.3613,-6.2872,-6.2823,-6.2823,-6.2823,-6.2823,-6.2823,-6.2823,-6.2823,-6.2823,-6.2823,-6.2823,-6.2823,-6.2823,-6.2823,-6.2823,-6.2823,-6.2823,-6.2823,-6.2661,-6.1942,-6.153,-6.1389,-6.041,-5.9928,-5.9044,-5.884,-5.8633,-5.7993,-5.7865,-5.7154,-5.6038,-5.5733,-5.4955,-5.3721,-5.3518,-5.3518,-5.3518,-5.3518,-5.3518,-5.3518,-5.3518,-5.3518,-5.3518,-5.3518,-5.3518,-5.3518,-5.3518,-5.3518,-5.3518,-5.3518,-5.3518,-5.3518,-5.3518,-5.3518,-5.3518,-5.3518,-5.3518,-5.3518,-5.3518,-5.3518,-5.3518,-5.3518,-5.3518,-5.3518,-5.3518,-5.3518,-5.3518,-5.3518,-5.3518,-5.3518,-5.3518,-5.3568,-5.3721,-5.4126,-5.4397,-5.389,-5.4888,-5.5074,-5.5091,-5.575,-5.6342,-5.6681,-5.707,-5.7679,-5.7848,-5.7814,-5.7831,-5.7881,-5.7881,-5.7881,-5.7881,-5.7881,-5.7881,-5.7881,-5.7881,-5.7881,-5.7881,-5.7828,-5.7243,-5.6509,-5.5514,-5.4573,-5.3656,-5.2945,-5.2395,-5.2395,-5.2767,-5.256,-6.4218,-6.4439,-6.4824,-6.464,-6.4127,-6.4097,-6.3594,-6.2879,-6.2823,-6.2823,-6.2823,-6.2823,-6.2823,-6.2823,-6.2823,-6.2823,-6.2823,-6.2823,-6.2823,-6.2823,-6.2823,-6.2823,-6.2823,-6.2823,-6.2823,-6.2686,-6.2049,-6.1586,-6.1474,-6.03,-5.9458,-5.9077,-5.8599,-5.8192,-5.7918,-5.7881,-5.7408,-5.6562,-5.5936,-5.5277,-5.4397,-5.3737,-5.3518,-5.3518,-5.3518,-5.3518,-5.3518,-5.3518,-5.3518,-5.3518,-5.3518,-5.3518,-5.3518,-5.3518,-5.3518,-5.3518,-5.3518,-5.3518,-5.3518,-5.3518,-5.3518,-5.3518,-5.3518,-5.3518,-5.3518,-5.3518,-5.3518,-5.3518,-5.3518,-5.3518,-5.3518,-5.3518,-5.3518,-5.3518,-5.3518,-5.3518,-5.3518,-5.3518,-5.3687,-5.4211,-5.4482,-5.4752,-5.5057,-5.5429,-5.5733,-5.5666,-5.6173,-5.6884,-5.7087,-5.7391,-5.7881,-5.7881,-5.7865,-5.7865,-5.7881,-5.7881,-5.7881,-5.7881,-5.7881,-5.7881,-5.7881,-5.7881,-5.7881,-5.7881,-5.7881,-5.75,-5.6794,-5.5929,-5.5011,-5.411,-5.4025,-5.3769,-5.3871,-5.4084,-5.3483,-6.4097,-6.4127,-6.4604,-6.431,-6.3594,-6.3558,-6.3264,-6.2879,-6.2823,-6.2823,-6.2823,-6.2823,-6.2823,-6.2823,-6.2823,-6.2823,-6.2823,-6.2823,-6.2823,-6.2823,-6.2823,-6.2823,-6.2823,-6.2823,-6.2823,-6.2755,-6.2324,-6.2148,-6.1924,-6.0754,-6.0051,-5.9556,-5.8823,-5.8263,-5.7918,-5.7865,-5.7543,-5.6799,-5.6072,-5.5361,-5.4617,-5.389,-5.3568,-5.3518,-5.3518,-5.3518,-5.3518,-5.3518,-5.3518,-5.3518,-5.3518,-5.3518,-5.3518,-5.3518,-5.3518,-5.3518,-5.3518,-5.3518,-5.3518,-5.3518,-5.3518,-5.3518,-5.3518,-5.3518,-5.3518,-5.3518,-5.3518,-5.3518,-5.3518,-5.3518,-5.3518,-5.3518,-5.3518,-5.3518,-5.3518,-5.3518,-5.3518,-5.3805,-5.411,-5.4583,-5.5124,-5.5497,-5.5766,-5.6207,-5.6376,-5.641,-5.6816,-5.7171,-5.7374,-5.7679,-5.7881,-5.7881,-5.7881,-5.7881,-5.7881,-5.7881,-5.7881,-5.7881,-5.7881,-5.7881,-5.7881,-5.7881,-5.7881,-5.7881,-5.7881,-5.7665,-5.6908,-5.6204,-5.5474,-5.4986,-5.5109,-5.5068,-5.4961,-5.5247,-5.4614,-6.4035,-6.3961,-6.4053,-6.3594,-6.2915,-6.2823,-6.2879,-6.2823,-6.2823,-6.2823,-6.2823,-6.2823,-6.2823,-6.2823,-6.2823,-6.2823,-6.2823,-6.2823,-6.2823,-6.2823,-6.2823,-6.2823,-6.2823,-6.2823,-6.2823,-6.278,-6.2823,-6.273,-6.2394,-6.176,-6.1026,-6.0131,-5.9344,-5.8599,-5.801,-5.7881,-5.7526,-5.6951,-5.6139,-5.5463,-5.4769,-5.4008,-5.3534,-5.3518,-5.3518,-5.3518,-5.3518,-5.3518,-5.3518,-5.3518,-5.3518,-5.3518,-5.3518,-5.3518,-5.3518,-5.3518,-5.3518,-5.3518,-5.3518,-5.3518,-5.3518,-5.3518,-5.3518,-5.3518,-5.3518,-5.3518,-5.3518,-5.3518,-5.3518,-5.3518,-5.3518,-5.3518,-5.3518,-5.3518,-5.3518,-5.3518,-5.3636,-5.4093,-5.4532,-5.4752,-5.5936,-5.6207,-5.6511,-5.69,-5.7628,-5.7019,-5.7374,-5.7509,-5.7611,-5.7763,-5.7881,-5.7881,-5.7881,-5.7881,-5.7881,-5.7881,-5.7881,-5.7881,-5.7881,-5.7881,-5.7881,-5.7881,-5.7881,-5.7881,-5.7881,-5.7574,-5.7001,-5.6337,-5.5929,-5.5968,-5.6181,-5.581,-5.549,-5.6142,-5.6008,-6.3704,-6.3135,-6.3815,-6.3594,-6.2897,-6.2823,-6.2823,-6.2823,-6.2823,-6.2823,-6.2823,-6.2823,-6.2823,-6.2823,-6.2823,-6.2823,-6.2823,-6.2823,-6.2823,-6.2823,-6.2823,-6.2823,-6.2823,-6.2823,-6.2823,-6.2823,-6.2823,-6.2823,-6.2515,-6.1548,-6.058,-6.0273,-5.9078,-5.8101,-5.7937,-5.7865,-5.7831,-5.7442,-5.6393,-5.5632,-5.5158,-5.4126,-5.3518,-5.3518,-5.3518,-5.3518,-5.3518,-5.3518,-5.3518,-5.3518,-5.3518,-5.3518,-5.3518,-5.3518,-5.3518,-5.3518,-5.3518,-5.3518,-5.3518,-5.3518,-5.3518,-5.3518,-5.3518,-5.3518,-5.3518,-5.3518,-5.3518,-5.3518,-5.3518,-5.3518,-5.3518,-5.3518,-5.3518,-5.3518,-5.3518,-5.3518,-5.3534,-5.3687,-5.4363,-5.5209,-5.5801,-5.6325,-5.7239,-5.7442,-5.778,-5.7679,-5.7729,-5.7848,-5.7881,-5.7881,-5.7881,-5.7881,-5.7881,-5.7881,-5.7881,-5.7881,-5.7881,-5.7881,-5.7881,-5.7881,-5.7881,-5.7881,-5.7881,-5.7881,-5.7881,-5.7537,-5.7168,-5.7335,-5.7055,-5.7168,-5.7168,-5.6925,-5.6794,-5.7243,-5.6946,-6.4402,-6.3998,-6.4053,-6.3594,-6.2879,-6.2823,-6.2823,-6.2823,-6.2823,-6.2823,-6.2823,-6.2823,-6.2823,-6.2823,-6.2823,-6.2823,-6.2823,-6.2823,-6.2823,-6.2823,-6.2823,-6.2823,-6.2823,-6.2823,-6.2823,-6.2823,-6.2823,-6.2823,-6.2464,-6.1622,-6.082,-6.0335,-5.9062,-5.8352,-5.7937,-5.7865,-5.7662,-5.7205,-5.6325,-5.5581,-5.504,-5.4126,-5.3518,-5.3518,-5.3518,-5.3518,-5.3518,-5.3518,-5.3518,-5.3518,-5.3518,-5.3518,-5.3518,-5.3518,-5.3518,-5.3518,-5.3518,-5.3518,-5.3518,-5.3518,-5.3518,-5.3518,-5.3518,-5.3518,-5.3518,-5.3518,-5.3518,-5.3518,-5.3518,-5.3518,-5.3518,-5.3518,-5.3518,-5.3518,-5.3518,-5.3518,-5.3602,-5.4093,-5.4752,-5.57,-5.6376,-5.7019,-5.7628,-5.7831,-5.7865,-5.7763,-5.7763,-5.7881,-5.7881,-5.7881,-5.7881,-5.7881,-5.7881,-5.7881,-5.7881,-5.7881,-5.7881,-5.7881,-5.7881,-5.7881,-5.7881,-5.7881,-5.7881,-5.7881,-5.7881,-5.7881,-5.7665,-5.7881,-5.7881,-5.7701,-5.7628,-5.7828,-5.7828,-5.7665,-5.7114,-6.5118,-6.5044,-6.4237,-6.3466,-6.2879,-6.2823,-6.2823,-6.2823,-6.2823,-6.2823,-6.2823,-6.2823,-6.2823,-6.2823,-6.2823,-6.2823,-6.2823,-6.2823,-6.2823,-6.2823,-6.2823,-6.2823,-6.2823,-6.2823,-6.2823,-6.2823,-6.2823,-6.2823,-6.2567,-6.187,-6.0897,-6.0273,-5.9311,-5.8476,-5.7974,-5.7848,-5.756,-5.69,-5.6139,-5.5361,-5.4685,-5.3923,-5.3534,-5.3518,-5.3518,-5.3518,-5.3518,-5.3518,-5.3518,-5.3518,-5.3518,-5.3518,-5.3518,-5.3518,-5.3518,-5.3518,-5.3518,-5.3518,-5.3518,-5.3518,-5.3518,-5.3518,-5.3518,-5.3518,-5.3518,-5.3518,-5.3518,-5.3518,-5.3518,-5.3518,-5.3518,-5.3518,-5.3518,-5.3518,-5.3518,-5.3518,-5.3754,-5.4735,-5.5294,-5.5749,-5.6292,-5.69,-5.7526,-5.7881,-5.7881,-5.7881,-5.7881,-5.7881,-5.7881,-5.7881,-5.7881,-5.7881,-5.7881,-5.7881,-5.7881,-5.7881,-5.7881,-5.7881,-5.7881,-5.7881,-5.7881,-5.7881,-5.7881,-5.7881,-5.7881,-5.7881,-5.7881,-5.7881,-5.7881,-5.7881,-5.7881,-5.7881,-5.7881,-5.7881,-5.7335,-6.4292,-6.4218,-6.3374,-6.2909,-6.2842,-6.2823,-6.2823,-6.2823,-6.2823,-6.2823,-6.2823,-6.2823,-6.2823,-6.2823,-6.2823,-6.2823,-6.2823,-6.2823,-6.2823,-6.2823,-6.2823,-6.2823,-6.2823,-6.2823,-6.2823,-6.2823,-6.2823,-6.2823,-6.2464,-6.1407,-6.0778,-6.0166,-5.8994,-5.8101,-5.7974,-5.7831,-5.7492,-5.6697,-5.6038,-5.5327,-5.4499,-5.389,-5.3518,-5.3518,-5.3518,-5.3518,-5.3518,-5.3518,-5.3518,-5.3518,-5.3518,-5.3518,-5.3518,-5.3518,-5.3518,-5.3518,-5.3518,-5.3518,-5.3518,-5.3518,-5.3518,-5.3518,-5.3518,-5.3518,-5.3518,-5.3518,-5.3518,-5.3518,-5.3518,-5.3518,-5.3518,-5.3518,-5.3518,-5.3518,-5.3518,-5.3518,-5.3687,-5.4228,-5.5108,-5.5666,-5.6122,-5.6664,-5.7374,-5.7881,-5.7881,-5.7881,-5.7881,-5.7881,-5.7881,-5.7881,-5.7881,-5.7881,-5.7881,-5.7881,-5.7881,-5.7881,-5.7881,-5.7881,-5.7881,-5.7881,-5.7881,-5.7881,-5.7881,-5.7881,-5.7881,-5.7881,-5.7881,-5.7881,-5.7881,-5.7881,-5.7881,-5.7881,-5.7881,-5.7881,-5.7881,-6.4732,-6.4585,-6.3356,-6.2823,-6.2823,-6.2823,-6.2823,-6.2823,-6.2823,-6.2823,-6.2823,-6.2823,-6.2823,-6.2823,-6.2823,-6.2823,-6.2823,-6.2823,-6.2823,-6.2823,-6.2823,-6.2823,-6.2823,-6.2823,-6.2823,-6.2823,-6.2823,-6.2823,-6.2705,-6.1659,-6.0808,-6.0198,-5.9112,-5.8352,-5.7991,-5.7865,-5.7239,-5.6444,-5.5852,-5.5141,-5.416,-5.3636,-5.3534,-5.3518,-5.3518,-5.3518,-5.3518,-5.3518,-5.3518,-5.3518,-5.3518,-5.3518,-5.3518,-5.3518,-5.3518,-5.3518,-5.3518,-5.3518,-5.3518,-5.3518,-5.3518,-5.3518,-5.3518,-5.3518,-5.3518,-5.3518,-5.3518,-5.3518,-5.3518,-5.3518,-5.3518,-5.3518,-5.3518,-5.3518,-5.3518,-5.3518,-5.3585,-5.3873,-5.4651,-5.5581,-5.6241,-5.6884,-5.756,-5.7881,-5.7881,-5.7881,-5.7881,-5.7881,-5.7881,-5.7881,-5.7881,-5.7881,-5.7881,-5.7881,-5.7881,-5.7881,-5.7881,-5.7881,-5.7881,-5.7881,-5.7881,-5.7881,-5.7881,-5.7881,-5.7881,-5.7881,-5.7881,-5.7881,-5.7881,-5.7881,-5.7881,-5.7881,-5.7881,-5.7881,-5.7881,-6.5319,-6.5154,-6.3503,-6.2823,-6.2823,-6.2823,-6.2823,-6.2823,-6.2823,-6.2823,-6.2823,-6.2823,-6.2823,-6.2823,-6.2823,-6.2823,-6.2823,-6.2823,-6.2823,-6.2823,-6.2823,-6.2823,-6.2823,-6.2823,-6.2823,-6.2823,-6.2823,-6.2823,-6.261,-6.1677,-6.0967,-6.0211,-5.941,-5.8582,-5.801,-5.7662,-5.685,-5.6122,-5.5497,-5.4752,-5.3839,-5.3518,-5.3518,-5.3518,-5.3518,-5.3518,-5.3518,-5.3518,-5.3518,-5.3518,-5.3518,-5.3518,-5.3518,-5.3518,-5.3518,-5.3518,-5.3518,-5.3518,-5.3518,-5.3518,-5.3518,-5.3518,-5.3518,-5.3518,-5.3518,-5.3518,-5.3518,-5.3518,-5.3518,-5.3518,-5.3518,-5.3518,-5.3518,-5.3518,-5.3518,-5.3518,-5.3585,-5.3907,-5.4583,-5.5463,-5.6308,-5.7053,-5.7695,-5.7881,-5.7881,-5.7881,-5.7881,-5.7881,-5.7881,-5.7881,-5.7881,-5.7881,-5.7881,-5.7881,-5.7881,-5.7881,-5.7881,-5.7881,-5.7881,-5.7881,-5.7881,-5.7881,-5.7881,-5.7881,-5.7881,-5.7881,-5.7881,-5.7881,-5.7881,-5.7881,-5.7881,-5.7881,-5.7881,-5.7881,-5.7881,-6.5319,-6.5154,-6.3503,-6.2823,-6.2823,-6.2823,-6.2823,-6.2823,-6.2823,-6.2823,-6.2823,-6.2823,-6.2823,-6.2823,-6.2823,-6.2823,-6.2823,-6.2823,-6.2823,-6.2823,-6.2823,-6.2823,-6.2823,-6.2823,-6.2823,-6.2823,-6.2823,-6.2823,-6.2394,-6.1293,-6.0598,-6.0117,-5.8943,-5.7974,-5.7903,-5.7374,-5.6528,-5.575,-5.5074,-5.4329,-5.367,-5.3518,-5.3518,-5.3518,-5.3518,-5.3518,-5.3518,-5.3518,-5.3518,-5.3518,-5.3518,-5.3518,-5.3518,-5.3518,-5.3518,-5.3518,-5.3518,-5.3518,-5.3518,-5.3518,-5.3518,-5.3518,-5.3518,-5.3518,-5.3518,-5.3518,-5.3518,-5.3518,-5.3518,-5.3518,-5.3518,-5.3518,-5.3518,-5.3518,-5.3518,-5.3518,-5.3551,-5.3737,-5.4448,-5.5361,-5.6207,-5.7019,-5.7729,-5.7814,-5.7881,-5.7881,-5.7881,-5.7881,-5.7881,-5.7881,-5.7881,-5.7881,-5.7881,-5.7881,-5.7881,-5.7881,-5.7881,-5.7881,-5.7881,-5.7881,-5.7881,-5.7881,-5.7881,-5.7881,-5.7881,-5.7881,-5.7881,-5.7881,-5.7881,-5.7881,-5.7881,-5.7881,-5.7881,-5.7881,-5.7881,-6.4622,-6.4512,-6.3319,-6.2823,-6.2823,-6.2823,-6.2823,-6.2823,-6.2823,-6.2823,-6.2823,-6.2823,-6.2823,-6.2823,-6.2823,-6.2823,-6.2823,-6.2823,-6.2823,-6.2823,-6.2823,-6.2823,-6.2823,-6.2823,-6.2823,-6.2823,-6.273,-6.2446,-6.1915,-6.1131,-6.0384,-6.0086,-5.8789,-5.7901,-5.7729,-5.7154,-5.6461,-5.5615,-5.4668,-5.3873,-5.3585,-5.3518,-5.3518,-5.3518,-5.3518,-5.3518,-5.3518,-5.3518,-5.3518,-5.3518,-5.3518,-5.3518,-5.3518,-5.3518,-5.3518,-5.3518,-5.3518,-5.3518,-5.3518,-5.3518,-5.3518,-5.3518,-5.3518,-5.3518,-5.3518,-5.3518,-5.3518,-5.3518,-5.3518,-5.3518,-5.3518,-5.3518,-5.3518,-5.3518,-5.3518,-5.3518,-5.3551,-5.3737,-5.4211,-5.5158,-5.6105,-5.6917,-5.7628,-5.7814,-5.7881,-5.7881,-5.7881,-5.7881,-5.7881,-5.7881,-5.7881,-5.7881,-5.7881,-5.7881,-5.7881,-5.7881,-5.7881,-5.7881,-5.7881,-5.7881,-5.7881,-5.7881,-5.7881,-5.7881,-5.7881,-5.7881,-5.7881,-5.7881,-5.7881,-5.7881,-5.7881,-5.7881,-5.7881,-5.7881,-5.7881,-6.3961,-6.3704,-6.308,-6.2823,-6.2823,-6.2823,-6.2823,-6.2823,-6.2823,-6.2823,-6.2823,-6.2823,-6.2823,-6.2823,-6.2823,-6.2823,-6.2823,-6.2823,-6.2823,-6.2823,-6.2823,-6.2823,-6.2823,-6.2823,-6.2823,-6.2823,-6.2823,-6.2394,-6.1632,-6.0849,-6.0273,-6.0023,-5.8599,-5.7821,-5.7442,-5.6799,-5.6004,-5.4904,-5.4059,-5.3602,-5.3518,-5.3518,-5.3518,-5.3518,-5.3518,-5.3518,-5.3518,-5.3518,-5.3518,-5.3518,-5.3518,-5.3518,-5.3518,-5.3518,-5.3518,-5.3518,-5.3518,-5.3518,-5.3518,-5.3518,-5.3518,-5.3518,-5.3518,-5.3518,-5.3518,-5.3518,-5.3518,-5.3518,-5.3518,-5.3518,-5.3518,-5.3518,-5.3518,-5.3518,-5.3518,-5.3518,-5.3568,-5.3822,-5.4329,-5.5327,-5.619,-5.685,-5.7442,-5.7763,-5.7881,-5.7881,-5.7881,-5.7881,-5.7881,-5.7881,-5.7881,-5.7881,-5.7881,-5.7881,-5.7881,-5.7881,-5.7881,-5.7881,-5.7881,-5.7881,-5.7881,-5.7881,-5.7881,-5.7881,-5.7881,-5.7881,-5.7881,-5.7881,-5.7881,-5.7881,-5.7881,-5.7881,-5.7881,-5.7881,-5.7881,-6.3613,-6.2897,-6.2842,-6.2823,-6.2823,-6.2823,-6.2823,-6.2823,-6.2823,-6.2823,-6.2823,-6.2823,-6.2823,-6.2823,-6.2823,-6.2823,-6.2823,-6.2823,-6.2823,-6.2823,-6.2823,-6.2823,-6.2823,-6.2823,-6.2823,-6.278,-6.2661,-6.22,-6.153,-6.0562,-5.9879,-5.9144,-5.8317,-5.7586,-5.69,-5.6224,-5.5158,-5.4245,-5.3585,-5.3534,-5.3518,-5.3518,-5.3518,-5.3518,-5.3518,-5.3518,-5.3518,-5.3518,-5.3518,-5.3518,-5.3518,-5.3518,-5.3518,-5.3518,-5.3518,-5.3518,-5.3518,-5.3518,-5.3518,-5.3518,-5.3518,-5.3518,-5.3518,-5.3518,-5.3518,-5.3518,-5.3518,-5.3518,-5.3518,-5.3518,-5.3518,-5.3518,-5.3518,-5.3518,-5.3518,-5.3518,-5.3653,-5.3991,-5.4566,-5.553,-5.6207,-5.6714,-5.7323,-5.7662,-5.7865,-5.7881,-5.7881,-5.7881,-5.7881,-5.7881,-5.7881,-5.7881,-5.7881,-5.7881,-5.7881,-5.7881,-5.7881,-5.7881,-5.7881,-5.7881,-5.7881,-5.7881,-5.7881,-5.7881,-5.7881,-5.7881,-5.7881,-5.7881,-5.7881,-5.7881,-5.7881,-5.7881,-5.7881,-5.7881,-5.7881,-6.3117,-6.2823,-6.2823,-6.2823,-6.2823,-6.2823,-6.2823,-6.2823,-6.2823,-6.2823,-6.2823,-6.2823,-6.2823,-6.2823,-6.2823,-6.2823,-6.2823,-6.2823,-6.2823,-6.2823,-6.2823,-6.2823,-6.2823,-6.2823,-6.2823,-6.2705,-6.235,-6.1632,-6.082,-6.01,-5.9195,-5.8441,-5.8012,-5.748,-5.6731,-5.5615,-5.4499,-5.3856,-5.3518,-5.3518,-5.3518,-5.3518,-5.3518,-5.3518,-5.3518,-5.3518,-5.3518,-5.3518,-5.3518,-5.3518,-5.3518,-5.3518,-5.3518,-5.3518,-5.3518,-5.3518,-5.3518,-5.3518,-5.3518,-5.3518,-5.3518,-5.3518,-5.3518,-5.3518,-5.3518,-5.3518,-5.3518,-5.3518,-5.3518,-5.3518,-5.3518,-5.3518,-5.3518,-5.3518,-5.3518,-5.3518,-5.3636,-5.394,-5.4363,-5.5124,-5.575,-5.6308,-5.6951,-5.7577,-5.7746,-5.7881,-5.7881,-5.7881,-5.7881,-5.7881,-5.7881,-5.7881,-5.7881,-5.7881,-5.7881,-5.7881,-5.7881,-5.7881,-5.7881,-5.7881,-5.7881,-5.7881,-5.7881,-5.7881,-5.7881,-5.7881,-5.7881,-5.7881,-5.7881,-5.7881,-5.7881,-5.7881,-5.7881,-5.7881,-5.7881,-6.2823,-6.2823,-6.2823,-6.2823,-6.2823,-6.2823,-6.2823,-6.2823,-6.2823,-6.2823,-6.2823,-6.2823,-6.2823,-6.2823,-6.2823,-6.2823,-6.2823,-6.2823,-6.2823,-6.2823,-6.2823,-6.2823,-6.2823,-6.2823,-6.278,-6.261,-6.1996,-6.1229,-6.0476,-5.9524,-5.8755,-5.814,-5.7628,-5.7103,-5.6258,-5.5057,-5.4008,-5.3636,-5.3518,-5.3518,-5.3518,-5.3518,-5.3518,-5.3518,-5.3518,-5.3518,-5.3518,-5.3518,-5.3518,-5.3518,-5.3518,-5.3518,-5.3518,-5.3518,-5.3518,-5.3518,-5.3518,-5.3518,-5.3518,-5.3518,-5.3518,-5.3518,-5.3518,-5.3518,-5.3518,-5.3518,-5.3518,-5.3518,-5.3518,-5.3518,-5.3518,-5.3518,-5.3518,-5.3518,-5.3518,-5.3518,-5.3518,-5.3721,-5.4126,-5.4634,-5.5192,-5.5683,-5.6393,-5.7036,-5.7543,-5.7729,-5.7881,-5.7881,-5.7881,-5.7881,-5.7881,-5.7881,-5.7881,-5.7881,-5.7881,-5.7881,-5.7881,-5.7881,-5.7881,-5.7881,-5.7881,-5.7881,-5.7881,-5.7881,-5.7881,-5.7881,-5.7881,-5.7881,-5.7881,-5.7881,-5.7881,-5.7881,-5.7881,-5.7881,-5.7881,-6.2823,-6.2823,-6.2823,-6.2823,-6.2823,-6.2823,-6.2823,-6.2823,-6.2823,-6.2823,-6.2823,-6.2823,-6.2823,-6.2823,-6.2823,-6.2823,-6.2823,-6.2823,-6.2823,-6.2823,-6.2823,-6.2823,-6.2823,-6.2823,-6.2798,-6.2592,-6.1842,-6.0967,-6.0384,-5.9311,-5.8564,-5.771,-5.6985,-5.6359,-5.5649,-5.4279,-5.3568,-5.3518,-5.3518,-5.3518,-5.3518,-5.3518,-5.3518,-5.3518,-5.367,-5.3721,-5.3737,-5.3737,-5.3737,-5.3721,-5.3568,-5.3518,-5.3518,-5.3518,-5.3518,-5.3518,-5.3518,-5.3518,-5.3518,-5.3518,-5.3518,-5.3518,-5.3518,-5.3518,-5.3518,-5.3518,-5.3518,-5.3518,-5.3518,-5.3518,-5.3518,-5.3518,-5.3518,-5.3518,-5.3518,-5.3518,-5.3518,-5.3518,-5.3923,-5.4228,-5.4515,-5.4938,-5.57,-5.6427,-5.712,-5.7526,-5.778,-5.7881,-5.7881,-5.7881,-5.7881,-5.7881,-5.7881,-5.7881,-5.7881,-5.7881,-5.7881,-5.7881,-5.7881,-5.7881,-5.7881,-5.7881,-5.7881,-5.7881,-5.7881,-5.7881,-5.7881,-5.7881,-5.7881,-5.7881,-5.7881,-5.7881,-5.7881,-5.7881,-5.7881,-6.2823,-6.2823,-6.2823,-6.2823,-6.2823,-6.2823,-6.2823,-6.2823,-6.2823,-6.2823,-6.2823,-6.2823,-6.2823,-6.2823,-6.2823,-6.2823,-6.2823,-6.2823,-6.2823,-6.2823,-6.2823,-6.2823,-6.2823,-6.2823,-6.278,-6.242,-6.1604,-6.076,-6.0384,-5.9112,-5.7994,-5.7105,-5.6105,-5.5277,-5.4786,-5.3974,-5.3518,-5.3518,-5.3518,-5.3518,-5.3518,-5.3518,-5.3551,-5.3585,-5.3974,-5.4211,-5.4228,-5.4228,-5.4228,-5.4143,-5.3974,-5.367,-5.3602,-5.3585,-5.3534,-5.3518,-5.3518,-5.3518,-5.3518,-5.3518,-5.3518,-5.3518,-5.3518,-5.3518,-5.3518,-5.3518,-5.3518,-5.3518,-5.3518,-5.3518,-5.3518,-5.3518,-5.3518,-5.3518,-5.3518,-5.3518,-5.3518,-5.3518,-5.3687,-5.3907,-5.4177,-5.482,-5.553,-5.6105,-5.6765,-5.7306,-5.7611,-5.7831,-5.7881,-5.7881,-5.7881,-5.7881,-5.7881,-5.7881,-5.7881,-5.7881,-5.7881,-5.7881,-5.7881,-5.7881,-5.7881,-5.7881,-5.7881,-5.7881,-5.7881,-5.7881,-5.7881,-5.7881,-5.7881,-5.7881,-5.7881,-5.7881,-5.7881,-5.7881,-5.7881,-6.2823,-6.2823,-6.2823,-6.2823,-6.2823,-6.2823,-6.2823,-6.2823,-6.2823,-6.2823,-6.2823,-6.2823,-6.2823,-6.2823,-6.2823,-6.2823,-6.2823,-6.2823,-6.2823,-6.2823,-6.2823,-6.2823,-6.2823,-6.2755,-6.2541,-6.2121,-6.1189,-6.0322,-5.9832,-5.8598,-5.7431,-5.6342,-5.5209,-5.4634,-5.4177,-5.3721,-5.3518,-5.3518,-5.3518,-5.3518,-5.3602,-5.3721,-5.3907,-5.4126,-5.4515,-5.4989,-5.4989,-5.4989,-5.4989,-5.482,-5.4549,-5.411,-5.3991,-5.3873,-5.3754,-5.3619,-5.3518,-5.3518,-5.3518,-5.3518,-5.3518,-5.3518,-5.3518,-5.3518,-5.3518,-5.3518,-5.3518,-5.3518,-5.3518,-5.3518,-5.3518,-5.3518,-5.3518,-5.3518,-5.3518,-5.3518,-5.3518,-5.3518,-5.3534,-5.3737,-5.3873,-5.4583,-5.5243,-5.5886,-5.6461,-5.6951,-5.7425,-5.7662,-5.7881,-5.7881,-5.7881,-5.7881,-5.7881,-5.7881,-5.7881,-5.7881,-5.7881,-5.7881,-5.7881,-5.7881,-5.7881,-5.7881,-5.7881,-5.7881,-5.7881,-5.7881,-5.7881,-5.7881,-5.7881,-5.7881,-5.7881,-5.7881,-5.7881,-5.7881,-5.7881,-6.2823,-6.2823,-6.2823,-6.2823,-6.2823,-6.2823,-6.2823,-6.2823,-6.2823,-6.2823,-6.2823,-6.2823,-6.2823,-6.2823,-6.2823,-6.2823,-6.2823,-6.2823,-6.2823,-6.2823,-6.2823,-6.2823,-6.2823,-6.278,-6.2541,-6.1733,-6.0867,-6.0086,-5.9211,-5.789,-5.6801,-5.5801,-5.4803,-5.4194,-5.3754,-5.3585,-5.3518,-5.3518,-5.3518,-5.3602,-5.3788,-5.416,-5.4431,-5.4769,-5.531,-5.5666,-5.5733,-5.575,-5.575,-5.57,-5.5615,-5.5192,-5.4871,-5.4651,-5.4143,-5.3737,-5.3534,-5.3636,-5.3518,-5.3518,-5.3518,-5.3518,-5.3518,-5.3518,-5.3518,-5.3518,-5.3518,-5.3518,-5.3518,-5.3518,-5.3518,-5.3518,-5.3518,-5.3518,-5.3518,-5.3518,-5.3518,-5.3518,-5.3518,-5.3568,-5.3568,-5.4025,-5.4566,-5.5226,-5.6207,-5.6613,-5.7137,-5.7695,-5.7881,-5.7881,-5.7881,-5.7881,-5.7881,-5.7881,-5.7881,-5.7881,-5.7881,-5.7881,-5.7881,-5.7881,-5.7881,-5.7881,-5.7881,-5.7881,-5.7881,-5.7881,-5.7881,-5.7881,-5.7881,-5.7881,-5.7881,-5.7881,-5.7881,-5.7881,-5.7881,-6.2823,-6.2823,-6.2823,-6.2823,-6.2823,-6.2823,-6.2823,-6.2823,-6.2823,-6.2823,-6.2823,-6.2823,-6.2823,-6.2823,-6.2823,-6.2823,-6.2823,-6.2823,-6.2823,-6.2823,-6.2823,-6.2823,-6.2823,-6.278,-6.261,-6.2014,-6.1131,-6.0096,-5.9356,-5.7827,-5.5987,-5.4938,-5.4279,-5.3771,-5.3653,-5.3534,-5.3585,-5.3636,-5.367,-5.389,-5.4194,-5.46,-5.4972,-5.5463,-5.6122,-5.6427,-5.6494,-5.6494,-5.6511,-5.6478,-5.5987,-5.5547,-5.5463,-5.4905,-5.4279,-5.3687,-5.3839,-5.411,-5.3636,-5.3518,-5.3568,-5.3585,-5.3534,-5.3518,-5.3518,-5.3518,-5.3518,-5.3518,-5.3518,-5.3518,-5.3518,-5.3518,-5.3518,-5.3518,-5.3518,-5.3518,-5.3518,-5.3518,-5.3518,-5.3518,-5.3518,-5.3602,-5.4126,-5.5108,-5.6021,-5.6359,-5.6867,-5.7526,-5.7881,-5.7881,-5.7881,-5.7881,-5.7881,-5.7881,-5.7881,-5.7881,-5.7881,-5.7881,-5.7881,-5.7881,-5.7881,-5.7881,-5.7881,-5.7881,-5.7881,-5.7881,-5.7881,-5.7881,-5.7881,-5.7881,-5.7881,-5.7881,-5.7881,-5.7881,-5.7881,-6.2823,-6.2823,-6.2823,-6.2823,-6.2823,-6.2823,-6.2823,-6.2823,-6.2823,-6.2823,-6.2823,-6.2823,-6.2823,-6.2823,-6.2823,-6.2823,-6.2823,-6.2823,-6.2823,-6.2823,-6.2823,-6.2823,-6.2823,-6.273,-6.229,-6.1751,-6.0885,-5.9752,-5.8731,-5.6881,-5.4955,-5.4634,-5.3856,-5.3788,-5.389,-5.4059,-5.4211,-5.4245,-5.4296,-5.4465,-5.4803,-5.526,-5.5767,-5.6156,-5.685,-5.712,-5.7205,-5.7205,-5.7205,-5.7222,-5.6681,-5.641,-5.6156,-5.5446,-5.5006,-5.4566,-5.4735,-5.4837,-5.4549,-5.4126,-5.4008,-5.3839,-5.367,-5.3518,-5.3518,-5.3518,-5.3518,-5.3518,-5.3518,-5.3518,-5.3518,-5.3518,-5.3518,-5.3518,-5.3518,-5.3518,-5.3518,-5.3518,-5.3518,-5.3518,-5.3518,-5.3518,-5.4093,-5.5091,-5.5835,-5.6173,-5.6799,-5.7611,-5.7881,-5.7881,-5.7881,-5.7881,-5.7881,-5.7881,-5.7881,-5.7881,-5.7881,-5.7881,-5.7881,-5.7881,-5.7881,-5.7881,-5.7881,-5.7881,-5.7881,-5.7881,-5.7881,-5.7881,-5.7881,-5.7881,-5.7881,-5.7881,-5.7881,-5.7881,-5.7881,-6.2823,-6.2823,-6.2823,-6.2823,-6.2823,-6.2823,-6.2823,-6.2823,-6.2823,-6.2823,-6.2823,-6.2823,-6.2823,-6.2823,-6.2823,-6.2823,-6.2823,-6.2823,-6.2823,-6.2823,-6.2823,-6.2823,-6.278,-6.2643,-6.2014,-6.0985,-5.9963,-5.9075,-5.6969,-5.5497,-5.4702,-5.4482,-5.4025,-5.394,-5.4346,-5.4634,-5.4955,-5.5446,-5.526,-5.5243,-5.5784,-5.6359,-5.685,-5.6968,-5.7408,-5.7814,-5.7814,-5.7848,-5.7881,-5.7865,-5.7746,-5.7391,-5.6714,-5.6359,-5.6004,-5.5683,-5.5649,-5.5564,-5.5243,-5.4752,-5.4515,-5.4262,-5.394,-5.3619,-5.3518,-5.3518,-5.3518,-5.3518,-5.3518,-5.3518,-5.3518,-5.3518,-5.3518,-5.3518,-5.3518,-5.3518,-5.3518,-5.3518,-5.3518,-5.3518,-5.3518,-5.3568,-5.4025,-5.5006,-5.57,-5.6038,-5.6613,-5.7492,-5.7881,-5.7881,-5.7881,-5.7881,-5.7881,-5.7881,-5.7881,-5.7881,-5.7881,-5.7881,-5.7881,-5.7881,-5.7881,-5.7881,-5.7881,-5.7881,-5.7881,-5.7881,-5.7881,-5.7881,-5.7881,-5.7881,-5.7881,-5.7881,-5.7881,-5.7881,-5.7881,-6.2823,-6.2823,-6.2823,-6.2823,-6.2823,-6.2823,-6.2823,-6.2823,-6.2823,-6.2823,-6.2823,-6.2823,-6.2823,-6.2823,-6.2823,-6.2823,-6.2823,-6.2823,-6.2823,-6.2823,-6.2823,-6.2823,-6.2636,-6.2253,-6.1677,-6.1037,-5.9951,-5.8148,-5.6233,-5.5023,-5.4313,-5.3923,-5.3974,-5.4549,-5.482,-5.5175,-5.5784,-5.6461,-5.6393,-5.6224,-5.6545,-5.6731,-5.6985,-5.7391,-5.7881,-5.7881,-5.7881,-5.7881,-5.7881,-5.7865,-5.7881,-5.7476,-5.685,-5.7137,-5.6731,-5.6072,-5.6292,-5.6258,-5.5835,-5.526,-5.4803,-5.4431,-5.4042,-5.3704,-5.3518,-5.3518,-5.3518,-5.3518,-5.3518,-5.3518,-5.3518,-5.3518,-5.3518,-5.3518,-5.3518,-5.3518,-5.3518,-5.3518,-5.3518,-5.3518,-5.3518,-5.3788,-5.4177,-5.4752,-5.5463,-5.6021,-5.6511,-5.7154,-5.7695,-5.7881,-5.7881,-5.7881,-5.7881,-5.7881,-5.7881,-5.7881,-5.7881,-5.7881,-5.7881,-5.7881,-5.7881,-5.7881,-5.7881,-5.7881,-5.7881,-5.7881,-5.7881,-5.7881,-5.7881,-5.7881,-5.7881,-5.7881,-5.7881,-5.7881,-5.7881,-6.2823,-6.2823,-6.2823,-6.2823,-6.2823,-6.2823,-6.2823,-6.2823,-6.2823,-6.2823,-6.2823,-6.2823,-6.2823,-6.2823,-6.2823,-6.2823,-6.2823,-6.2823,-6.2823,-6.2823,-6.2823,-6.2823,-6.2471,-6.1951,-6.1361,-6.0701,-5.8557,-5.6661,-5.5448,-5.4905,-5.4346,-5.4143,-5.4685,-5.5243,-5.5497,-5.6055,-5.6545,-5.7239,-5.7239,-5.7239,-5.7239,-5.7323,-5.7408,-5.7831,-5.7881,-5.7881,-5.7881,-5.7881,-5.7881,-5.7881,-5.7881,-5.778,-5.7459,-5.7594,-5.7425,-5.7087,-5.7019,-5.7087,-5.6478,-5.5767,-5.5108,-5.4786,-5.3991,-5.3585,-5.3518,-5.3518,-5.3518,-5.3518,-5.3518,-5.3518,-5.3518,-5.3518,-5.3518,-5.3518,-5.3518,-5.3518,-5.3518,-5.3518,-5.3518,-5.3518,-5.3518,-5.3585,-5.3991,-5.4414,-5.5124,-5.5869,-5.6393,-5.7103,-5.7577,-5.7881,-5.7881,-5.7881,-5.7881,-5.7881,-5.7881,-5.7881,-5.7881,-5.7881,-5.7881,-5.7881,-5.7881,-5.7881,-5.7881,-5.7881,-5.7881,-5.7881,-5.7881,-5.7881,-5.7881,-5.7881,-5.7881,-5.7881,-5.7881,-5.7881,-5.7881,-6.2823,-6.2823,-6.2823,-6.2823,-6.2823,-6.2823,-6.2823,-6.2823,-6.2823,-6.2823,-6.2823,-6.2823,-6.2823,-6.2823,-6.2823,-6.2823,-6.2823,-6.2823,-6.2823,-6.2823,-6.2823,-6.2823,-6.2446,-6.1842,-6.0784,-5.9127,-5.7054,-5.5962,-5.5023,-5.4718,-5.4668,-5.4854,-5.5463,-5.6139,-5.6647,-5.6985,-5.7256,-5.7594,-5.7729,-5.7797,-5.7848,-5.7881,-5.7848,-5.7848,-5.7881,-5.7881,-5.7881,-5.7881,-5.7881,-5.7881,-5.7881,-5.7814,-5.778,-5.7814,-5.7831,-5.7628,-5.7594,-5.7679,-5.7391,-5.6342,-5.5869,-5.531,-5.4211,-5.3602,-5.3551,-5.3518,-5.3518,-5.3518,-5.3518,-5.3518,-5.3518,-5.3518,-5.3518,-5.3518,-5.3518,-5.3518,-5.3518,-5.3518,-5.3518,-5.3518,-5.3518,-5.3534,-5.4042,-5.4431,-5.4972,-5.57,-5.6376,-5.7087,-5.7628,-5.7797,-5.7881,-5.7881,-5.7881,-5.7881,-5.7881,-5.7881,-5.7881,-5.7881,-5.7881,-5.7881,-5.7881,-5.7881,-5.7881,-5.7881,-5.7881,-5.7881,-5.7881,-5.7881,-5.7881,-5.7881,-5.7881,-5.7881,-5.7881,-5.7881,-5.7881,-6.2823,-6.2823,-6.2823,-6.2823,-6.2823,-6.2823,-6.2823,-6.2823,-6.2823,-6.2823,-6.2823,-6.2823,-6.2823,-6.2823,-6.2823,-6.2823,-6.2823,-6.2823,-6.2823,-6.2823,-6.2823,-6.2823,-6.2339,-6.1266,-5.9426,-5.7686,-5.6131,-5.5381,-5.5209,-5.4938,-5.4955,-5.5513,-5.6224,-5.6681,-5.6816,-5.7222,-5.7662,-5.7881,-5.7881,-5.7881,-5.7881,-5.7881,-5.7881,-5.7881,-5.7881,-5.7881,-5.7881,-5.7881,-5.7881,-5.7881,-5.7881,-5.7881,-5.7881,-5.7881,-5.7881,-5.7881,-5.7881,-5.7881,-5.7442,-5.6562,-5.6055,-5.5733,-5.4668,-5.3704,-5.3636,-5.3534,-5.3534,-5.3518,-5.3518,-5.3518,-5.3518,-5.3518,-5.3518,-5.3518,-5.3518,-5.3518,-5.3518,-5.3518,-5.3518,-5.3518,-5.3518,-5.3991,-5.4769,-5.5108,-5.5378,-5.6038,-5.6579,-5.7239,-5.7729,-5.7814,-5.7881,-5.7881,-5.7881,-5.7881,-5.7881,-5.7881,-5.7881,-5.7881,-5.7881,-5.7881,-5.7881,-5.7881,-5.7881,-5.7881,-5.7881,-5.7881,-5.7881,-5.7881,-5.7881,-5.7881,-5.7881,-5.7881,-5.7881,-5.7881,-5.7881]},{"header":{"parameterUnit":"m.s-1","parameterCategory":1,"la1":31.0,"la2":29.5877,"lo1":-88.7671,"lo2":-86.6584,"dx":0.0162,"dy":0.0185,"nx":115,"ny":88,"refTime":"2022-11-30T18:00:00:Z","depth":0,"parameterNumber":3,"parameterNumberName":"V-component_of_WINDS"},"data":[0.0,0.0,0.0,0.0,0.0,0.0,0.0,0.0,0.0,0.0,0.0,0.0,0.0,0.0,0.0,0.0,0.0,0.0,0.0,0.0,0.0,0.0,0.0,0.0,0.0,0.0,0.0,0.0,0.0,0.0,0.0,0.0,0.0,0.0,0.0,0.0,0.0,0.0,0.0,0.0,0.0,0.0,0.0,0.0,0.0,0.0,0.0,0.0,0.0,0.0,0.0,0.0,0.0,0.0,0.0,0.0,0.0,0.0,0.0,0.0,0.0,0.0,0.0,0.0,0.0,0.0,0.0,0.0,0.0,0.0,0.0,0.0,0.0,0.0,0.0,0.0,0.0,0.0,0.0,0.0,0.0,0.0,0.0,0.0,0.0,0.0,0.0,0.0,0.0,0.0,0.0,0.0,0.0,0.0,0.0,0.0,0.0,0.0,0.0,0.0,0.0,0.0,0.0,0.0,0.0,0.0,0.0,0.0,0.0,0.0,0.0,0.0,0.0,0.0,0.0,0.0,0.0,0.0,0.0,0.0,0.0,0.0,0.0,0.0,0.0,0.0,0.0,0.0,0.0,0.0,0.0,0.0,0.0,0.0,0.0,0.0,0.0,0.0,0.0,0.0,0.0,0.0,0.0,0.0,0.0,0.0,0.0,0.0,0.0,0.0,0.0,0.0,0.0,0.0,0.0,0.0,0.0,0.0,0.0,0.0,0.0,0.0,0.0,0.0,0.0,0.0,0.0,0.0,0.0,0.0,0.0,0.0,0.0,0.0,0.0,0.0,0.0,0.0,0.0,0.0,0.0,0.0,0.0,0.0,0.0,0.0,0.0,0.0,0.0,0.0,0.0,0.0,0.0,0.0,0.0,0.0,0.0,0.0,0.0,0.0,0.0,0.0,0.0,0.0,0.0,0.0,0.0,0.0,0.0,0.0,0.0,0.0,0.0,0.0,0.0,0.0,0.0,0.0,0.0,0.0,0.0,0.0,0.0,0.0,0.0,0.0,0.0,0.0,0.0,0.0,0.0,0.0,0.0,0.0,0.0,0.0,0.0,0.0,0.0,0.0,0.0,0.0,0.0,0.0,0.0,0.0,0.0,0.0,0.0,0.0,0.0,0.0,0.0,0.0,0.0,0.0,0.0,0.0,0.0,0.0,0.0,0.0,0.0,0.0,0.0,0.0,0.0,0.0,0.0,0.0,0.0,0.0,0.0,0.0,0.0,0.0,0.0,0.0,0.0,0.0,0.0,0.0,0.0,0.0,0.0,0.0,0.0,0.0,0.0,0.0,0.0,0.0,0.0,0.0,0.0,0.0,0.0,0.0,0.0,0.0,0.0,0.0,0.0,0.0,0.0,0.0,0.0,0.0,0.0,0.0,0.0,0.0,0.0,0.0,0.0,0.0,0.0,0.0,0.0,0.0,0.0,0.0,0.0,0.0,0.0,0.0,0.0,0.0,0.0,0.0,0.0,0.0,0.0,0.0,0.0,0.0,0.0,0.0,0.0,0.0,0.0,0.0,0.0,0.0,0.0,0.0,0.0,0.0,0.0,0.0,0.0,0.0,0.0,0.0,0.0,0.0,0.0,0.0,0.0,0.0,0.0,0.0,0.0,0.0,0.0,0.0,0.0,0.0,0.0,0.0,0.0,0.0,0.0,0.0,0.0,0.0,0.0,0.0,0.0,0.0,0.0,0.0,0.0,0.0,0.0,0.0,0.0,0.0,0.0,0.0,0.0,0.0,0.0,0.0,0.0,0.0,0.0,0.0,0.0,0.0,0.0,0.0,0.0,0.0,0.0,0.0,0.0,0.0,0.0,0.0,0.0,0.0,0.0,0.0,0.0,0.0,0.0,0.0,0.0,0.0,0.0,0.0,0.0,0.0,0.0,0.0,0.0,0.0,0.0,0.0,0.0,0.0,0.0,0.0,0.0,0.0,0.0,0.0,0.0,0.0,0.0,0.0,0.0,0.0,0.0,0.0,0.0,0.0,0.0,0.0,0.0,0.0,0.0,0.0,0.0,0.0,0.0,0.0,0.0,0.0,0.0,0.0,0.0,0.0,0.0,0.0,0.0,0.0,0.0,0.0,0.0,0.0,0.0,0.0,0.0,0.0,0.0,0.0,0.0,0.0,0.0,0.0,0.0,0.0,0.0,0.0,0.0,0.0,0.0,0.0,0.0,0.0,0.0,0.0,0.0,0.0,0.0,0.0,0.0,0.0,0.0,0.0,0.0,0.0,0.0,0.0,0.0,0.0,0.0,0.0,0.0,0.0,0.0,0.0,0.0,0.0,0.0,0.0,0.0,0.0,0.0,0.0,0.0,0.0,0.0,0.0,0.0,0.0,0.0,0.0,0.0,0.0,0.0,0.0,0.0,0.0,0.0,0.0,0.0,0.0,0.0,0.0,0.0,0.0,0.0,0.0,0.0,0.0,0.0,0.0,0.0,0.0,0.0,0.0,0.0,0.0,0.0,0.0,0.0,0.0,0.0,0.0,0.0,0.0,0.0,0.0,0.0,0.0,0.0,0.0,0.0,0.0,0.0,0.0,0.0,0.0,0.0,0.0,0.0,0.0,0.0,0.0,0.0,0.0,0.0,0.0,0.0,0.0,0.0,0.0,0.0,0.0,0.0,0.0,0.0,0.0,0.0,0.0,0.0,0.0,0.0,0.0,0.0,0.0,0.0,0.0,0.0,0.0,0.0,0.0,0.0,0.0,0.0,0.0,0.0,0.0,0.0,0.0,0.0,0.0,0.0,0.0,0.0,0.0,0.0,0.0,0.0,0.0,0.0,0.0,0.0,0.0,0.0,0.0,0.0,0.0,0.0,0.0,0.0,0.0,0.0,0.0,0.0,0.0,0.0,0.0,0.0,0.0,0.0,0.0,0.0,0.0,0.0,0.0,0.0,0.0,0.0,0.0,0.0,0.0,0.0,0.0,0.0,0.0,0.0,0.0,0.0,0.0,0.0,0.0,0.0,0.0,0.0,0.0,0.0,0.0,0.0,0.0,0.0,0.0,0.0,0.0,0.0,0.0,0.0,0.0,0.0,0.0,0.0,0.0,0.0,0.0,0.0,0.0,0.0,0.0,0.0,0.0,0.0,0.0,0.0,0.0,0.0,0.0,0.0,0.0,0.0,0.0,0.0,0.0,0.0,0.0,0.0,0.0,0.0,0.0,0.0,0.0,0.0,0.0,0.0,0.0,0.0,0.0,0.0,0.0,0.0,0.0,0.0,0.0,0.0,0.0,0.0,0.0,0.0,0.0,0.0,0.0,0.0,0.0,0.0,0.0,0.0,0.0,0.0,0.0,0.0,0.0,0.0,0.0,0.0,0.0,0.0,0.0,0.0,0.0,0.0,0.0,0.0,0.0,0.0,0.0,0.0,0.0,0.0,0.0,0.0,0.0,0.0,0.0,0.0,0.0,0.0,0.0,0.0,0.0,0.0,0.0,0.0,0.0,0.0,0.0,0.0,0.0,0.0,0.0,0.0,0.0,0.0,0.0,0.0,0.0,0.0,0.0,0.0,0.0,0.0,0.0,0.0,0.0,0.0,0.0,0.0,0.0,0.0,0.0,0.0,0.0,0.0,0.0,0.0,0.0,0.0,0.0,0.0,0.0,0.0,0.0,0.0,0.0,0.0,0.0,0.0,0.0,0.0,0.0,0.0,0.0,0.0,0.0,0.0,0.0,0.0,0.0,0.0,0.0,0.0,0.0,0.0,0.0,0.0,0.0,0.0,0.0,0.0,0.0,0.0,0.0,0.0,0.0,0.0,0.0,0.0,0.0,0.0,0.0,0.0,0.0,0.0,0.0,0.0,0.0,0.0,0.0,0.0,0.0,0.0,0.0,0.0,0.0,0.0,0.0,0.0,0.0,0.0,0.0,0.0,0.0,0.0,0.0,0.0,0.0,0.0,0.0,0.0,0.0,0.0,0.0,0.0,0.0,0.0,0.0,0.0,0.0,0.0,0.0,0.0,0.0,0.0,0.0,0.0,0.0,0.0,0.0,0.0,0.0,0.0,0.0,0.0,0.0,0.0,0.0,0.0,0.0,0.0,0.0,0.0,0.0,0.0,0.0,0.0,0.0,0.0,0.0,0.0,0.0,0.0,0.0,0.0,0.0,0.0,0.0,0.0,0.0,0.0,0.0,0.0,0.0,0.0,0.0,0.0,0.0,0.0,0.0,0.0,0.0,0.0,0.0,0.0,0.0,0.0,0.0,0.0,0.0,0.0,0.0,0.0,0.0,0.0,0.0,0.0,0.0,-0.819,0.0,0.0,0.0,-0.7839,0.0,0.0,0.0,0.0,0.0,0.0,0.0,0.0,0.0,0.0,0.0,0.0,0.0,0.0,0.0,0.0,0.0,0.0,0.0,0.0,0.0,0.0,0.0,0.0,0.0,0.0,0.0,0.0,0.0,0.0,0.0,0.0,0.0,0.0,0.0,0.0,0.0,0.0,0.0,0.0,0.0,0.0,0.0,0.0,0.0,0.0,0.0,0.0,0.0,0.0,0.0,0.0,0.0,0.0,0.0,0.0,0.0,0.0,0.0,0.0,0.0,0.0,0.0,0.0,0.0,0.0,0.0,0.0,0.0,0.0,0.0,0.0,0.0,0.0,0.0,0.0,0.0,0.0,0.0,0.0,0.0,0.0,0.0,0.0,0.0,0.0,0.0,0.0,0.0,0.0,0.0,0.0,0.0,0.0,0.0,0.0,0.0,0.0,0.0,0.0,0.0,0.0,0.0,0.0,0.0,0.0,0.0,0.0,0.0,0.0,-0.8335,-0.8176,-0.7992,-0.7985,-0.8163,0.0,0.0,0.0,0.0,0.0,0.0,0.0,0.0,0.0,0.0,0.0,0.0,0.0,0.0,0.0,0.0,0.0,0.0,0.0,0.0,0.0,0.0,0.0,0.0,0.0,0.0,0.0,0.0,0.0,0.0,0.0,0.0,0.0,0.0,0.0,0.0,0.0,0.0,0.0,0.0,0.0,0.0,0.0,0.0,0.0,0.0,0.0,0.0,0.0,0.0,0.0,0.0,0.0,0.0,0.0,0.0,0.0,0.0,0.0,0.0,0.0,0.0,0.0,0.0,0.0,0.0,0.0,0.0,0.0,0.0,0.0,0.0,0.0,0.0,0.0,0.0,0.0,0.0,0.0,0.0,0.0,0.0,0.0,0.0,0.0,0.0,0.0,0.0,0.0,0.0,0.0,0.0,0.0,0.0,0.0,0.0,0.0,0.0,0.0,0.0,0.0,0.0,0.0,0.0,0.0,0.0,0.0,0.0,0.0,0.0,0.0,0.0,-0.825,-0.8203,-0.8375,0.0,0.0,0.0,0.0,0.0,0.0,0.0,0.0,0.0,0.0,0.0,0.0,0.0,0.0,0.0,0.0,0.0,0.0,0.0,0.0,0.0,0.0,0.0,0.0,0.0,0.0,0.0,0.0,0.0,0.0,0.0,0.0,0.0,0.0,0.0,0.0,0.0,0.0,0.0,0.0,0.0,0.0,0.0,0.0,0.0,0.0,0.0,0.0,0.0,0.0,0.0,0.0,0.0,0.0,0.0,0.0,0.0,0.0,0.0,0.0,0.0,0.0,0.0,0.0,0.0,0.0,0.0,0.0,0.0,0.0,0.0,0.0,0.0,0.0,0.0,0.0,0.0,0.0,0.0,0.0,0.0,0.0,0.0,0.0,0.0,0.0,0.0,0.0,0.0,0.0,0.0,0.0,0.0,0.0,0.0,0.0,0.0,0.0,0.0,0.0,0.0,0.0,0.0,0.0,0.0,0.0,0.0,0.0,0.0,0.0,-0.8764,-0.8764,-0.8738,0.0,-0.8402,0.0,0.0,0.0,0.0,0.0,0.0,0.0,0.0,0.0,0.0,0.0,0.0,0.0,0.0,0.0,0.0,0.0,0.0,0.0,0.0,0.0,0.0,0.0,0.0,0.0,0.0,0.0,0.0,0.0,0.0,0.0,0.0,0.0,0.0,0.0,0.0,0.0,0.0,0.0,0.0,0.0,0.0,0.0,0.0,0.0,0.0,0.0,0.0,0.0,0.0,0.0,0.0,0.0,0.0,0.0,0.0,0.0,0.0,0.0,0.0,0.0,0.0,0.0,0.0,0.0,0.0,0.0,0.0,0.0,0.0,0.0,0.0,0.0,0.0,0.0,0.0,0.0,0.0,0.0,0.0,0.0,0.0,0.0,0.0,0.0,0.0,0.0,0.0,0.0,0.0,0.0,0.0,0.0,0.0,0.0,0.0,0.0,0.0,0.0,0.0,0.0,0.0,0.0,0.0,0.0,0.0,0.0,0.0,0.0,0.0,-0.8778,-0.8778,-0.8778,-0.8671,0.0,0.0,0.0,0.0,0.0,0.0,0.0,0.0,0.0,0.0,0.0,0.0,0.0,0.0,0.0,0.0,0.0,0.0,0.0,0.0,0.0,0.0,0.0,0.0,0.0,0.0,0.0,0.0,0.0,0.0,0.0,0.0,0.0,0.0,0.0,0.0,0.0,0.0,0.0,0.0,0.0,0.0,0.0,0.0,0.0,0.0,0.0,0.0,0.0,0.0,0.0,0.0,0.0,0.0,0.0,0.0,0.0,0.0,0.0,0.0,0.0,0.0,0.0,0.0,0.0,0.0,0.0,0.0,0.0,0.0,0.0,0.0,0.0,0.0,0.0,0.0,0.0,0.0,0.0,0.0,0.0,0.0,0.0,0.0,0.0,0.0,0.0,0.0,0.0,0.0,0.0,0.0,0.0,0.0,0.0,0.0,0.0,0.0,0.0,0.0,0.0,0.0,0.0,0.0,0.0,0.0,0.0,0.0,0.0,0.0,-0.8778,-0.8778,-0.8778,-0.8778,-0.8631,-0.8288,0.0,0.0,0.0,0.0,0.0,0.0,0.0,0.0,0.0,0.0,0.0,0.0,0.0,0.0,0.0,0.0,0.0,0.0,0.0,0.0,0.0,0.0,0.0,0.0,0.0,0.0,0.0,0.0,0.0,0.0,0.0,0.0,0.0,0.0,0.0,0.0,0.0,0.0,0.0,0.0,0.0,0.0,0.0,0.0,0.0,0.0,0.0,0.0,0.0,0.0,0.0,0.0,0.0,0.0,0.0,0.0,0.0,0.0,0.0,0.0,0.0,0.0,0.0,0.0,0.0,0.0,0.0,0.0,0.0,0.0,0.0,0.0,0.0,0.0,0.0,0.0,0.0,0.0,0.0,0.0,0.0,0.0,0.0,0.0,0.0,0.0,0.0,0.0,0.0,0.0,0.0,0.0,0.0,0.0,0.0,0.0,0.0,0.0,0.0,0.0,0.0,0.0,0.0,0.0,0.0,0.0,0.0,0.0,-0.8758,-0.8811,-0.8778,-0.8791,-0.8785,-0.8537,0.0,0.0,0.0,0.0,0.0,0.0,0.0,0.0,0.0,0.0,0.0,0.0,0.0,0.0,0.0,0.0,0.0,0.0,0.0,0.0,0.0,0.0,0.0,0.0,0.0,0.0,0.0,0.0,0.0,0.0,0.0,0.0,0.0,0.0,0.0,0.0,0.0,0.0,0.0,0.0,0.0,0.0,0.0,0.0,0.0,0.0,0.0,0.0,0.0,0.0,0.0,0.0,0.0,0.0,0.0,0.0,0.0,0.0,0.0,0.0,0.0,0.0,0.0,0.0,0.0,0.0,0.0,0.0,0.0,0.0,0.0,0.0,0.0,0.0,0.0,0.0,0.0,0.0,0.0,0.0,0.0,0.0,0.0,0.0,0.0,0.0,0.0,0.0,0.0,0.0,0.0,0.0,0.0,0.0,0.0,0.0,0.0,0.0,0.0,0.0,0.0,0.0,0.0,0.0,0.0,0.0,0.0,0.0,0.0,-0.8791,-0.8958,-0.9058,-0.9051,-0.9058,-0.8785,0.0,0.0,0.0,0.0,0.0,0.0,0.0,0.0,0.0,0.0,0.0,0.0,0.0,0.0,0.0,0.0,0.0,0.0,0.0,0.0,0.0,0.0,0.0,0.0,0.0,0.0,0.0,0.0,0.0,0.0,0.0,0.0,0.0,0.0,0.0,0.0,0.0,0.0,0.0,0.0,0.0,0.0,0.0,0.0,0.0,0.0,0.0,0.0,0.0,0.0,0.0,0.0,0.0,0.0,0.0,0.0,0.0,0.0,0.0,0.0,0.0,0.0,0.0,0.0,0.0,0.0,0.0,0.0,0.0,0.0,0.0,0.0,0.0,0.0,0.0,0.0,0.0,0.0,0.0,0.0,0.0,0.0,0.0,0.0,0.0,0.0,0.0,0.0,0.0,0.0,0.0,0.0,0.0,0.0,0.0,0.0,0.0,0.0,0.0,0.0,0.0,0.0,0.0,0.0,0.0,0.0,0.0,0.0,0.0,-0.9078,-0.9279,-0.9351,-0.9351,-0.9264,-0.8984,0.0,0.0,0.0,0.0,0.0,0.0,0.0,0.0,0.0,0.0,0.0,0.0,0.0,0.0,0.0,0.0,0.0,0.0,0.0,0.0,0.0,0.0,0.0,0.0,0.0,0.0,0.0,0.0,0.0,0.0,0.0,0.0,0.0,0.0,0.0,0.0,0.0,0.0,0.0,0.0,0.0,0.0,0.0,0.0,0.0,0.0,0.0,0.0,0.0,0.0,0.0,0.0,0.0,0.0,0.0,0.0,0.0,0.0,0.0,0.0,0.0,0.0,0.0,0.0,0.0,0.0,0.0,0.0,0.0,0.0,0.0,0.0,0.0,0.0,0.0,0.0,0.0,0.0,0.0,0.0,0.0,0.0,0.0,0.0,0.0,0.0,0.0,0.0,0.0,0.0,0.0,0.0,0.0,0.0,0.0,0.0,0.0,0.0,0.0,0.0,0.0,0.0,0.0,0.0,0.0,0.0,0.0,0.0,-0.9112,-0.9688,-0.9722,-0.9742,-0.9715,-0.9446,-0.9104,0.0,0.0,0.0,0.0,0.0,0.0,0.0,0.0,0.0,0.0,0.0,0.0,0.0,0.0,0.0,0.0,0.0,0.0,0.0,0.0,0.0,0.0,0.0,0.0,0.0,0.0,0.0,0.0,0.0,0.0,0.0,0.0,0.0,0.0,0.0,0.0,0.0,0.0,0.0,0.0,0.0,0.0,0.0,0.0,0.0,0.0,0.0,0.0,0.0,0.0,0.0,0.0,0.0,0.0,0.0,0.0,0.0,0.0,0.0,0.0,0.0,0.0,0.0,0.0,0.0,0.0,0.0,0.0,0.0,0.0,0.0,0.0,0.0,0.0,0.0,0.0,0.0,0.0,0.0,0.0,0.0,0.0,0.0,0.0,0.0,0.0,0.0,0.0,0.0,0.0,0.0,0.0,0.0,0.0,0.0,0.0,0.0,0.0,0.0,0.0,0.0,0.0,0.0,0.0,0.0,0.0,0.0,0.0,0.0,-1.0643,-1.0527,-1.0629,-1.0979,-1.0547,-1.0151,0.0,0.0,0.0,0.0,0.0,0.0,0.0,0.0,0.0,0.0,0.0,0.0,0.0,0.0,0.0,0.0,0.0,0.0,0.0,0.0,0.0,0.0,0.0,0.0,0.0,0.0,0.0,0.0,0.0,0.0,0.0,0.0,0.0,0.0,0.0,0.0,0.0,0.0,0.0,0.0,0.0,0.0,0.0,0.0,0.0,0.0,0.0,0.0,0.0,0.0,0.0,0.0,0.0,0.0,0.0,0.0,0.0,0.0,0.0,0.0,0.0,0.0,0.0,0.0,0.0,0.0,0.0,0.0,0.0,0.0,0.0,0.0,0.0,0.0,0.0,0.0,0.0,0.0,0.0,0.0,0.0,0.0,0.0,0.0,0.0,0.0,0.0,0.0,0.0,0.0,0.0,0.0,0.0,0.0,0.0,0.0,0.0,0.0,0.0,0.0,0.0,0.0,0.0,0.0,0.0,0.0,0.0,0.0,0.0,-1.2692,-1.1971,-1.1679,-1.1938,-1.1616,-1.1202,-1.0662,0.0,0.0,0.0,0.0,0.0,0.0,0.0,0.0,0.0,0.0,0.0,0.0,0.0,0.0,0.0,0.0,0.0,0.0,0.0,0.0,0.0,0.0,0.0,0.0,0.0,0.0,0.0,0.0,0.0,0.0,0.0,0.0,0.0,0.0,0.0,0.0,0.0,0.0,0.0,0.0,0.0,0.0,0.0,0.0,0.0,0.0,0.0,0.0,0.0,0.0,0.0,0.0,0.0,0.0,0.0,0.0,0.0,0.0,0.0,0.0,0.0,0.0,0.0,0.0,0.0,0.0,0.0,0.0,0.0,0.0,0.0,0.0,0.0,0.0,0.0,0.0,0.0,0.0,0.0,0.0,0.0,0.0,0.0,0.0,0.0,0.0,0.0,0.0,0.0,0.0,0.0,0.0,0.0,0.0,0.0,0.0,0.0,0.0,0.0,0.0,0.0,0.0,0.0,0.0,0.0,0.0,0.0,0.0,-1.5434,-1.3952,-1.3077,-1.2842,-1.2707,-1.2319,0.0,0.0,0.0,0.0,0.0,0.0,0.0,0.0,0.0,0.0,0.0,0.0,0.0,0.0,0.0,0.0,0.0,0.0,0.0,0.0,0.0,0.0,0.0,0.0,0.0,0.0,0.0,0.0,0.0,0.0,0.0,0.0,0.0,0.0,0.0,0.0,0.0,0.0,0.0,0.0,0.0,0.0,0.0,0.0,0.0,0.0,0.0,0.0,0.0,0.0,0.0,0.0,0.0,0.0,0.0,0.0,0.0,0.0,0.0,0.0,0.0,0.0,0.0,0.0,0.0,0.0,0.0,0.0,0.0,0.0,0.0,0.0,0.0,0.0,0.0,0.0,0.0,0.0,0.0,0.0,0.0,0.0,0.0,0.0,0.0,0.0,0.0,0.0,0.0,0.0,0.0,0.0,0.0,0.0,0.0,0.0,0.0,0.0,0.0,0.0,0.0,0.0,0.0,0.0,0.0,0.0,0.0,0.0,0.0,-1.583,-1.6313,-1.6522,-1.6312,-1.5098,-1.4236,0.0,0.0,0.0,0.0,0.0,0.0,0.0,0.0,0.0,0.0,0.0,0.0,0.0,0.0,0.0,0.0,0.0,0.0,0.0,0.0,0.0,0.0,0.0,0.0,0.0,0.0,0.0,0.0,0.0,0.0,0.0,0.0,0.0,0.0,0.0,0.0,0.0,0.0,0.0,0.0,0.0,0.0,0.0,0.0,0.0,0.0,0.0,0.0,0.0,0.0,0.0,0.0,0.0,0.0,0.0,0.0,0.0,0.0,0.0,0.0,0.0,0.0,0.0,0.0,0.0,0.0,0.0,0.0,0.0,0.0,0.0,0.0,0.0,0.0,0.0,0.0,0.0,0.0,0.0,0.0,0.0,0.0,0.0,0.0,0.0,0.0,0.0,0.0,0.0,0.0,0.0,0.0,0.0,0.0,0.0,0.0,0.0,0.0,0.0,0.0,0.0,0.0,0.0,0.0,0.0,0.0,0.0,0.0,-1.6457,-1.7039,-1.8348,-1.9079,-1.9143,-1.7046,-1.5594,0.0,0.0,0.0,0.0,0.0,0.0,0.0,0.0,0.0,0.0,0.0,0.0,0.0,0.0,0.0,0.0,0.0,0.0,0.0,0.0,0.0,0.0,0.0,0.0,0.0,0.0,0.0,0.0,0.0,0.0,0.0,0.0,0.0,0.0,0.0,0.0,0.0,0.0,0.0,0.0,0.0,0.0,0.0,0.0,0.0,0.0,0.0,0.0,0.0,0.0,0.0,0.0,0.0,0.0,0.0,0.0,0.0,0.0,0.0,0.0,0.0,0.0,0.0,0.0,0.0,0.0,0.0,0.0,0.0,0.0,0.0,0.0,0.0,0.0,0.0,0.0,0.0,0.0,0.0,0.0,0.0,0.0,0.0,0.0,0.0,0.0,0.0,0.0,0.0,0.0,0.0,0.0,0.0,0.0,0.0,0.0,0.0,0.0,0.0,0.0,0.0,0.0,0.0,0.0,0.0,0.0,0.0,0.0,-1.8043,-1.8695,-1.9947,-2.0781,-2.1102,-1.8562,-1.6589,0.0,0.0,0.0,0.0,0.0,0.0,0.0,0.0,0.0,0.0,0.0,0.0,0.0,0.0,0.0,0.0,0.0,0.0,0.0,0.0,0.0,0.0,0.0,0.0,0.0,0.0,0.0,0.0,0.0,0.0,0.0,0.0,0.0,0.0,0.0,0.0,0.0,0.0,0.0,0.0,0.0,0.0,0.0,0.0,0.0,0.0,0.0,0.0,0.0,0.0,0.0,0.0,0.0,0.0,0.0,0.0,0.0,0.0,0.0,0.0,0.0,0.0,0.0,0.0,0.0,0.0,0.0,0.0,0.0,0.0,0.0,0.0,0.0,0.0,0.0,0.0,0.0,0.0,0.0,0.0,0.0,0.0,0.0,0.0,0.0,0.0,0.0,0.0,0.0,0.0,0.0,0.0,0.0,0.0,0.0,0.0,0.0,0.0,0.0,0.0,0.0,0.0,0.0,0.0,0.0,0.0,0.0,0.0,-1.8524,-1.9889,-2.0353,-2.0771,-2.1171,-1.9219,-1.7816,0.0,0.0,0.0,0.0,0.0,0.0,0.0,0.0,0.0,0.0,0.0,0.0,0.0,0.0,0.0,0.0,0.0,0.0,0.0,0.0,0.0,0.0,0.0,0.0,0.0,0.0,0.0,0.0,0.0,0.0,0.0,0.0,0.0,0.0,0.0,0.0,0.0,0.0,0.0,0.0,0.0,0.0,0.0,0.0,0.0,0.0,0.0,0.0,-1.3256,0.0,0.0,0.0,0.0,0.0,0.0,0.0,0.0,0.0,0.0,0.0,0.0,0.0,0.0,0.0,0.0,0.0,0.0,0.0,0.0,0.0,0.0,0.0,0.0,0.0,0.0,0.0,0.0,0.0,0.0,0.0,0.0,0.0,0.0,0.0,0.0,0.0,0.0,0.0,0.0,0.0,0.0,0.0,0.0,0.0,0.0,0.0,0.0,0.0,0.0,0.0,0.0,0.0,0.0,0.0,0.0,0.0,0.0,0.0,-1.9239,-2.0284,-2.0897,-2.1299,-2.1453,-2.009,-1.8835,0.0,0.0,0.0,0.0,0.0,0.0,0.0,0.0,0.0,0.0,0.0,0.0,0.0,0.0,0.0,0.0,0.0,0.0,0.0,0.0,0.0,0.0,0.0,0.0,0.0,0.0,0.0,0.0,0.0,0.0,0.0,0.0,0.0,0.0,0.0,0.0,0.0,0.0,0.0,0.0,0.0,0.0,0.0,0.0,0.0,0.0,0.0,0.0,0.0,0.0,0.0,0.0,0.0,0.0,0.0,0.0,0.0,0.0,0.0,0.0,0.0,0.0,0.0,0.0,0.0,0.0,0.0,0.0,0.0,0.0,0.0,0.0,0.0,0.0,0.0,0.0,0.0,0.0,0.0,0.0,0.0,0.0,0.0,0.0,0.0,0.0,0.0,0.0,0.0,0.0,0.0,0.0,0.0,0.0,0.0,0.0,0.0,0.0,0.0,0.0,0.0,0.0,0.0,0.0,0.0,0.0,0.0,-1.8963,-2.0043,-2.0632,-2.1461,-2.1914,-2.1963,-2.0973,-1.9726,-1.8159,0.0,0.0,0.0,0.0,0.0,0.0,0.0,0.0,0.0,0.0,0.0,0.0,0.0,0.0,0.0,0.0,0.0,0.0,0.0,0.0,0.0,0.0,0.0,0.0,0.0,0.0,0.0,0.0,0.0,0.0,0.0,0.0,0.0,0.0,0.0,0.0,0.0,0.0,-1.178,-1.268,0.0,0.0,0.0,0.0,0.0,0.0,0.0,0.0,-1.584,0.0,0.0,0.0,0.0,0.0,0.0,0.0,0.0,0.0,0.0,0.0,0.0,0.0,0.0,0.0,0.0,0.0,0.0,0.0,0.0,0.0,0.0,0.0,0.0,0.0,0.0,0.0,0.0,0.0,0.0,0.0,0.0,0.0,0.0,0.0,0.0,0.0,0.0,0.0,0.0,0.0,0.0,0.0,0.0,0.0,0.0,0.0,0.0,0.0,0.0,0.0,0.0,0.0,0.0,0.0,0.0,-1.8728,-1.9697,-2.0826,-2.2116,-2.1992,-2.206,-2.2363,-2.1531,-2.0449,-1.9136,0.0,0.0,0.0,0.0,0.0,0.0,0.0,0.0,0.0,0.0,0.0,0.0,0.0,0.0,0.0,0.0,0.0,0.0,0.0,0.0,0.0,0.0,0.0,0.0,0.0,0.0,0.0,0.0,0.0,0.0,0.0,0.0,0.0,0.0,0.0,0.0,0.0,0.0,0.0,-1.415,-1.4803,0.0,0.0,0.0,0.0,0.0,0.0,0.0,0.0,-1.7119,0.0,0.0,0.0,0.0,0.0,0.0,0.0,0.0,0.0,0.0,0.0,0.0,0.0,0.0,0.0,0.0,0.0,0.0,0.0,0.0,0.0,0.0,0.0,0.0,0.0,0.0,0.0,0.0,0.0,0.0,0.0,0.0,0.0,0.0,0.0,0.0,0.0,0.0,0.0,0.0,0.0,0.0,0.0,0.0,0.0,0.0,0.0,0.0,0.0,0.0,0.0,0.0,0.0,0.0,0.0,-1.9387,-2.0546,-2.1588,-2.2438,-2.2529,-2.2637,-2.2769,-2.198,-2.1042,0.0,0.0,0.0,0.0,0.0,0.0,0.0,0.0,0.0,0.0,0.0,0.0,0.0,0.0,0.0,0.0,0.0,0.0,0.0,0.0,0.0,0.0,0.0,0.0,0.0,0.0,0.0,0.0,0.0,0.0,0.0,0.0,0.0,0.0,0.0,0.0,0.0,0.0,0.0,0.0,-1.5234,-1.6103,-1.6985,0.0,0.0,0.0,0.0,0.0,0.0,-1.8437,-1.7959,0.0,0.0,0.0,0.0,0.0,0.0,0.0,0.0,0.0,0.0,0.0,0.0,0.0,0.0,0.0,0.0,0.0,0.0,0.0,0.0,0.0,0.0,0.0,0.0,0.0,0.0,0.0,0.0,0.0,0.0,0.0,0.0,0.0,0.0,0.0,0.0,0.0,0.0,0.0,0.0,0.0,0.0,0.0,0.0,0.0,0.0,0.0,0.0,0.0,0.0,0.0,0.0,0.0,0.0,0.0,-1.9995,-2.1444,-2.2353,-2.2764,-2.314,-2.3315,-2.3208,-2.2461,-2.1481,0.0,0.0,0.0,0.0,0.0,0.0,0.0,0.0,0.0,0.0,0.0,0.0,0.0,0.0,0.0,0.0,0.0,0.0,0.0,0.0,0.0,0.0,0.0,0.0,0.0,0.0,0.0,0.0,0.0,0.0,0.0,0.0,0.0,0.0,0.0,0.0,0.0,0.0,0.0,0.0,0.0,-1.7174,-1.8135,-1.7978,0.0,0.0,0.0,0.0,-1.8929,-1.8909,0.0,0.0,0.0,0.0,0.0,0.0,0.0,0.0,0.0,0.0,0.0,0.0,0.0,0.0,0.0,0.0,0.0,0.0,0.0,0.0,0.0,0.0,0.0,0.0,0.0,0.0,0.0,0.0,0.0,0.0,0.0,0.0,0.0,0.0,0.0,0.0,0.0,0.0,0.0,0.0,0.0,0.0,0.0,0.0,0.0,0.0,0.0,0.0,0.0,0.0,0.0,0.0,0.0,0.0,0.0,0.0,-2.1015,-2.2363,-2.3266,-2.3633,-2.4043,-2.4092,-2.3721,-2.2891,-2.1773,0.0,0.0,0.0,0.0,0.0,0.0,0.0,0.0,0.0,0.0,0.0,0.0,0.0,0.0,0.0,0.0,0.0,0.0,0.0,0.0,0.0,0.0,0.0,0.0,0.0,0.0,0.0,0.0,0.0,0.0,0.0,0.0,0.0,0.0,0.0,0.0,0.0,0.0,0.0,0.0,0.0,-1.7754,-1.8965,-1.9102,-1.9108,0.0,0.0,-1.9844,-2.0321,-2.0019,0.0,0.0,0.0,0.0,0.0,0.0,0.0,0.0,0.0,0.0,0.0,0.0,0.0,0.0,0.0,0.0,0.0,0.0,0.0,0.0,0.0,0.0,0.0,0.0,0.0,0.0,0.0,0.0,0.0,0.0,0.0,0.0,0.0,0.0,0.0,0.0,0.0,0.0,0.0,0.0,0.0,0.0,0.0,0.0,0.0,0.0,0.0,0.0,0.0,0.0,0.0,0.0,0.0,0.0,0.0,-2.0207,-2.1611,-2.3105,-2.3965,-2.4141,-2.4326,-2.4326,-2.415,-2.332,-2.234,0.0,0.0,0.0,0.0,0.0,0.0,0.0,0.0,0.0,0.0,0.0,0.0,0.0,0.0,0.0,0.0,0.0,0.0,0.0,0.0,0.0,0.0,0.0,0.0,0.0,0.0,0.0,0.0,0.0,0.0,0.0,0.0,0.0,0.0,0.0,0.0,0.0,0.0,0.0,0.0,0.0,0.0,-1.8773,-1.9336,0.0,0.0,0.0,-1.9971,-2.0166,0.0,0.0,0.0,0.0,0.0,0.0,0.0,0.0,0.0,0.0,0.0,0.0,0.0,0.0,0.0,0.0,0.0,0.0,0.0,0.0,0.0,0.0,0.0,0.0,0.0,0.0,0.0,0.0,0.0,0.0,0.0,0.0,0.0,0.0,0.0,0.0,0.0,0.0,0.0,0.0,0.0,0.0,0.0,0.0,0.0,0.0,0.0,0.0,0.0,0.0,0.0,0.0,0.0,0.0,0.0,0.0,0.0,-2.2051,-2.3721,-2.459,-2.458,-2.4687,-2.4697,-2.457,-2.3857,0.0,0.0,0.0,0.0,0.0,0.0,0.0,0.0,0.0,0.0,0.0,0.0,0.0,0.0,0.0,0.0,0.0,0.0,0.0,0.0,0.0,0.0,0.0,0.0,0.0,0.0,0.0,-0.9804,0.0,0.0,0.0,0.0,0.0,0.0,0.0,0.0,0.0,0.0,0.0,0.0,0.0,0.0,-1.8286,-1.8705,-1.9531,-1.9971,0.0,0.0,-2.0078,-2.0078,-2.0176,-1.9923,0.0,0.0,0.0,0.0,0.0,0.0,0.0,0.0,0.0,0.0,0.0,0.0,0.0,0.0,0.0,0.0,0.0,0.0,0.0,0.0,0.0,0.0,0.0,0.0,0.0,0.0,0.0,0.0,0.0,0.0,0.0,0.0,0.0,0.0,0.0,0.0,0.0,0.0,0.0,0.0,0.0,0.0,0.0,0.0,0.0,0.0,0.0,0.0,0.0,0.0,0.0,0.0,0.0,0.0,-2.1211,-2.2471,-2.415,-2.5086,-2.5086,-2.5439,-2.5449,-2.5077,-2.458,-2.3564,0.0,0.0,0.0,0.0,0.0,0.0,0.0,0.0,0.0,0.0,0.0,0.0,0.0,0.0,0.0,0.0,0.0,0.0,0.0,0.0,0.0,0.0,0.0,0.0,0.0,0.0,0.0,0.0,0.0,0.0,0.0,0.0,0.0,0.0,0.0,0.0,0.0,0.0,0.0,0.0,0.0,-1.8724,-1.918,-2.0008,-2.0556,0.0,0.0,-2.0566,-2.0556,-2.0869,-2.08,-1.9971,0.0,0.0,0.0,0.0,0.0,0.0,0.0,0.0,0.0,0.0,0.0,0.0,0.0,0.0,0.0,0.0,0.0,0.0,0.0,0.0,0.0,0.0,0.0,0.0,0.0,0.0,0.0,0.0,0.0,0.0,0.0,0.0,0.0,0.0,0.0,0.0,0.0,0.0,0.0,0.0,0.0,0.0,0.0,0.0,0.0,0.0,0.0,0.0,0.0,0.0,0.0,0.0,0.0,-2.2266,-2.3291,-2.5,-2.5879,-2.5898,-2.6299,-2.6318,-2.5889,-2.5459,-2.4541,0.0,0.0,0.0,0.0,0.0,0.0,0.0,0.0,0.0,0.0,0.0,0.0,0.0,0.0,0.0,0.0,0.0,0.0,0.0,0.0,0.0,0.0,0.0,0.0,0.0,0.0,0.0,0.0,-1.5928,-1.633,-1.6114,0.0,0.0,0.0,0.0,0.0,0.0,0.0,0.0,0.0,0.0,-1.8763,-1.9228,-2.0254,0.0,0.0,-2.1025,-2.1417,-2.1427,-2.1299,-2.1035,-2.041,-1.9736,0.0,0.0,0.0,0.0,0.0,0.0,0.0,0.0,0.0,0.0,0.0,0.0,0.0,0.0,0.0,0.0,0.0,0.0,0.0,0.0,0.0,0.0,0.0,0.0,0.0,0.0,0.0,0.0,0.0,0.0,0.0,0.0,0.0,0.0,0.0,0.0,0.0,0.0,0.0,0.0,0.0,0.0,0.0,0.0,0.0,0.0,0.0,0.0,0.0,0.0,0.0,0.0,-2.2988,-2.3975,-2.5566,-2.6445,-2.6582,-2.6738,-2.6748,-2.6562,-2.6152,-2.5381,0.0,0.0,0.0,0.0,0.0,0.0,0.0,0.0,0.0,0.0,0.0,0.0,0.0,0.0,0.0,0.0,0.0,0.0,0.0,0.0,0.0,0.0,0.0,0.0,0.0,0.0,0.0,0.0,-1.7539,-1.7607,-1.677,0.0,0.0,0.0,0.0,0.0,0.0,0.0,0.0,0.0,0.0,-1.9316,-1.9629,-2.0674,-2.1318,-2.1045,-2.1484,-2.1936,-2.1936,-2.1738,-2.1465,-2.1075,0.0,0.0,0.0,0.0,0.0,0.0,0.0,0.0,0.0,0.0,0.0,0.0,0.0,0.0,0.0,0.0,0.0,0.0,0.0,0.0,0.0,0.0,0.0,0.0,0.0,0.0,0.0,-0.7924,0.0,0.0,-0.729,0.0,0.0,0.0,0.0,0.0,0.0,0.0,0.0,0.0,0.0,0.0,0.0,0.0,0.0,0.0,0.0,0.0,0.0,0.0,0.0,0.0,0.0,-2.3164,-2.4404,-2.5742,-2.6602,-2.6982,-2.6621,-2.6611,-2.6963,-2.6592,-2.5947,-2.5096,0.0,0.0,0.0,0.0,0.0,0.0,0.0,0.0,0.0,0.0,0.0,0.0,0.0,0.0,0.0,0.0,0.0,0.0,0.0,0.0,0.0,0.0,0.0,0.0,0.0,0.0,-1.7266,-1.8486,-1.8877,0.0,0.0,0.0,0.0,0.0,0.0,0.0,0.0,0.0,0.0,-1.9717,-2.0566,-2.0586,-2.1309,-2.1875,-2.1855,-2.1894,-2.1904,-2.1934,-2.2236,-2.2344,0.0,0.0,0.0,0.0,0.0,0.0,0.0,0.0,0.0,0.0,0.0,0.0,0.0,0.0,0.0,0.0,0.0,0.0,0.0,0.0,0.0,0.0,0.0,0.0,0.0,0.0,0.0,-1.0084,-0.8998,0.0,0.0,0.0,0.0,0.0,0.0,0.0,0.0,0.0,0.0,0.0,-2.0571,-2.1188,0.0,0.0,0.0,0.0,0.0,0.0,0.0,0.0,0.0,0.0,0.0,0.0,-2.4277,-2.5255,-2.6582,-2.7305,-2.7441,-2.7314,-2.7158,-2.7021,-2.6875,-2.626,-2.5145,0.0,0.0,0.0,0.0,0.0,0.0,0.0,0.0,0.0,0.0,0.0,0.0,0.0,0.0,0.0,0.0,0.0,0.0,0.0,0.0,0.0,0.0,0.0,0.0,0.0,-1.7539,0.0,0.0,0.0,0.0,0.0,0.0,0.0,0.0,0.0,0.0,0.0,-1.9121,-1.9824,-2.0331,-2.082,-2.1367,-2.1943,-2.2402,0.0,0.0,0.0,0.0,0.0,0.0,0.0,0.0,0.0,0.0,0.0,0.0,0.0,0.0,-2.0703,-1.9089,-1.9416,-2.0233,-2.1098,0.0,0.0,0.0,0.0,0.0,0.0,0.0,0.0,0.0,0.0,0.0,0.0,0.0,0.0,-1.1506,-1.0039,-1.1076,0.0,0.0,0.0,0.0,0.0,0.0,0.0,0.0,-2.0079,-2.1944,-2.3277,-2.369,-2.3801,0.0,-2.3227,-2.248,0.0,0.0,0.0,0.0,0.0,0.0,0.0,0.0,-2.5215,-2.6387,-2.7236,-2.7865,-2.8076,-2.7875,-2.7607,-2.7461,-2.7324,-2.6699,-2.5566,-2.4424,-2.3154,0.0,0.0,0.0,0.0,0.0,0.0,0.0,0.0,0.0,0.0,0.0,0.0,0.0,0.0,0.0,0.0,0.0,0.0,0.0,0.0,0.0,0.0,0.0,-1.9121,0.0,0.0,0.0,0.0,0.0,0.0,0.0,0.0,0.0,-1.8945,-1.9521,-2.0225,-2.0977,-2.1319,-2.167,-2.2246,0.0,0.0,0.0,0.0,0.0,0.0,0.0,-2.3174,-2.3174,-2.2949,-2.2715,-2.2568,-2.2549,-2.2591,-2.2667,0.0,0.0,-2.1883,-2.2572,-2.3588,-2.4231,-2.5123,-2.6032,-2.6828,-2.7235,-2.763,0.0,0.0,0.0,0.0,0.0,0.0,0.0,0.0,-1.4202,-1.2921,0.0,-1.4076,0.0,0.0,0.0,0.0,0.0,-1.6164,0.0,0.0,-2.467,-2.6006,-2.5484,-2.6116,-2.6435,-2.6387,-2.5566,-2.5371,-2.5567,-2.3301,0.0,0.0,0.0,0.0,0.0,0.0,-2.5986,-2.765,-2.7757,-2.8096,-2.8818,-2.8086,-2.7861,-2.8223,-2.7861,-2.7317,-2.6455,-2.5566,-2.4707,-2.3838,-2.1809,0.0,0.0,0.0,0.0,0.0,0.0,0.0,0.0,0.0,0.0,0.0,0.0,0.0,0.0,0.0,0.0,0.0,0.0,0.0,0.0,-1.9637,0.0,0.0,0.0,0.0,0.0,0.0,0.0,0.0,0.0,0.0,-2.0732,-2.1006,-2.1435,-2.1865,0.0,0.0,0.0,0.0,-2.4404,-2.4424,-2.4434,-2.4434,-2.4397,-2.4434,-2.4414,-2.4394,0.0,0.0,-2.3887,-2.3828,-2.3908,-2.4108,-2.4378,-2.4541,-2.4734,-2.5891,-2.7156,-2.7825,-2.8283,-2.8724,-2.8971,-2.918,-2.951,-1.7199,0.0,0.0,0.0,0.0,-1.5158,-1.5609,-1.6307,-1.6307,-1.5642,-1.457,-1.5535,0.0,0.0,0.0,0.0,0.0,0.0,-2.0779,-2.3184,-2.4816,-2.6194,-2.7419,-2.7639,-2.7754,-2.7734,-2.749,-2.7432,-2.7519,-2.6816,-2.5898,-2.4777,0.0,0.0,0.0,0.0,-2.7376,-2.8086,-2.8408,-2.8535,-2.8467,-2.7992,-2.7777,-2.7894,-2.7787,-2.7549,-2.7346,-2.6515,-2.5605,-2.4763,-2.2949,0.0,0.0,0.0,0.0,0.0,0.0,0.0,0.0,0.0,0.0,0.0,0.0,0.0,0.0,0.0,0.0,0.0,0.0,0.0,-1.9687,-2.0566,-2.0908,0.0,0.0,0.0,0.0,0.0,0.0,0.0,0.0,0.0,-2.2344,-2.2246,-2.2305,0.0,0.0,-2.3315,-2.3975,-2.4268,-2.4531,-2.4834,-2.4883,0.0,-2.4883,-2.4883,-2.4775,-2.4473,-2.4424,-2.4473,-2.4715,-2.4744,-2.4851,-2.5202,-2.6051,-2.6729,-2.6767,-2.7217,-2.805,-2.9035,-2.9992,-3.0723,-3.1153,-3.1306,-3.151,-1.8804,-1.7629,-1.7168,-1.7014,-1.7054,-1.7003,-1.7562,-1.8377,-1.837,-1.7775,-1.678,-1.807,-1.6978,-1.4234,-1.5133,0.0,0.0,0.0,-2.2442,-2.5194,-2.6191,-2.7425,-2.8779,-2.8799,-2.8799,-2.8779,-2.8623,-2.8633,-2.8799,-2.8623,-2.8027,-2.697,0.0,0.0,-2.7744,-2.7871,-2.8213,-2.8769,-2.8711,-2.8623,-2.8545,-2.8135,-2.7842,-2.7728,-2.7875,-2.7676,-2.7178,-2.7043,-2.6416,-2.5371,-2.418,-2.3008,0.0,0.0,0.0,0.0,0.0,0.0,0.0,0.0,0.0,0.0,0.0,-1.6721,-1.6943,0.0,0.0,0.0,-1.959,-2.0283,-2.1484,-2.168,0.0,0.0,0.0,0.0,0.0,0.0,0.0,-2.1269,-2.1963,-2.2646,-2.3301,-2.332,-2.3369,-2.3623,-2.3799,-2.416,-2.4844,0.0,-2.5352,-2.5781,-2.584,-2.584,-2.584,-2.584,-2.5742,-2.5488,-2.5449,-2.5527,-2.5781,-2.584,-2.5937,-2.6211,-2.6862,-2.771,-2.8689,-2.8989,-2.9307,-3.0194,-3.0864,-3.16,-3.2639,-3.288,-3.3043,-1.984,-1.974,-1.8641,-1.8495,-1.9018,-1.8968,-1.9479,-2.016,-2.016,-1.9277,-1.8081,-2.0959,-1.9846,-1.5639,-1.558,0.0,-2.0548,-2.1626,-2.4007,-2.7332,-2.8458,-2.9199,-2.9609,-2.9619,-2.9675,-2.96,-2.9209,-2.9209,-2.9587,-2.916,-2.8975,-2.8965,-2.8584,-2.8574,-2.8877,-2.8535,-2.873,-2.9482,-2.874,-2.8516,-2.8848,-2.8486,-2.8105,-2.7787,-2.8086,-2.7734,-2.6631,-2.7266,-2.7119,-2.5908,-2.543,-2.4832,-2.3896,0.0,0.0,0.0,0.0,0.0,0.0,0.0,0.0,0.0,0.0,0.0,0.0,0.0,0.0,-2.1278,-2.2097,0.0,-2.3071,-2.2721,0.0,0.0,0.0,-2.1463,-2.1934,-2.1619,-2.1697,-2.2519,0.0,0.0,-2.3887,-2.4277,-2.4551,-2.4619,-2.4912,-2.5293,-2.5723,-2.6162,-2.6582,-2.6885,-2.7031,-2.7041,-2.6894,-2.6904,-2.6885,-2.6855,-2.7012,-2.6924,-2.6924,-2.6943,-2.6982,-2.7147,-2.7155,-2.7864,-3.0295,-3.0619,-3.0927,-3.1092,-3.1398,-3.2055,-3.352,-3.3922,-3.4048,-2.0134,-2.0127,-2.0074,-2.0007,-1.992,-1.9927,-1.998,-2.0167,-2.0173,-1.9952,-1.9637,-2.0429,-2.0722,-2.0729,-2.0729,-2.2392,-2.543,-2.5697,-2.6972,-2.8981,-2.9286,-2.9639,-3.0039,-3.0049,-3.0049,-3.0039,-2.9951,-2.9785,-2.9626,-2.9473,-2.9414,-2.9404,-2.9316,-2.915,-2.8916,-2.8818,-2.8867,-2.9072,-2.8867,-2.8662,-2.8447,-2.834,-2.8252,-2.8144,-2.8242,-2.8154,-2.7851,-2.7777,-2.7519,-2.7217,-2.6484,-2.5674,-2.4805,-2.3403,0.0,0.0,0.0,0.0,0.0,0.0,0.0,0.0,0.0,-2.0312,-2.0302,0.0,-2.2832,0.0,-2.3184,-2.3398,-2.3174,-2.2764,0.0,0.0,-2.2519,-2.234,-2.275,-2.3047,-2.3252,-2.3457,-2.3867,-2.4414,-2.5128,-2.5323,-2.5615,-2.6279,-2.5918,-2.585,-2.6582,-2.6787,-2.6894,-2.7041,-2.7314,-2.7393,-2.7109,-2.7012,-2.7031,-2.7012,-2.7021,-2.7012,-2.7012,-2.7012,-2.7298,-2.8276,-2.8516,-2.8804,-2.9409,-3.0257,-3.0974,-3.1105,-3.247,-3.3978,-3.441,-3.4492,-3.453,-2.0815,-2.0848,-2.1136,-2.1162,-2.0982,-2.0601,-2.0434,-2.0428,-2.0428,-2.0434,-2.0441,-2.0561,-2.1108,-2.1892,-2.2671,-2.3919,-2.5517,-2.6278,-2.7526,-2.9068,-2.9068,-2.9613,-3.0498,-3.0508,-3.0508,-3.0498,-3.0293,-3.0078,-2.9853,-2.9668,-2.9463,-2.9287,-2.9277,-2.9062,-2.8662,-2.8828,-2.8926,-2.8926,-2.873,-2.8525,-2.8301,-2.8301,-2.8301,-2.8301,-2.8301,-2.8203,-2.8027,-2.7969,-2.7826,-2.7393,-2.7109,-2.6613,-2.5693,-2.4656,-2.3633,0.0,0.0,0.0,0.0,0.0,0.0,0.0,0.0,0.0,0.0,0.0,-2.3769,-2.373,-2.4111,-2.418,-2.376,-2.3496,-2.3457,-2.3637,-2.3506,-2.3447,-2.3682,-2.4092,-2.4434,-2.4639,-2.5029,-2.5547,-2.6211,-2.6259,-2.6493,-2.7217,-2.6904,-2.6768,-2.7178,-2.7305,-2.7363,-2.7559,-2.7783,-2.7881,-2.7607,-2.7578,-2.7578,-2.7578,-2.7578,-2.7588,-2.7578,-2.7578,-2.7828,-2.8522,-2.9156,-2.9804,-3.0396,-3.1573,-3.2619,-3.3398,-3.4462,-3.5261,-3.5094,-3.5044,-3.5094,-2.1561,-2.1523,-2.181,-2.1911,-2.181,-2.1056,-2.0837,-2.0842,-2.0802,-2.0788,-2.0802,-2.1056,-2.1169,-2.1289,-2.2711,-2.3425,-2.3698,-2.5016,-2.6539,-2.8051,-2.8298,-2.9244,-3.0664,-3.085,-3.0898,-3.0869,-3.042,-3.0166,-3.0107,-2.9746,-2.9375,-2.9014,-2.9004,-2.8828,-2.8486,-2.8818,-2.9004,-2.9004,-2.8633,-2.8437,-2.8369,-2.8369,-2.835,-2.8301,-2.8301,-2.8125,-2.7826,-2.8096,-2.7949,-2.7246,-2.7539,-2.7383,-2.6592,-2.5771,-2.493,0.0,-2.3232,0.0,0.0,0.0,0.0,0.0,0.0,0.0,0.0,-2.376,-2.4209,-2.4629,-2.4961,-2.4971,-2.4541,-2.4551,-2.4543,-2.4543,-2.4639,-2.4687,-2.4756,-2.5088,-2.5469,-2.581,-2.624,-2.6621,-2.7021,-2.709,-2.7256,-2.7656,-2.7767,-2.7685,-2.7796,-2.7796,-2.7871,-2.8252,-2.8301,-2.8223,-2.8213,-2.8252,-2.8252,-2.8271,-2.8232,-2.8301,-2.8242,-2.8252,-2.8378,-2.8668,-2.9546,-3.0627,-3.1825,-3.3082,-3.4338,-3.5173,-3.5664,-3.5884,-3.5721,-3.5596,-3.5805,-2.1189,-2.1223,-2.1574,-2.1496,-2.1263,-2.1096,-2.1303,-2.1717,-2.149,-2.1447,-2.1454,-2.1443,-2.1534,-2.1534,-2.1849,-2.2589,-2.3636,-2.3938,-2.4901,-2.6461,-2.7811,-2.8777,-2.9499,-3.0428,-3.0898,-3.0859,-3.042,-3.0019,-2.9687,-2.96,-2.9587,-2.9443,-2.9453,-2.9404,-2.9336,0.0,0.0,0.0,-2.9421,-2.915,-2.8818,-2.8799,-2.8633,-2.831,-2.8301,0.0,-2.8184,-2.8252,-2.8223,-2.8066,-2.8125,0.0,0.0,0.0,0.0,0.0,0.0,0.0,0.0,0.0,0.0,0.0,-2.4316,-2.4385,-2.4219,-2.4902,-2.5547,-2.5967,-2.5771,-2.543,-2.499,-2.5273,-2.544,-2.545,-2.5801,-2.6143,-2.6475,-2.6592,-2.668,-2.6768,-2.6855,-2.707,-2.7461,-2.7539,-2.7695,-2.8076,-2.8174,-2.8174,-2.8164,-2.8154,-2.8193,-2.8291,-2.8301,-2.8301,-2.8301,-2.8301,-2.8301,-2.8301,-2.8301,-2.8301,-2.831,-2.8301,-2.8761,-2.9596,-3.011,-3.0432,-3.0742,-3.1774,-3.3078,-3.3093,-3.4068,-3.5041,-3.6031,-3.6241,-3.6279,-2.2338,0.0,-2.2372,-2.2251,0.0,-2.1977,-2.2144,-2.2358,-2.1496,-2.1203,-2.1336,-2.1336,-2.1336,-2.1393,-2.2208,-2.293,-2.3566,-2.3566,-2.4909,-2.7134,-2.7194,-2.8217,-3.0018,-3.0625,-3.0898,-3.0879,-3.042,-3.0078,-2.9873,-2.9668,-2.958,-2.958,-2.958,-2.958,-2.9636,-2.9785,-2.9785,-2.958,-2.958,-2.9463,-2.9238,-2.9023,-2.8818,-2.8613,-2.8398,0.0,0.0,0.0,0.0,0.0,0.0,0.0,0.0,0.0,0.0,-2.6103,-2.583,-2.5605,-2.542,-2.5791,-2.5937,-2.5732,-2.6103,-2.5938,-2.4824,-2.5547,-2.6152,-2.6367,-2.6367,-2.6279,-2.6074,-2.623,-2.6317,-2.6327,-2.6572,-2.6797,-2.6992,-2.7207,-2.7334,-2.7363,-2.7519,-2.7744,-2.7939,-2.7978,-2.8047,-2.8252,-2.8301,-2.8301,-2.8301,-2.8301,-2.8301,-2.8301,-2.8301,-2.8301,-2.8301,-2.8301,-2.8301,-2.8301,-2.8301,-2.8389,-2.8574,-2.8428,-2.8666,-2.9756,-3.0874,-3.175,-3.2123,-3.348,-3.473,-3.4756,-3.509,-3.5536,-3.6263,-3.6417,-3.6417,-2.3627,-2.3407,-2.34,-2.3227,-2.2946,-2.2946,-2.2913,-2.2841,0.0,0.0,0.0,-2.1263,-2.1236,-2.1316,-2.2614,-2.3197,-2.3201,-2.345,-2.5032,-2.7512,-2.6772,-2.7907,-3.0507,-3.0801,-3.0937,-3.0976,-3.0537,-3.0322,-3.0303,-2.9971,-2.9805,-2.9805,-2.9805,-2.9795,-2.9834,-3.0146,-3.0146,-2.9871,-2.9861,-2.9756,-2.9678,-2.9336,-2.9111,-2.9033,-2.8623,-2.8408,-2.8408,-2.833,-2.8301,-2.8301,-2.8301,-2.8135,-2.7855,-2.7757,-2.7344,-2.6699,-2.6934,-2.6982,-2.665,-2.7002,-2.7207,-2.7139,-2.7393,-2.7033,-2.5654,-2.6241,-2.6611,-2.6611,-2.6865,-2.7012,-2.7012,-2.709,-2.7129,-2.7129,-2.7197,-2.7246,-2.7266,-2.7549,-2.7773,-2.7812,-2.8057,-2.8291,-2.8271,-2.8271,-2.8301,-2.8291,-2.8301,-2.8301,-2.8301,-2.8301,-2.8301,-2.8301,-2.8301,-2.8301,-2.8301,-2.8301,-2.8301,-2.8301,-2.8301,-2.8447,-2.874,-2.8633,-2.874,-2.9476,-3.1474,-3.2748,-3.3423,-3.4804,-3.6604,-3.691,-3.6659,-3.6395,-3.6599,-3.6659,-3.6681,-2.3748,-2.3708,-2.3708,-2.3534,-2.326,-2.326,-2.3113,-2.2894,-2.2372,-2.2058,-2.1864,-2.1864,-2.1724,-2.1554,-2.1805,-2.1726,-2.1544,-2.2959,-2.3876,-2.4425,-2.6901,-2.8547,-2.9406,-3.0447,-3.1074,-3.1377,-3.0996,-3.0791,-3.0781,-3.0723,-3.0703,-3.0693,-3.0703,-3.0693,-3.0713,-3.0762,-3.0762,-3.0713,-3.0713,-3.0508,-3.0117,-3.0049,-2.9844,-2.9482,-2.9062,-2.8828,-2.8828,-2.8486,-2.8301,-2.8301,-2.8301,-2.8262,-2.8203,-2.7861,-2.7617,-2.7552,-2.7591,-2.7539,-2.7542,-2.7881,-2.7949,-2.765,-2.7295,-2.7139,-2.7346,-2.7464,-2.749,-2.7523,-2.7217,-2.7012,-2.7031,-2.7363,-2.7578,-2.7598,-2.7891,-2.8105,-2.8066,-2.8135,-2.8174,-2.8174,-2.8242,-2.8301,-2.8301,-2.8301,-2.8301,-2.8301,-2.8301,-2.8301,-2.8301,-2.8301,-2.8301,-2.8301,-2.8301,-2.8301,-2.8301,-2.8301,-2.8301,-2.8301,-2.831,-2.8486,-2.8896,-2.8906,-2.9108,-2.9567,-3.1202,-3.2147,-3.2437,-3.3332,-3.5151,-3.6245,-3.6375,-3.6514,-3.748,-3.7739,-3.7487,-2.4148,-2.4015,-2.4008,-2.3841,-2.3567,-2.3567,-2.3487,-2.3347,-2.3213,-2.2886,-2.2478,-2.2465,-2.2305,-2.2031,-2.2017,-2.2367,-2.3028,-2.3779,-2.5156,-2.6951,-2.8438,-2.9724,-3.0761,-3.1361,-3.1562,-3.1514,-3.1328,-3.1113,-3.0908,-3.0898,-3.0898,-3.0898,-3.0898,-3.0898,-3.0898,-3.0898,-3.0898,-3.0898,-3.0898,-3.0791,-3.0576,-3.0322,-3.0098,-2.9912,-2.9502,-2.916,-2.8926,-2.873,-2.8525,-2.8301,-2.8301,-2.8301,-2.8291,-2.8105,-2.8008,-2.8008,-2.8008,-2.8061,-2.8061,-2.8184,-2.8213,-2.807,-2.7822,-2.7783,-2.7988,-2.7845,-2.7728,-2.7728,-2.7676,-2.7705,-2.7715,-2.7881,-2.8008,-2.8008,-2.8184,-2.8291,-2.8301,-2.8301,-2.8301,-2.8301,-2.8301,-2.8301,-2.8301,-2.8301,-2.8301,-2.8301,-2.8301,-2.8301,-2.8301,-2.8301,-2.8301,-2.8301,-2.8301,-2.8301,-2.8301,-2.8301,-2.8301,-2.8301,-2.8496,-2.8789,-2.917,-2.9268,-2.9931,-3.1233,-3.248,-3.3659,-3.4515,-3.5812,-3.6807,-3.7207,-3.7279,-3.7543,-3.8254,-3.8693,-3.8517,-2.4509,-2.4309,-2.4302,-2.4175,-2.3968,-2.3968,-2.3968,-2.3968,-2.3961,-2.3661,-2.318,-2.2959,-2.2659,-2.2338,-2.2318,-2.2907,-2.3919,-2.4409,-2.5985,-2.8334,-2.8906,-2.9998,-3.1459,-3.1591,-3.16,-3.1629,-3.166,-3.1484,-3.1211,-3.1182,-3.1123,-3.1035,-3.0937,-3.0898,-3.0898,-3.0898,-3.0898,-3.0898,-3.0898,-3.0898,-3.0879,-3.0537,-3.0361,-3.0332,-2.9941,-2.9551,-2.9228,-2.9111,-2.8867,-2.8467,-2.8428,-2.8389,-2.8301,-2.8301,-2.8301,-2.8301,-2.8301,-2.8301,-2.8301,-2.8301,-2.8301,-2.8301,-2.8301,-2.8291,-2.8271,-2.7998,-2.7803,-2.7894,-2.8096,-2.8262,-2.8252,-2.8271,-2.8301,-2.8301,-2.8301,-2.8301,-2.8301,-2.8301,-2.8301,-2.8301,-2.8301,-2.8301,-2.8301,-2.8301,-2.8301,-2.8301,-2.8301,-2.8301,-2.8301,-2.8301,-2.8301,-2.8301,-2.8301,-2.8301,-2.8301,-2.8398,-2.8447,-2.8447,-2.8799,-2.9209,-2.957,-2.9707,-3.0366,-3.2035,-3.3428,-3.4505,-3.6251,-3.7796,-3.8515,-3.8684,-3.872,-3.8981,-3.9395,-3.9798,-3.9672,-2.4542,-2.4596,-2.4583,-2.4589,-2.4536,-2.4543,-2.4529,-2.4536,-2.4476,-2.4382,-2.3975,-2.3227,-2.2579,-2.2071,-2.2064,-2.2256,-2.2531,-2.3782,-2.4682,-2.5262,-2.6447,-2.8109,-2.9715,-2.975,-3.0605,-3.1917,-3.2039,-3.2,-3.2043,-3.2062,-3.1826,-3.1455,-3.1084,-3.0898,-3.0898,-3.0898,-3.0898,-3.0898,-3.0898,-3.0898,-3.0889,-3.085,-3.083,-3.082,-3.0381,-3.0127,-3.0019,-2.9717,-2.9316,-2.8906,-2.8857,-2.8682,-2.8359,-2.8301,-2.8301,-2.8301,-2.8301,-2.8301,-2.8301,-2.8301,-2.8301,-2.8301,-2.8301,-2.8301,-2.8301,-2.8262,-2.8223,-2.8232,-2.8262,-2.8291,-2.8301,-2.8301,-2.8301,-2.8301,-2.8301,-2.8301,-2.8301,-2.8301,-2.8301,-2.8301,-2.8301,-2.8301,-2.8301,-2.8301,-2.8301,-2.8301,-2.8301,-2.8301,-2.8301,-2.8301,-2.833,-2.832,-2.831,-2.831,-2.834,-2.8633,-2.8769,-2.8848,-2.9238,-2.9678,-3.0019,-3.0205,-3.0504,-3.1973,-3.2823,-3.4097,-3.5183,-3.6466,-3.8854,-3.9393,-3.9997,-4.0912,-4.1037,-4.1075,-4.0752,-2.4629,-2.4629,-2.4629,-2.4629,-2.4629,-2.4629,-2.4629,-2.4629,-2.4629,-2.4476,-2.4162,-2.3627,-2.3166,-2.2779,-2.2779,-2.3208,-2.408,-2.4782,-2.5634,-2.6619,-2.7409,-2.805,-2.8687,-2.8759,-2.9551,-3.0934,-3.0997,-3.1442,-3.2075,-3.2168,-3.1943,-3.1553,-3.1338,-3.1143,-3.0918,-3.0898,-3.0898,-3.0898,-3.0898,-3.0898,-3.0898,-3.0898,-3.0898,-3.0869,-3.0703,-3.0469,-3.0215,-3.0029,-2.9746,-2.9346,-2.9307,-2.9101,-2.8691,-2.8662,-2.8545,-2.832,-2.8301,-2.8301,-2.8301,-2.8301,-2.8301,-2.8301,-2.8301,-2.8301,-2.8301,-2.8301,-2.8301,-2.8301,-2.8301,-2.8301,-2.8301,-2.8301,-2.8301,-2.8301,-2.8301,-2.8301,-2.8301,-2.8301,-2.8301,-2.8301,-2.8301,-2.8301,-2.8301,-2.8301,-2.8301,-2.8301,-2.8301,-2.8301,-2.8301,-2.8301,-2.8408,-2.8603,-2.8662,-2.8545,-2.8437,-2.8643,-2.8896,-2.9092,-2.9736,-3.0439,-3.0596,-3.1113,-3.1673,-3.2658,-3.3399,-3.4767,-3.6861,-3.7549,-3.9121,-3.9849,-4.0856,-4.1819,-4.1806,-4.2082,-4.1995,-2.4629,-2.4629,-2.4629,-2.4629,-2.4629,-2.4629,-2.4629,-2.4629,-2.4629,-2.4469,-2.4189,-2.3901,-2.3607,-2.334,-2.324,-2.3811,-2.4738,-2.4783,-2.545,-2.6655,-2.6781,-2.6972,-2.7379,-2.7437,-2.8228,-2.9433,-2.9646,-3.0411,-3.1741,-3.2251,-3.2178,-3.1894,-3.1758,-3.1484,-3.1103,-3.1055,-3.1006,-3.0898,-3.0898,-3.0898,-3.0898,-3.0898,-3.0898,-3.0898,-3.0898,-3.0732,-3.042,-3.0381,-3.0185,-2.9766,-2.9736,-2.9551,-2.9141,-2.9101,-2.8955,-2.8691,-2.8643,-2.8584,-2.8476,-2.8467,-2.8408,-2.832,-2.8379,-2.8457,-2.8486,-2.8584,-2.8643,-2.8672,-2.8643,-2.8613,-2.831,-2.8301,-2.8301,-2.8301,-2.8301,-2.8301,-2.8301,-2.8301,-2.8301,-2.8301,-2.8301,-2.8301,-2.8301,-2.8301,-2.8301,-2.8301,-2.8301,-2.8301,-2.8359,-2.8496,-2.8789,-2.9072,-2.9287,-2.9297,-2.8945,-2.9287,-2.9434,-2.9814,-3.0635,-3.1221,-3.125,-3.1846,-3.226,-3.2605,-3.3544,-3.4295,-3.5302,-3.6749,-3.8965,-4.0507,-4.1496,-4.2045,-4.2329,-4.2735,-4.2886,-2.4629,-2.4629,-2.4629,-2.4616,-2.4623,-2.4609,-2.4542,-2.4569,-2.4603,-2.4456,-2.4162,-2.3881,-2.3601,-2.3313,-2.304,-2.2948,-2.3058,-2.3126,-2.3263,-2.3461,-2.34,-2.406,-2.5577,-2.5644,-2.6565,-2.8097,-2.8221,-2.9193,-3.0911,-3.2171,-3.2764,-3.2695,-3.2324,-3.1924,-3.1543,-3.1465,-3.1279,-3.0976,-3.0908,-3.0898,-3.0898,-3.0898,-3.0898,-3.0898,-3.0898,-3.0869,-3.084,-3.085,-3.0635,-3.0195,-3.0176,-2.998,-2.96,-2.9531,-2.9492,-2.9473,-2.9482,-2.9316,-2.8955,-2.8896,-2.875,-2.8447,-2.8701,-2.8887,-2.8916,-2.9189,-2.9385,-2.9482,-2.946,-2.9131,-2.8516,-2.8457,-2.8408,-2.8389,-2.834,-2.8359,-2.834,-2.8428,-2.831,-2.835,-2.8408,-2.8447,-2.8369,-2.8301,-2.8389,-2.8398,-2.835,-2.8369,-2.8525,-2.9023,-2.9443,-2.9717,-3.0166,-3.0635,-3.0273,-3.0293,-3.0781,-3.1074,-3.1338,-3.2051,-3.2109,-3.2229,-3.2319,-3.2478,-3.2988,-3.3351,-3.3544,-3.5091,-3.7769,-3.9569,-4.0832,-4.157,-4.2624,-4.2886,-4.2986,-2.4629,-2.4616,-2.4429,-2.4356,-2.4342,-2.4168,-2.4088,-2.4082,-2.4082,-2.4028,-2.3888,-2.3621,-2.3427,-2.3307,-2.2999,-2.2866,-2.2866,-2.2866,-2.2866,-2.2866,-2.2866,-2.3263,-2.372,-2.3863,-2.4791,-2.6247,-2.6506,-2.7957,-3.0789,-3.2413,-3.3057,-3.2812,-3.2646,-3.2353,-3.1963,-3.165,-3.1435,-3.1279,-3.1045,-3.0898,-3.0898,-3.0898,-3.0898,-3.0898,-3.0898,-3.0898,-3.0898,-3.0898,-3.081,-3.0644,-3.0635,-3.0439,-3.001,-2.9717,-2.958,-2.958,-2.958,-2.9502,-2.9365,-2.9336,-2.9277,-2.915,-2.9238,-2.9336,-2.9355,-2.9482,-2.958,-2.959,-2.958,-2.9375,-2.9238,-2.9166,-2.9166,-2.9111,-2.9101,-2.9072,-2.9111,-2.9111,-2.9166,-2.9166,-2.9111,-2.9111,-2.9053,-2.9101,-2.9111,-2.9121,-2.9111,-2.9092,-2.9189,-2.9619,-3.0107,-3.042,-3.0898,-3.1435,-3.1914,-3.1435,-3.1396,-3.1641,-3.1963,-3.2373,-3.2568,-3.2783,-3.2943,-3.2914,-3.3066,-3.345,-3.4029,-3.62,-3.8439,-3.9511,-4.0707,-4.1659,-4.2862,-4.2986,-4.2986,-2.4556,-2.4583,-2.4322,-2.4202,-2.4182,-2.4001,-2.3855,-2.3781,-2.3774,-2.3774,-2.3714,-2.346,-2.325,-2.3273,-2.3006,-2.2866,-2.2866,-2.2866,-2.2866,-2.2866,-2.2866,-2.2866,-2.2866,-2.2866,-2.3529,-2.4791,-2.5912,-2.7693,-2.9956,-3.231,-3.3199,-3.3018,-3.2998,-3.2783,-3.2383,-3.207,-3.1836,-3.1533,-3.124,-3.1045,-3.0928,-3.0898,-3.0898,-3.0898,-3.0898,-3.0898,-3.0898,-3.0898,-3.0898,-3.0898,-3.0898,-3.0752,-3.043,-3.0156,-3.0,-3.0,-3.001,-2.9922,-2.9795,-2.9822,-2.9717,-2.9646,-2.9707,-2.9775,-2.9841,-2.9969,-3.0047,-2.999,-3.0,-3.0057,-3.0,-3.0,-2.9939,-2.9714,-2.958,-2.958,-2.958,-2.956,-2.9607,-2.9587,-2.9512,-2.9541,-2.958,-2.956,-2.9541,-2.958,-2.9724,-2.9832,-2.9824,-3.041,-3.0918,-3.1279,-3.1816,-3.2344,-3.2676,-3.2441,-3.2266,-3.2461,-3.2441,-3.2803,-3.2988,-3.3262,-3.3389,-3.3408,-3.3597,-3.408,-3.5396,-3.7484,-3.8805,-3.9826,-4.0719,-4.1545,-4.2388,-4.2986,-4.2986,-2.4369,-2.4549,-2.4315,-2.4168,-2.4155,-2.4102,-2.3988,-2.3728,-2.3708,-2.3745,-2.3614,-2.3414,-2.3273,-2.324,-2.2979,-2.2866,-2.2866,-2.2866,-2.2866,-2.2866,-2.2866,-2.2866,-2.2866,-2.2866,-2.2934,-2.3331,-2.6514,-2.8106,-2.8567,-3.1707,-3.3389,-3.3398,-3.3359,-3.3154,-3.2803,-3.2685,-3.2324,-3.1728,-3.1504,-3.1279,-3.0947,-3.0898,-3.0898,-3.0898,-3.0898,-3.0898,-3.0898,-3.0898,-3.0898,-3.0898,-3.0898,-3.0898,-3.084,-3.0791,-3.084,-3.0781,-3.083,-3.0635,-3.0264,-3.0215,-3.0039,-2.9844,-3.0,-3.0205,-3.0264,-3.0537,-3.0752,-3.0732,-3.0762,-3.081,-3.0781,-3.0762,-3.0478,-2.9766,-2.9792,-2.9736,-2.9687,-2.9629,-2.9609,-2.9678,-2.9726,-2.9619,-2.9609,-2.9717,-2.9775,-2.9824,-3.0049,-3.0293,-3.041,-3.124,-3.2002,-3.2246,-3.2578,-3.3037,-3.3252,-3.3389,-3.3359,-3.333,-3.3223,-3.3291,-3.3252,-3.3408,-3.3398,-3.3418,-3.3418,-3.3839,-3.4798,-3.6771,-3.8022,-3.9053,-4.0175,-4.1602,-4.2388,-4.2986,-4.2986,-2.4068,-2.4295,-2.4022,-2.3908,-2.3881,-2.3694,-2.3434,-2.3229,-2.3146,-2.3209,-2.3126,-2.3046,-2.3006,-2.2993,-2.2899,-2.2866,-2.2866,-2.2866,-2.2866,-2.2866,-2.2866,-2.2866,-2.2866,-2.2866,-2.2866,-2.3461,-2.6514,-2.8172,-2.8755,-3.1643,-3.3418,-3.3418,-3.3355,-3.3359,-3.3203,-3.2939,-3.25,-3.2012,-3.166,-3.1318,-3.0937,-3.0898,-3.0898,-3.0898,-3.0898,-3.0898,-3.0898,-3.0898,-3.0898,-3.0898,-3.0898,-3.0898,-3.0898,-3.0898,-3.0898,-3.0898,-3.0898,-3.085,-3.0713,-3.0664,-3.0605,-3.0518,-3.0605,-3.0664,-3.0674,-3.0791,-3.0898,-3.0898,-3.0898,-3.0898,-3.0898,-3.0898,-3.0732,-3.0508,-3.0488,-3.043,-3.04,-3.0439,-3.0478,-3.0478,-3.0478,-3.0478,-3.0469,-3.0459,-3.0469,-3.0488,-3.082,-3.1094,-3.126,-3.1943,-3.2559,-3.2666,-3.3144,-3.3418,-3.3418,-3.3418,-3.3418,-3.3418,-3.3418,-3.3418,-3.3418,-3.3418,-3.3418,-3.3418,-3.3418,-3.3892,-3.485,-3.6173,-3.7615,-3.9288,-4.1019,-4.2081,-4.275,-4.2862,-4.2625,-2.3774,-2.4001,-2.3728,-2.3607,-2.3594,-2.3394,-2.3146,-2.2886,-2.2866,-2.2866,-2.2866,-2.2866,-2.2866,-2.2866,-2.2866,-2.2866,-2.2866,-2.2866,-2.2866,-2.2866,-2.2866,-2.2866,-2.2866,-2.2866,-2.2866,-2.34,-2.5853,-2.7179,-2.7379,-2.9995,-3.1781,-3.2292,-3.2419,-3.2819,-3.3272,-3.3164,-3.2764,-3.2278,-3.1904,-3.1475,-3.1025,-3.0898,-3.0898,-3.0898,-3.0898,-3.0898,-3.0898,-3.0898,-3.0898,-3.0898,-3.0898,-3.0898,-3.0898,-3.0898,-3.0898,-3.0898,-3.0898,-3.0889,-3.0898,-3.0869,-3.0898,-3.0898,-3.0898,-3.0889,-3.0889,-3.0898,-3.0898,-3.0898,-3.0898,-3.0898,-3.0898,-3.0898,-3.0898,-3.0889,-3.0859,-3.0898,-3.0898,-3.0898,-3.0879,-3.0869,-3.0996,-3.1035,-3.0947,-3.125,-3.125,-3.125,-3.1621,-3.1992,-3.2129,-3.2578,-3.2851,-3.3047,-3.3242,-3.3389,-3.3408,-3.3418,-3.3418,-3.3418,-3.3418,-3.3418,-3.3418,-3.3418,-3.3418,-3.3418,-3.3418,-3.4133,-3.5098,-3.6781,-3.8331,-4.0129,-4.1431,-4.1968,-4.2319,-4.2012,-4.1899,-2.3494,-2.3701,-2.3474,-2.3374,-2.3354,-2.3327,-2.3153,-2.2961,-2.2866,-2.2866,-2.2866,-2.2866,-2.2866,-2.2866,-2.2866,-2.2866,-2.2866,-2.2866,-2.2866,-2.2866,-2.2866,-2.2866,-2.2866,-2.2866,-2.2866,-2.3195,-2.4791,-2.5644,-2.5979,-2.8089,-2.9148,-3.09,-3.1368,-3.1835,-3.3146,-3.3408,-3.2998,-3.2353,-3.2178,-3.1728,-3.1016,-3.0898,-3.0898,-3.0898,-3.0898,-3.0898,-3.0898,-3.0898,-3.0898,-3.0898,-3.0898,-3.0898,-3.0898,-3.0898,-3.0898,-3.0898,-3.0898,-3.0898,-3.0898,-3.0898,-3.0898,-3.0898,-3.0898,-3.0898,-3.0898,-3.0898,-3.0898,-3.0898,-3.0898,-3.0898,-3.0898,-3.0898,-3.0898,-3.0898,-3.0898,-3.0898,-3.0898,-3.0898,-3.0928,-3.1016,-3.125,-3.1406,-3.1113,-3.1689,-3.1797,-3.1807,-3.2187,-3.2529,-3.2725,-3.2949,-3.3301,-3.3398,-3.3379,-3.3389,-3.3418,-3.3418,-3.3418,-3.3418,-3.3418,-3.3418,-3.3418,-3.3418,-3.3418,-3.3418,-3.3471,-3.431,-3.5396,-3.6831,-3.8212,-3.9522,-4.0534,-4.1305,-4.1305,-4.0765,-4.1064,-2.3374,-2.3454,-2.3594,-2.3527,-2.334,-2.325,-2.3146,-2.2886,-2.2866,-2.2866,-2.2866,-2.2866,-2.2866,-2.2866,-2.2866,-2.2866,-2.2866,-2.2866,-2.2866,-2.2866,-2.2866,-2.2866,-2.2866,-2.2866,-2.2866,-2.3126,-2.452,-2.551,-2.5778,-2.8279,-3.0051,-3.0836,-3.1899,-3.2756,-3.3355,-3.3418,-3.3144,-3.2656,-3.2295,-3.1914,-3.1406,-3.1025,-3.0898,-3.0898,-3.0898,-3.0898,-3.0898,-3.0898,-3.0898,-3.0898,-3.0898,-3.0898,-3.0898,-3.0898,-3.0898,-3.0898,-3.0898,-3.0898,-3.0898,-3.0898,-3.0898,-3.0898,-3.0898,-3.0898,-3.0898,-3.0898,-3.0898,-3.0898,-3.0898,-3.0898,-3.0898,-3.0898,-3.0898,-3.0898,-3.0898,-3.0898,-3.0898,-3.0898,-3.0996,-3.1299,-3.1455,-3.1611,-3.1787,-3.2002,-3.2178,-3.2139,-3.2432,-3.2842,-3.2959,-3.3135,-3.3418,-3.3418,-3.3408,-3.3408,-3.3418,-3.3418,-3.3418,-3.3418,-3.3418,-3.3418,-3.3418,-3.3418,-3.3418,-3.3418,-3.3418,-3.3955,-3.4974,-3.6234,-3.7544,-3.8864,-3.8982,-3.9335,-3.9229,-3.8935,-3.9756,-2.325,-2.334,-2.3514,-2.3407,-2.3146,-2.3133,-2.3026,-2.2886,-2.2866,-2.2866,-2.2866,-2.2866,-2.2866,-2.2866,-2.2866,-2.2866,-2.2866,-2.2866,-2.2866,-2.2866,-2.2866,-2.2866,-2.2866,-2.2866,-2.2866,-2.2996,-2.3924,-2.4324,-2.4783,-2.7288,-2.8804,-2.9856,-3.1442,-3.2629,-3.3355,-3.3408,-3.3223,-3.2793,-3.2373,-3.1963,-3.1533,-3.1113,-3.0928,-3.0898,-3.0898,-3.0898,-3.0898,-3.0898,-3.0898,-3.0898,-3.0898,-3.0898,-3.0898,-3.0898,-3.0898,-3.0898,-3.0898,-3.0898,-3.0898,-3.0898,-3.0898,-3.0898,-3.0898,-3.0898,-3.0898,-3.0898,-3.0898,-3.0898,-3.0898,-3.0898,-3.0898,-3.0898,-3.0898,-3.0898,-3.0898,-3.0898,-3.0898,-3.1064,-3.124,-3.1514,-3.1826,-3.2041,-3.2278,-3.2451,-3.2549,-3.2568,-3.2803,-3.3008,-3.3125,-3.3301,-3.3418,-3.3418,-3.3418,-3.3418,-3.3418,-3.3418,-3.3418,-3.3418,-3.3418,-3.3418,-3.3418,-3.3418,-3.3418,-3.3418,-3.3418,-3.3713,-3.4788,-3.5806,-3.6892,-3.7615,-3.7435,-3.7495,-3.7686,-3.7265,-3.8153,-2.3307,-2.328,-2.3313,-2.3146,-2.2899,-2.2866,-2.2886,-2.2866,-2.2866,-2.2866,-2.2866,-2.2866,-2.2866,-2.2866,-2.2866,-2.2866,-2.2866,-2.2866,-2.2866,-2.2866,-2.2866,-2.2866,-2.2866,-2.2866,-2.2866,-2.2928,-2.2866,-2.3065,-2.3795,-2.5188,-2.6773,-2.8681,-3.0319,-3.1899,-3.3155,-3.3418,-3.3213,-3.2881,-3.2412,-3.2021,-3.1621,-3.1182,-3.0908,-3.0898,-3.0898,-3.0898,-3.0898,-3.0898,-3.0898,-3.0898,-3.0898,-3.0898,-3.0898,-3.0898,-3.0898,-3.0898,-3.0898,-3.0898,-3.0898,-3.0898,-3.0898,-3.0898,-3.0898,-3.0898,-3.0898,-3.0898,-3.0898,-3.0898,-3.0898,-3.0898,-3.0898,-3.0898,-3.0898,-3.0898,-3.0898,-3.0898,-3.0967,-3.123,-3.1484,-3.1611,-3.2295,-3.2451,-3.2627,-3.2851,-3.3271,-3.292,-3.3125,-3.3203,-3.3262,-3.335,-3.3418,-3.3418,-3.3418,-3.3418,-3.3418,-3.3418,-3.3418,-3.3418,-3.3418,-3.3418,-3.3418,-3.3418,-3.3418,-3.3418,-3.3418,-3.3829,-3.4674,-3.5632,-3.6234,-3.6173,-3.5878,-3.6417,-3.6902,-3.5939,-3.6112,-2.3187,-2.2979,-2.3227,-2.3146,-2.2893,-2.2866,-2.2866,-2.2866,-2.2866,-2.2866,-2.2866,-2.2866,-2.2866,-2.2866,-2.2866,-2.2866,-2.2866,-2.2866,-2.2866,-2.2866,-2.2866,-2.2866,-2.2866,-2.2866,-2.2866,-2.2866,-2.2866,-2.2866,-2.3529,-2.5651,-2.7768,-2.8427,-3.0918,-3.2956,-3.3282,-3.3408,-3.3389,-3.3164,-3.2559,-3.2119,-3.1846,-3.125,-3.0898,-3.0898,-3.0898,-3.0898,-3.0898,-3.0898,-3.0898,-3.0898,-3.0898,-3.0898,-3.0898,-3.0898,-3.0898,-3.0898,-3.0898,-3.0898,-3.0898,-3.0898,-3.0898,-3.0898,-3.0898,-3.0898,-3.0898,-3.0898,-3.0898,-3.0898,-3.0898,-3.0898,-3.0898,-3.0898,-3.0898,-3.0898,-3.0898,-3.0898,-3.0908,-3.0996,-3.1387,-3.1875,-3.2217,-3.2519,-3.3047,-3.3164,-3.3359,-3.3301,-3.333,-3.3398,-3.3418,-3.3418,-3.3418,-3.3418,-3.3418,-3.3418,-3.3418,-3.3418,-3.3418,-3.3418,-3.3418,-3.3418,-3.3418,-3.3418,-3.3418,-3.3418,-3.3418,-3.3892,-3.4435,-3.4195,-3.4622,-3.4435,-3.4435,-3.4798,-3.4974,-3.431,-3.4726,-2.344,-2.3293,-2.3313,-2.3146,-2.2886,-2.2866,-2.2866,-2.2866,-2.2866,-2.2866,-2.2866,-2.2866,-2.2866,-2.2866,-2.2866,-2.2866,-2.2866,-2.2866,-2.2866,-2.2866,-2.2866,-2.2866,-2.2866,-2.2866,-2.2866,-2.2866,-2.2866,-2.2866,-2.3665,-2.5525,-2.7238,-2.8295,-3.0992,-3.2428,-3.3282,-3.3408,-3.3291,-3.3027,-3.2519,-3.209,-3.1777,-3.125,-3.0898,-3.0898,-3.0898,-3.0898,-3.0898,-3.0898,-3.0898,-3.0898,-3.0898,-3.0898,-3.0898,-3.0898,-3.0898,-3.0898,-3.0898,-3.0898,-3.0898,-3.0898,-3.0898,-3.0898,-3.0898,-3.0898,-3.0898,-3.0898,-3.0898,-3.0898,-3.0898,-3.0898,-3.0898,-3.0898,-3.0898,-3.0898,-3.0898,-3.0898,-3.0947,-3.123,-3.1611,-3.2158,-3.2549,-3.292,-3.3271,-3.3389,-3.3408,-3.335,-3.335,-3.3418,-3.3418,-3.3418,-3.3418,-3.3418,-3.3418,-3.3418,-3.3418,-3.3418,-3.3418,-3.3418,-3.3418,-3.3418,-3.3418,-3.3418,-3.3418,-3.3418,-3.3418,-3.3418,-3.3713,-3.3418,-3.3418,-3.365,-3.3776,-3.3471,-3.3471,-3.3713,-3.4487,-2.3701,-2.3674,-2.338,-2.31,-2.2886,-2.2866,-2.2866,-2.2866,-2.2866,-2.2866,-2.2866,-2.2866,-2.2866,-2.2866,-2.2866,-2.2866,-2.2866,-2.2866,-2.2866,-2.2866,-2.2866,-2.2866,-2.2866,-2.2866,-2.2866,-2.2866,-2.2866,-2.2866,-2.3393,-2.4918,-2.7113,-2.8427,-3.0384,-3.2164,-3.3219,-3.3398,-3.3232,-3.2851,-3.2412,-3.1963,-3.1572,-3.1133,-3.0908,-3.0898,-3.0898,-3.0898,-3.0898,-3.0898,-3.0898,-3.0898,-3.0898,-3.0898,-3.0898,-3.0898,-3.0898,-3.0898,-3.0898,-3.0898,-3.0898,-3.0898,-3.0898,-3.0898,-3.0898,-3.0898,-3.0898,-3.0898,-3.0898,-3.0898,-3.0898,-3.0898,-3.0898,-3.0898,-3.0898,-3.0898,-3.0898,-3.0898,-3.1035,-3.1601,-3.1924,-3.2268,-3.25,-3.2851,-3.3213,-3.3418,-3.3418,-3.3418,-3.3418,-3.3418,-3.3418,-3.3418,-3.3418,-3.3418,-3.3418,-3.3418,-3.3418,-3.3418,-3.3418,-3.3418,-3.3418,-3.3418,-3.3418,-3.3418,-3.3418,-3.3418,-3.3418,-3.3418,-3.3418,-3.3418,-3.3418,-3.3418,-3.3418,-3.3418,-3.3418,-3.3418,-3.4195,-2.34,-2.3374,-2.3066,-2.2975,-2.2873,-2.2866,-2.2866,-2.2866,-2.2866,-2.2866,-2.2866,-2.2866,-2.2866,-2.2866,-2.2866,-2.2866,-2.2866,-2.2866,-2.2866,-2.2866,-2.2866,-2.2866,-2.2866,-2.2866,-2.2866,-2.2866,-2.2866,-2.2866,-2.3665,-2.5987,-2.7379,-2.8698,-3.112,-3.2956,-3.3219,-3.3389,-3.3193,-3.2734,-3.2353,-3.1943,-3.1465,-3.1113,-3.0898,-3.0898,-3.0898,-3.0898,-3.0898,-3.0898,-3.0898,-3.0898,-3.0898,-3.0898,-3.0898,-3.0898,-3.0898,-3.0898,-3.0898,-3.0898,-3.0898,-3.0898,-3.0898,-3.0898,-3.0898,-3.0898,-3.0898,-3.0898,-3.0898,-3.0898,-3.0898,-3.0898,-3.0898,-3.0898,-3.0898,-3.0898,-3.0898,-3.0898,-3.0996,-3.1309,-3.1816,-3.2139,-3.2402,-3.2715,-3.3125,-3.3418,-3.3418,-3.3418,-3.3418,-3.3418,-3.3418,-3.3418,-3.3418,-3.3418,-3.3418,-3.3418,-3.3418,-3.3418,-3.3418,-3.3418,-3.3418,-3.3418,-3.3418,-3.3418,-3.3418,-3.3418,-3.3418,-3.3418,-3.3418,-3.3418,-3.3418,-3.3418,-3.3418,-3.3418,-3.3418,-3.3418,-3.3418,-2.3561,-2.3507,-2.306,-2.2866,-2.2866,-2.2866,-2.2866,-2.2866,-2.2866,-2.2866,-2.2866,-2.2866,-2.2866,-2.2866,-2.2866,-2.2866,-2.2866,-2.2866,-2.2866,-2.2866,-2.2866,-2.2866,-2.2866,-2.2866,-2.2866,-2.2866,-2.2866,-2.2866,-2.3133,-2.5383,-2.7312,-2.8632,-3.0854,-3.2428,-3.3228,-3.3408,-3.3047,-3.2588,-3.2246,-3.1836,-3.1269,-3.0967,-3.0908,-3.0898,-3.0898,-3.0898,-3.0898,-3.0898,-3.0898,-3.0898,-3.0898,-3.0898,-3.0898,-3.0898,-3.0898,-3.0898,-3.0898,-3.0898,-3.0898,-3.0898,-3.0898,-3.0898,-3.0898,-3.0898,-3.0898,-3.0898,-3.0898,-3.0898,-3.0898,-3.0898,-3.0898,-3.0898,-3.0898,-3.0898,-3.0898,-3.0898,-3.0937,-3.1103,-3.1553,-3.209,-3.2471,-3.2842,-3.3232,-3.3418,-3.3418,-3.3418,-3.3418,-3.3418,-3.3418,-3.3418,-3.3418,-3.3418,-3.3418,-3.3418,-3.3418,-3.3418,-3.3418,-3.3418,-3.3418,-3.3418,-3.3418,-3.3418,-3.3418,-3.3418,-3.3418,-3.3418,-3.3418,-3.3418,-3.3418,-3.3418,-3.3418,-3.3418,-3.3418,-3.3418,-3.3418,-2.3774,-2.3714,-2.3113,-2.2866,-2.2866,-2.2866,-2.2866,-2.2866,-2.2866,-2.2866,-2.2866,-2.2866,-2.2866,-2.2866,-2.2866,-2.2866,-2.2866,-2.2866,-2.2866,-2.2866,-2.2866,-2.2866,-2.2866,-2.2866,-2.2866,-2.2866,-2.2866,-2.2866,-2.3331,-2.539,-2.6906,-2.8558,-3.0189,-3.189,-3.3155,-3.3291,-3.2822,-3.2402,-3.2041,-3.1611,-3.1084,-3.0898,-3.0898,-3.0898,-3.0898,-3.0898,-3.0898,-3.0898,-3.0898,-3.0898,-3.0898,-3.0898,-3.0898,-3.0898,-3.0898,-3.0898,-3.0898,-3.0898,-3.0898,-3.0898,-3.0898,-3.0898,-3.0898,-3.0898,-3.0898,-3.0898,-3.0898,-3.0898,-3.0898,-3.0898,-3.0898,-3.0898,-3.0898,-3.0898,-3.0898,-3.0898,-3.0937,-3.1123,-3.1514,-3.2021,-3.251,-3.2939,-3.331,-3.3418,-3.3418,-3.3418,-3.3418,-3.3418,-3.3418,-3.3418,-3.3418,-3.3418,-3.3418,-3.3418,-3.3418,-3.3418,-3.3418,-3.3418,-3.3418,-3.3418,-3.3418,-3.3418,-3.3418,-3.3418,-3.3418,-3.3418,-3.3418,-3.3418,-3.3418,-3.3418,-3.3418,-3.3418,-3.3418,-3.3418,-3.3418,-2.3774,-2.3714,-2.3113,-2.2866,-2.2866,-2.2866,-2.2866,-2.2866,-2.2866,-2.2866,-2.2866,-2.2866,-2.2866,-2.2866,-2.2866,-2.2866,-2.2866,-2.2866,-2.2866,-2.2866,-2.2866,-2.2866,-2.2866,-2.2866,-2.2866,-2.2866,-2.2866,-2.2866,-2.3795,-2.6254,-2.7776,-2.8755,-3.1176,-3.3219,-3.3262,-3.3125,-3.2637,-3.2187,-3.1797,-3.1367,-3.0986,-3.0898,-3.0898,-3.0898,-3.0898,-3.0898,-3.0898,-3.0898,-3.0898,-3.0898,-3.0898,-3.0898,-3.0898,-3.0898,-3.0898,-3.0898,-3.0898,-3.0898,-3.0898,-3.0898,-3.0898,-3.0898,-3.0898,-3.0898,-3.0898,-3.0898,-3.0898,-3.0898,-3.0898,-3.0898,-3.0898,-3.0898,-3.0898,-3.0898,-3.0898,-3.0898,-3.0918,-3.1025,-3.1435,-3.1963,-3.2451,-3.292,-3.333,-3.3379,-3.3418,-3.3418,-3.3418,-3.3418,-3.3418,-3.3418,-3.3418,-3.3418,-3.3418,-3.3418,-3.3418,-3.3418,-3.3418,-3.3418,-3.3418,-3.3418,-3.3418,-3.3418,-3.3418,-3.3418,-3.3418,-3.3418,-3.3418,-3.3418,-3.3418,-3.3418,-3.3418,-3.3418,-3.3418,-3.3418,-3.3418,-2.3521,-2.348,-2.3046,-2.2866,-2.2866,-2.2866,-2.2866,-2.2866,-2.2866,-2.2866,-2.2866,-2.2866,-2.2866,-2.2866,-2.2866,-2.2866,-2.2866,-2.2866,-2.2866,-2.2866,-2.2866,-2.2866,-2.2866,-2.2866,-2.2866,-2.2866,-2.3065,-2.3659,-2.4858,-2.6581,-2.8238,-2.8821,-3.1506,-3.3345,-3.333,-3.2998,-3.2598,-3.2109,-3.1562,-3.1103,-3.0937,-3.0898,-3.0898,-3.0898,-3.0898,-3.0898,-3.0898,-3.0898,-3.0898,-3.0898,-3.0898,-3.0898,-3.0898,-3.0898,-3.0898,-3.0898,-3.0898,-3.0898,-3.0898,-3.0898,-3.0898,-3.0898,-3.0898,-3.0898,-3.0898,-3.0898,-3.0898,-3.0898,-3.0898,-3.0898,-3.0898,-3.0898,-3.0898,-3.0898,-3.0898,-3.0898,-3.0918,-3.1025,-3.1299,-3.1846,-3.2393,-3.2861,-3.3271,-3.3379,-3.3418,-3.3418,-3.3418,-3.3418,-3.3418,-3.3418,-3.3418,-3.3418,-3.3418,-3.3418,-3.3418,-3.3418,-3.3418,-3.3418,-3.3418,-3.3418,-3.3418,-3.3418,-3.3418,-3.3418,-3.3418,-3.3418,-3.3418,-3.3418,-3.3418,-3.3418,-3.3418,-3.3418,-3.3418,-3.3418,-3.3418,-2.328,-2.3187,-2.2959,-2.2866,-2.2866,-2.2866,-2.2866,-2.2866,-2.2866,-2.2866,-2.2866,-2.2866,-2.2866,-2.2866,-2.2866,-2.2866,-2.2866,-2.2866,-2.2866,-2.2866,-2.2866,-2.2866,-2.2866,-2.2866,-2.2866,-2.2866,-2.2866,-2.3795,-2.545,-2.7172,-2.8427,-2.8952,-3.1899,-3.3131,-3.3164,-3.2793,-3.2334,-3.1779,-3.1211,-3.0947,-3.0898,-3.0898,-3.0898,-3.0898,-3.0898,-3.0898,-3.0898,-3.0898,-3.0898,-3.0898,-3.0898,-3.0898,-3.0898,-3.0898,-3.0898,-3.0898,-3.0898,-3.0898,-3.0898,-3.0898,-3.0898,-3.0898,-3.0898,-3.0898,-3.0898,-3.0898,-3.0898,-3.0898,-3.0898,-3.0898,-3.0898,-3.0898,-3.0898,-3.0898,-3.0898,-3.0898,-3.0928,-3.1074,-3.1367,-3.1943,-3.2441,-3.2822,-3.3164,-3.335,-3.3418,-3.3418,-3.3418,-3.3418,-3.3418,-3.3418,-3.3418,-3.3418,-3.3418,-3.3418,-3.3418,-3.3418,-3.3418,-3.3418,-3.3418,-3.3418,-3.3418,-3.3418,-3.3418,-3.3418,-3.3418,-3.3418,-3.3418,-3.3418,-3.3418,-3.3418,-3.3418,-3.3418,-3.3418,-3.3418,-3.3418,-2.3153,-2.2893,-2.2873,-2.2866,-2.2866,-2.2866,-2.2866,-2.2866,-2.2866,-2.2866,-2.2866,-2.2866,-2.2866,-2.2866,-2.2866,-2.2866,-2.2866,-2.2866,-2.2866,-2.2866,-2.2866,-2.2866,-2.2866,-2.2866,-2.2866,-2.2928,-2.3195,-2.4188,-2.5644,-2.7759,-2.9205,-3.0707,-3.2492,-3.2913,-3.2851,-3.2461,-3.1846,-3.1318,-3.0937,-3.0908,-3.0898,-3.0898,-3.0898,-3.0898,-3.0898,-3.0898,-3.0898,-3.0898,-3.0898,-3.0898,-3.0898,-3.0898,-3.0898,-3.0898,-3.0898,-3.0898,-3.0898,-3.0898,-3.0898,-3.0898,-3.0898,-3.0898,-3.0898,-3.0898,-3.0898,-3.0898,-3.0898,-3.0898,-3.0898,-3.0898,-3.0898,-3.0898,-3.0898,-3.0898,-3.0898,-3.0898,-3.0976,-3.1172,-3.1504,-3.206,-3.2451,-3.2744,-3.3096,-3.3291,-3.3408,-3.3418,-3.3418,-3.3418,-3.3418,-3.3418,-3.3418,-3.3418,-3.3418,-3.3418,-3.3418,-3.3418,-3.3418,-3.3418,-3.3418,-3.3418,-3.3418,-3.3418,-3.3418,-3.3418,-3.3418,-3.3418,-3.3418,-3.3418,-3.3418,-3.3418,-3.3418,-3.3418,-3.3418,-3.3418,-3.3418,-2.2973,-2.2866,-2.2866,-2.2866,-2.2866,-2.2866,-2.2866,-2.2866,-2.2866,-2.2866,-2.2866,-2.2866,-2.2866,-2.2866,-2.2866,-2.2866,-2.2866,-2.2866,-2.2866,-2.2866,-2.2866,-2.2866,-2.2866,-2.2866,-2.2866,-2.3133,-2.3856,-2.545,-2.7238,-2.8747,-3.0651,-3.2228,-3.3073,-3.3019,-3.2754,-3.2109,-3.1465,-3.1094,-3.0898,-3.0898,-3.0898,-3.0898,-3.0898,-3.0898,-3.0898,-3.0898,-3.0898,-3.0898,-3.0898,-3.0898,-3.0898,-3.0898,-3.0898,-3.0898,-3.0898,-3.0898,-3.0898,-3.0898,-3.0898,-3.0898,-3.0898,-3.0898,-3.0898,-3.0898,-3.0898,-3.0898,-3.0898,-3.0898,-3.0898,-3.0898,-3.0898,-3.0898,-3.0898,-3.0898,-3.0898,-3.0898,-3.0967,-3.1143,-3.1387,-3.1826,-3.2187,-3.251,-3.2881,-3.3242,-3.334,-3.3418,-3.3418,-3.3418,-3.3418,-3.3418,-3.3418,-3.3418,-3.3418,-3.3418,-3.3418,-3.3418,-3.3418,-3.3418,-3.3418,-3.3418,-3.3418,-3.3418,-3.3418,-3.3418,-3.3418,-3.3418,-3.3418,-3.3418,-3.3418,-3.3418,-3.3418,-3.3418,-3.3418,-3.3418,-3.3418,-2.2866,-2.2866,-2.2866,-2.2866,-2.2866,-2.2866,-2.2866,-2.2866,-2.2866,-2.2866,-2.2866,-2.2866,-2.2866,-2.2866,-2.2866,-2.2866,-2.2866,-2.2866,-2.2866,-2.2866,-2.2866,-2.2866,-2.2866,-2.2866,-2.2928,-2.3331,-2.4655,-2.6306,-2.804,-2.9921,-3.157,-3.2727,-3.3271,-3.2969,-3.248,-3.1787,-3.1182,-3.0967,-3.0898,-3.0898,-3.0898,-3.0898,-3.0898,-3.0898,-3.0898,-3.0898,-3.0898,-3.0898,-3.0898,-3.0898,-3.0898,-3.0898,-3.0898,-3.0898,-3.0898,-3.0898,-3.0898,-3.0898,-3.0898,-3.0898,-3.0898,-3.0898,-3.0898,-3.0898,-3.0898,-3.0898,-3.0898,-3.0898,-3.0898,-3.0898,-3.0898,-3.0898,-3.0898,-3.0898,-3.0898,-3.0898,-3.0898,-3.1016,-3.125,-3.1543,-3.1865,-3.2148,-3.2559,-3.293,-3.3223,-3.333,-3.3418,-3.3418,-3.3418,-3.3418,-3.3418,-3.3418,-3.3418,-3.3418,-3.3418,-3.3418,-3.3418,-3.3418,-3.3418,-3.3418,-3.3418,-3.3418,-3.3418,-3.3418,-3.3418,-3.3418,-3.3418,-3.3418,-3.3418,-3.3418,-3.3418,-3.3418,-3.3418,-3.3418,-3.3418,-2.2866,-2.2866,-2.2866,-2.2866,-2.2866,-2.2866,-2.2866,-2.2866,-2.2866,-2.2866,-2.2866,-2.2866,-2.2866,-2.2866,-2.2866,-2.2866,-2.2866,-2.2866,-2.2866,-2.2866,-2.2866,-2.2866,-2.2866,-2.2866,-2.2934,-2.3324,-2.4986,-2.6906,-2.8238,-3.0384,-3.1963,-3.2734,-3.29,-3.2539,-3.2129,-3.1338,-3.0928,-3.0898,-3.0898,-3.0898,-3.0898,-3.0898,-3.0898,-3.0898,-3.0986,-3.1016,-3.1025,-3.1025,-3.1025,-3.1016,-3.0928,-3.0898,-3.0898,-3.0898,-3.0898,-3.0898,-3.0898,-3.0898,-3.0898,-3.0898,-3.0898,-3.0898,-3.0898,-3.0898,-3.0898,-3.0898,-3.0898,-3.0898,-3.0898,-3.0898,-3.0898,-3.0898,-3.0898,-3.0898,-3.0898,-3.0898,-3.0898,-3.0898,-3.1133,-3.1309,-3.1475,-3.1719,-3.2158,-3.2578,-3.2978,-3.3213,-3.3359,-3.3418,-3.3418,-3.3418,-3.3418,-3.3418,-3.3418,-3.3418,-3.3418,-3.3418,-3.3418,-3.3418,-3.3418,-3.3418,-3.3418,-3.3418,-3.3418,-3.3418,-3.3418,-3.3418,-3.3418,-3.3418,-3.3418,-3.3418,-3.3418,-3.3418,-3.3418,-3.3418,-3.3418,-2.2866,-2.2866,-2.2866,-2.2866,-2.2866,-2.2866,-2.2866,-2.2866,-2.2866,-2.2866,-2.2866,-2.2866,-2.2866,-2.2866,-2.2866,-2.2866,-2.2866,-2.2866,-2.2866,-2.2866,-2.2866,-2.2866,-2.2866,-2.2866,-2.2928,-2.3727,-2.5517,-2.737,-2.8238,-3.0854,-3.2229,-3.2887,-3.2393,-3.1914,-3.1631,-3.1162,-3.0898,-3.0898,-3.0898,-3.0898,-3.0898,-3.0898,-3.0918,-3.0937,-3.1162,-3.1299,-3.1309,-3.1309,-3.1309,-3.126,-3.1162,-3.0986,-3.0947,-3.0937,-3.0908,-3.0898,-3.0898,-3.0898,-3.0898,-3.0898,-3.0898,-3.0898,-3.0898,-3.0898,-3.0898,-3.0898,-3.0898,-3.0898,-3.0898,-3.0898,-3.0898,-3.0898,-3.0898,-3.0898,-3.0898,-3.0898,-3.0898,-3.0898,-3.0996,-3.1123,-3.1279,-3.165,-3.206,-3.2393,-3.2773,-3.3086,-3.3262,-3.3389,-3.3418,-3.3418,-3.3418,-3.3418,-3.3418,-3.3418,-3.3418,-3.3418,-3.3418,-3.3418,-3.3418,-3.3418,-3.3418,-3.3418,-3.3418,-3.3418,-3.3418,-3.3418,-3.3418,-3.3418,-3.3418,-3.3418,-3.3418,-3.3418,-3.3418,-3.3418,-3.3418,-2.2866,-2.2866,-2.2866,-2.2866,-2.2866,-2.2866,-2.2866,-2.2866,-2.2866,-2.2866,-2.2866,-2.2866,-2.2866,-2.2866,-2.2866,-2.2866,-2.2866,-2.2866,-2.2866,-2.2866,-2.2866,-2.2866,-2.2866,-2.2996,-2.3461,-2.4392,-2.6447,-2.8369,-2.9344,-3.1982,-3.2908,-3.2529,-3.1875,-3.1543,-3.1279,-3.1016,-3.0898,-3.0898,-3.0898,-3.0898,-3.0947,-3.1016,-3.1123,-3.125,-3.1475,-3.1748,-3.1748,-3.1748,-3.1748,-3.165,-3.1494,-3.124,-3.1172,-3.1103,-3.1035,-3.0957,-3.0898,-3.0898,-3.0898,-3.0898,-3.0898,-3.0898,-3.0898,-3.0898,-3.0898,-3.0898,-3.0898,-3.0898,-3.0898,-3.0898,-3.0898,-3.0898,-3.0898,-3.0898,-3.0898,-3.0898,-3.0898,-3.0898,-3.0908,-3.1025,-3.1103,-3.1514,-3.1894,-3.2266,-3.2598,-3.2881,-3.3154,-3.3291,-3.3418,-3.3418,-3.3418,-3.3418,-3.3418,-3.3418,-3.3418,-3.3418,-3.3418,-3.3418,-3.3418,-3.3418,-3.3418,-3.3418,-3.3418,-3.3418,-3.3418,-3.3418,-3.3418,-3.3418,-3.3418,-3.3418,-3.3418,-3.3418,-3.3418,-3.3418,-3.3418,-2.2866,-2.2866,-2.2866,-2.2866,-2.2866,-2.2866,-2.2866,-2.2866,-2.2866,-2.2866,-2.2866,-2.2866,-2.2866,-2.2866,-2.2866,-2.2866,-2.2866,-2.2866,-2.2866,-2.2866,-2.2866,-2.2866,-2.2866,-2.2928,-2.3461,-2.5256,-2.7179,-2.8821,-3.0578,-3.2254,-3.2711,-3.2217,-3.1641,-3.1289,-3.1035,-3.0937,-3.0898,-3.0898,-3.0898,-3.0947,-3.1055,-3.1269,-3.1426,-3.1621,-3.1934,-3.2139,-3.2178,-3.2187,-3.2187,-3.2158,-3.2109,-3.1865,-3.168,-3.1474,-3.126,-3.1025,-3.0908,-3.0967,-3.0898,-3.0898,-3.0898,-3.0898,-3.0898,-3.0898,-3.0898,-3.0898,-3.0898,-3.0898,-3.0898,-3.0898,-3.0898,-3.0898,-3.0898,-3.0898,-3.0898,-3.0898,-3.0898,-3.0898,-3.0898,-3.0928,-3.0928,-3.1191,-3.1504,-3.1885,-3.2451,-3.2685,-3.2988,-3.331,-3.3418,-3.3418,-3.3418,-3.3418,-3.3418,-3.3418,-3.3418,-3.3418,-3.3418,-3.3418,-3.3418,-3.3418,-3.3418,-3.3418,-3.3418,-3.3418,-3.3418,-3.3418,-3.3418,-3.3418,-3.3418,-3.3418,-3.3418,-3.3418,-3.3418,-3.3418,-3.3418,-2.2866,-2.2866,-2.2866,-2.2866,-2.2866,-2.2866,-2.2866,-2.2866,-2.2866,-2.2866,-2.2866,-2.2866,-2.2866,-2.2866,-2.2866,-2.2866,-2.2866,-2.2866,-2.2866,-2.2866,-2.2866,-2.2866,-2.2866,-2.2928,-2.3331,-2.4663,-2.6581,-2.8664,-2.9513,-3.1397,-3.2324,-3.1719,-3.1338,-3.1045,-3.0976,-3.0908,-3.0937,-3.0967,-3.0986,-3.1113,-3.1289,-3.1523,-3.1738,-3.2021,-3.2402,-3.2578,-3.2617,-3.2617,-3.2627,-3.2607,-3.2324,-3.207,-3.2021,-3.1699,-3.1338,-3.0996,-3.1084,-3.124,-3.0967,-3.0898,-3.0928,-3.0937,-3.0908,-3.0898,-3.0898,-3.0898,-3.0898,-3.0898,-3.0898,-3.0898,-3.0898,-3.0898,-3.0898,-3.0898,-3.0898,-3.0898,-3.0898,-3.0898,-3.0898,-3.0898,-3.0898,-3.0947,-3.125,-3.1816,-3.2344,-3.2539,-3.2832,-3.3213,-3.3418,-3.3418,-3.3418,-3.3418,-3.3418,-3.3418,-3.3418,-3.3418,-3.3418,-3.3418,-3.3418,-3.3418,-3.3418,-3.3418,-3.3418,-3.3418,-3.3418,-3.3418,-3.3418,-3.3418,-3.3418,-3.3418,-3.3418,-3.3418,-3.3418,-3.3418,-3.3418,-2.2866,-2.2866,-2.2866,-2.2866,-2.2866,-2.2866,-2.2866,-2.2866,-2.2866,-2.2866,-2.2866,-2.2866,-2.2866,-2.2866,-2.2866,-2.2866,-2.2866,-2.2866,-2.2866,-2.2866,-2.2866,-2.2866,-2.2866,-2.3065,-2.4067,-2.5263,-2.6949,-2.9062,-2.9844,-3.0723,-3.1728,-3.1543,-3.1094,-3.1055,-3.1113,-3.1211,-3.1299,-3.1318,-3.1348,-3.1445,-3.1641,-3.1904,-3.2197,-3.2422,-3.2822,-3.2978,-3.3027,-3.3027,-3.3027,-3.3037,-3.2725,-3.2568,-3.2422,-3.2012,-3.1758,-3.1504,-3.1601,-3.166,-3.1494,-3.125,-3.1182,-3.1084,-3.0986,-3.0898,-3.0898,-3.0898,-3.0898,-3.0898,-3.0898,-3.0898,-3.0898,-3.0898,-3.0898,-3.0898,-3.0898,-3.0898,-3.0898,-3.0898,-3.0898,-3.0898,-3.0898,-3.0898,-3.123,-3.1807,-3.2236,-3.2432,-3.2793,-3.3262,-3.3418,-3.3418,-3.3418,-3.3418,-3.3418,-3.3418,-3.3418,-3.3418,-3.3418,-3.3418,-3.3418,-3.3418,-3.3418,-3.3418,-3.3418,-3.3418,-3.3418,-3.3418,-3.3418,-3.3418,-3.3418,-3.3418,-3.3418,-3.3418,-3.3418,-3.3418,-3.3418,-2.2866,-2.2866,-2.2866,-2.2866,-2.2866,-2.2866,-2.2866,-2.2866,-2.2866,-2.2866,-2.2866,-2.2866,-2.2866,-2.2866,-2.2866,-2.2866,-2.2866,-2.2866,-2.2866,-2.2866,-2.2866,-2.2866,-2.2928,-2.3188,-2.4663,-2.6914,-2.8761,-2.9857,-3.166,-3.2041,-3.1582,-3.1455,-3.1191,-3.1143,-3.1377,-3.1543,-3.1728,-3.2012,-3.1904,-3.1894,-3.2207,-3.2539,-3.2822,-3.2891,-3.3144,-3.3379,-3.3379,-3.3398,-3.3418,-3.3408,-3.334,-3.3135,-3.2744,-3.2539,-3.2334,-3.2148,-3.2129,-3.208,-3.1894,-3.1611,-3.1475,-3.1328,-3.1143,-3.0957,-3.0898,-3.0898,-3.0898,-3.0898,-3.0898,-3.0898,-3.0898,-3.0898,-3.0898,-3.0898,-3.0898,-3.0898,-3.0898,-3.0898,-3.0898,-3.0898,-3.0898,-3.0928,-3.1191,-3.1758,-3.2158,-3.2353,-3.2685,-3.3193,-3.3418,-3.3418,-3.3418,-3.3418,-3.3418,-3.3418,-3.3418,-3.3418,-3.3418,-3.3418,-3.3418,-3.3418,-3.3418,-3.3418,-3.3418,-3.3418,-3.3418,-3.3418,-3.3418,-3.3418,-3.3418,-3.3418,-3.3418,-3.3418,-3.3418,-3.3418,-3.3418,-2.2866,-2.2866,-2.2866,-2.2866,-2.2866,-2.2866,-2.2866,-2.2866,-2.2866,-2.2866,-2.2866,-2.2866,-2.2866,-2.2866,-2.2866,-2.2866,-2.2866,-2.2866,-2.2866,-2.2866,-2.2866,-2.2866,-2.3263,-2.4053,-2.539,-2.6698,-2.8515,-3.0756,-3.1815,-3.1768,-3.1357,-3.1133,-3.1162,-3.1494,-3.165,-3.1855,-3.2207,-3.2598,-3.2559,-3.2461,-3.2646,-3.2754,-3.29,-3.3135,-3.3418,-3.3418,-3.3418,-3.3418,-3.3418,-3.3408,-3.3418,-3.3184,-3.2822,-3.2988,-3.2754,-3.2373,-3.25,-3.248,-3.2236,-3.1904,-3.1641,-3.1426,-3.1201,-3.1006,-3.0898,-3.0898,-3.0898,-3.0898,-3.0898,-3.0898,-3.0898,-3.0898,-3.0898,-3.0898,-3.0898,-3.0898,-3.0898,-3.0898,-3.0898,-3.0898,-3.0898,-3.1055,-3.1279,-3.1611,-3.2021,-3.2344,-3.2627,-3.2998,-3.331,-3.3418,-3.3418,-3.3418,-3.3418,-3.3418,-3.3418,-3.3418,-3.3418,-3.3418,-3.3418,-3.3418,-3.3418,-3.3418,-3.3418,-3.3418,-3.3418,-3.3418,-3.3418,-3.3418,-3.3418,-3.3418,-3.3418,-3.3418,-3.3418,-3.3418,-3.3418,-2.2866,-2.2866,-2.2866,-2.2866,-2.2866,-2.2866,-2.2866,-2.2866,-2.2866,-2.2866,-2.2866,-2.2866,-2.2866,-2.2866,-2.2866,-2.2866,-2.2866,-2.2866,-2.2866,-2.2866,-2.2866,-2.2866,-2.359,-2.4716,-2.6046,-2.7264,-2.9756,-3.1651,-3.1852,-3.1699,-3.1377,-3.126,-3.1572,-3.1894,-3.2041,-3.2363,-3.2646,-3.3047,-3.3047,-3.3047,-3.3047,-3.3096,-3.3144,-3.3389,-3.3418,-3.3418,-3.3418,-3.3418,-3.3418,-3.3418,-3.3418,-3.3359,-3.3174,-3.3252,-3.3154,-3.2959,-3.292,-3.2959,-3.2607,-3.2197,-3.1816,-3.1631,-3.1172,-3.0937,-3.0898,-3.0898,-3.0898,-3.0898,-3.0898,-3.0898,-3.0898,-3.0898,-3.0898,-3.0898,-3.0898,-3.0898,-3.0898,-3.0898,-3.0898,-3.0898,-3.0898,-3.0937,-3.1172,-3.1416,-3.1826,-3.2256,-3.2559,-3.2969,-3.3242,-3.3418,-3.3418,-3.3418,-3.3418,-3.3418,-3.3418,-3.3418,-3.3418,-3.3418,-3.3418,-3.3418,-3.3418,-3.3418,-3.3418,-3.3418,-3.3418,-3.3418,-3.3418,-3.3418,-3.3418,-3.3418,-3.3418,-3.3418,-3.3418,-3.3418,-3.3418,-2.2866,-2.2866,-2.2866,-2.2866,-2.2866,-2.2866,-2.2866,-2.2866,-2.2866,-2.2866,-2.2866,-2.2866,-2.2866,-2.2866,-2.2866,-2.2866,-2.2866,-2.2866,-2.2866,-2.2866,-2.2866,-2.2866,-2.3659,-2.4986,-2.6983,-2.8918,-3.0978,-3.1581,-3.1768,-3.1592,-3.1562,-3.167,-3.2021,-3.2412,-3.2705,-3.29,-3.3057,-3.3252,-3.333,-3.3369,-3.3398,-3.3418,-3.3398,-3.3398,-3.3418,-3.3418,-3.3418,-3.3418,-3.3418,-3.3418,-3.3418,-3.3379,-3.3359,-3.3379,-3.3389,-3.3271,-3.3252,-3.3301,-3.3135,-3.2529,-3.2256,-3.1934,-3.1299,-3.0947,-3.0918,-3.0898,-3.0898,-3.0898,-3.0898,-3.0898,-3.0898,-3.0898,-3.0898,-3.0898,-3.0898,-3.0898,-3.0898,-3.0898,-3.0898,-3.0898,-3.0898,-3.0908,-3.1201,-3.1426,-3.1738,-3.2158,-3.2549,-3.2959,-3.3271,-3.3369,-3.3418,-3.3418,-3.3418,-3.3418,-3.3418,-3.3418,-3.3418,-3.3418,-3.3418,-3.3418,-3.3418,-3.3418,-3.3418,-3.3418,-3.3418,-3.3418,-3.3418,-3.3418,-3.3418,-3.3418,-3.3418,-3.3418,-3.3418,-3.3418,-3.3418,-2.2866,-2.2866,-2.2866,-2.2866,-2.2866,-2.2866,-2.2866,-2.2866,-2.2866,-2.2866,-2.2866,-2.2866,-2.2866,-2.2866,-2.2866,-2.2866,-2.2866,-2.2866,-2.2866,-2.2866,-2.2866,-2.2866,-2.3774,-2.5769,-2.9064,-3.0834,-3.1757,-3.1653,-3.1875,-3.1719,-3.1728,-3.2051,-3.2461,-3.2725,-3.2803,-3.3037,-3.3291,-3.3418,-3.3418,-3.3418,-3.3418,-3.3418,-3.3418,-3.3418,-3.3418,-3.3418,-3.3418,-3.3418,-3.3418,-3.3418,-3.3418,-3.3418,-3.3418,-3.3418,-3.3418,-3.3418,-3.3418,-3.3418,-3.3164,-3.2656,-3.2363,-3.2178,-3.1562,-3.1006,-3.0967,-3.0908,-3.0908,-3.0898,-3.0898,-3.0898,-3.0898,-3.0898,-3.0898,-3.0898,-3.0898,-3.0898,-3.0898,-3.0898,-3.0898,-3.0898,-3.0898,-3.1172,-3.1621,-3.1816,-3.1973,-3.2353,-3.2666,-3.3047,-3.333,-3.3379,-3.3418,-3.3418,-3.3418,-3.3418,-3.3418,-3.3418,-3.3418,-3.3418,-3.3418,-3.3418,-3.3418,-3.3418,-3.3418,-3.3418,-3.3418,-3.3418,-3.3418,-3.3418,-3.3418,-3.3418,-3.3418,-3.3418,-3.3418,-3.3418,-3.3418]}]]